[[{"header":{"parameterUnit":"m.s-1","parameterCategory":1,"la1":30.6,"la2":28.766,"lo1":-90.7593,"lo2":-88.6598,"dy":0.0162,"dx":0.0183,"nx":116,"ny":114,"refTime":"2023-11-22T06:00:00:Z","depth":0,"parameterNumber":2,"parameterNumberName":"U-component_of_WINDS"},"data":[0.0,0.0,0.0,0.0,0.0,0.0,0.0,0.0,0.0,0.0,0.0,0.0,0.0,0.0,0.0,0.0,0.0,0.0,0.0,0.0,0.0,0.0,0.0,0.0,0.0,0.0,0.0,0.0,0.0,0.0,0.0,0.0,0.0,0.0,0.0,0.0,0.0,0.0,0.0,0.0,0.0,0.0,0.0,0.0,0.0,0.0,0.0,0.0,0.0,0.0,0.0,0.0,0.0,0.0,0.0,0.0,0.0,0.0,0.0,0.0,0.0,0.0,0.0,0.0,0.0,0.0,0.0,0.0,0.0,0.0,0.0,0.0,0.0,0.0,0.0,0.0,0.0,0.0,0.0,0.0,0.0,0.0,0.0,0.0,0.0,0.0,0.0,0.0,0.0,0.0,0.0,0.0,0.0,0.0,0.0,0.0,0.0,0.0,0.0,0.0,0.0,0.0,0.0,0.0,0.0,0.0,0.0,0.0,0.0,0.0,0.0,0.0,0.0,0.0,0.0,0.0,0.0,0.0,0.0,0.0,0.0,0.0,0.0,0.0,0.0,0.0,0.0,0.0,0.0,0.0,0.0,0.0,0.0,0.0,0.0,0.0,0.0,0.0,0.0,0.0,0.0,0.0,0.0,0.0,0.0,0.0,0.0,0.0,0.0,0.0,0.0,0.0,0.0,0.0,0.0,0.0,0.0,0.0,0.0,0.0,0.0,0.0,0.0,0.0,0.0,0.0,0.0,0.0,0.0,0.0,0.0,0.0,0.0,0.0,0.0,0.0,0.0,0.0,0.0,0.0,0.0,0.0,0.0,0.0,0.0,0.0,0.0,0.0,0.0,0.0,0.0,0.0,0.0,0.0,0.0,0.0,0.0,0.0,0.0,0.0,0.0,0.0,0.0,0.0,0.0,0.0,0.0,0.0,0.0,0.0,0.0,0.0,0.0,0.0,0.0,0.0,0.0,0.0,0.0,0.0,0.0,0.0,0.0,0.0,0.0,0.0,0.0,0.0,0.0,0.0,0.0,0.0,0.0,0.0,0.0,0.0,0.0,0.0,0.0,0.0,0.0,0.0,0.0,0.0,0.0,0.0,0.0,0.0,0.0,0.0,0.0,0.0,0.0,0.0,0.0,0.0,0.0,0.0,0.0,0.0,0.0,0.0,0.0,0.0,0.0,0.0,0.0,0.0,0.0,0.0,0.0,0.0,0.0,0.0,0.0,0.0,0.0,0.0,0.0,0.0,0.0,0.0,0.0,0.0,0.0,0.0,0.0,0.0,0.0,0.0,0.0,0.0,0.0,0.0,0.0,0.0,0.0,0.0,0.0,0.0,0.0,0.0,0.0,0.0,0.0,0.0,0.0,0.0,0.0,0.0,0.0,0.0,0.0,0.0,0.0,0.0,0.0,0.0,0.0,0.0,0.0,0.0,0.0,0.0,0.0,0.0,0.0,0.0,0.0,0.0,0.0,0.0,0.0,0.0,0.0,0.0,0.0,0.0,0.0,0.0,0.0,0.0,0.0,0.0,0.0,0.0,0.0,0.0,0.0,0.0,0.0,0.0,0.0,0.0,0.0,0.0,0.0,0.0,0.0,0.0,0.0,0.0,0.0,0.0,0.0,0.0,0.0,0.0,0.0,0.0,0.0,0.0,0.0,0.0,0.0,0.0,0.0,0.0,0.0,0.0,0.0,0.0,0.0,0.0,0.0,0.0,0.0,0.0,0.0,0.0,0.0,0.0,0.0,0.0,0.0,0.0,0.0,0.0,0.0,0.0,0.0,0.0,0.0,0.0,0.0,0.0,0.0,0.0,0.0,0.0,0.0,0.0,0.0,0.0,0.0,0.0,0.0,0.0,0.0,0.0,0.0,0.0,0.0,0.0,0.0,0.0,0.0,0.0,0.0,0.0,0.0,0.0,0.0,0.0,0.0,0.0,0.0,0.0,0.0,0.0,0.0,0.0,0.0,0.0,0.0,0.0,0.0,0.0,0.0,0.0,0.0,0.0,0.0,0.0,0.0,0.0,0.0,0.0,0.0,0.0,0.0,0.0,0.0,0.0,0.0,0.0,0.0,0.0,0.0,0.0,0.0,0.0,0.0,0.0,0.0,0.0,0.0,0.0,0.0,0.0,0.0,0.0,0.0,0.0,0.0,0.0,0.0,0.0,0.0,0.0,0.0,0.0,0.0,0.0,0.0,0.0,0.0,0.0,0.0,0.0,0.0,0.0,0.0,0.0,0.0,0.0,0.0,0.0,0.0,0.0,0.0,0.0,0.0,0.0,0.0,0.0,0.0,0.0,0.0,0.0,0.0,0.0,0.0,0.0,0.0,0.0,0.0,0.0,0.0,0.0,0.0,0.0,0.0,0.0,0.0,0.0,0.0,0.0,0.0,0.0,0.0,0.0,0.0,0.0,0.0,0.0,0.0,0.0,0.0,0.0,0.0,0.0,0.0,0.0,0.0,0.0,0.0,0.0,0.0,0.0,0.0,0.0,0.0,0.0,0.0,0.0,0.0,0.0,0.0,0.0,0.0,0.0,0.0,0.0,0.0,0.0,0.0,0.0,0.0,0.0,0.0,0.0,0.0,0.0,0.0,0.0,0.0,0.0,0.0,0.0,0.0,0.0,0.0,0.0,0.0,0.0,0.0,0.0,0.0,0.0,0.0,0.0,0.0,0.0,0.0,0.0,0.0,0.0,0.0,0.0,0.0,0.0,0.0,0.0,0.0,0.0,0.0,0.0,0.0,0.0,0.0,0.0,0.0,0.0,0.0,0.0,0.0,0.0,0.0,0.0,0.0,0.0,0.0,0.0,0.0,0.0,0.0,0.0,0.0,0.0,0.0,0.0,0.0,0.0,0.0,0.0,0.0,0.0,0.0,0.0,0.0,0.0,0.0,0.0,0.0,0.0,0.0,0.0,0.0,0.0,0.0,0.0,0.0,0.0,0.0,0.0,0.0,0.0,0.0,0.0,0.0,0.0,0.0,0.0,0.0,0.0,0.0,0.0,0.0,0.0,0.0,0.0,0.0,0.0,0.0,0.0,0.0,0.0,0.0,0.0,0.0,0.0,0.0,0.0,0.0,0.0,0.0,0.0,0.0,0.0,0.0,0.0,0.0,0.0,0.0,0.0,0.0,0.0,0.0,0.0,0.0,0.0,0.0,0.0,0.0,0.0,0.0,0.0,0.0,0.0,0.0,0.0,0.0,0.0,0.0,0.0,0.0,0.0,0.0,0.0,0.0,0.0,0.0,0.0,0.0,0.0,0.0,0.0,0.0,0.0,0.0,0.0,0.0,0.0,0.0,0.0,0.0,0.0,0.0,0.0,0.0,0.0,0.0,0.0,0.0,0.0,0.0,0.0,0.0,0.0,0.0,0.0,0.0,0.0,0.0,0.0,0.0,0.0,0.0,0.0,0.0,0.0,0.0,0.0,0.0,0.0,0.0,0.0,0.0,0.0,0.0,0.0,0.0,0.0,0.0,0.0,0.0,0.0,0.0,0.0,0.0,0.0,0.0,0.0,0.0,0.0,0.0,0.0,0.0,0.0,0.0,0.0,0.0,0.0,0.0,0.0,0.0,0.0,0.0,0.0,0.0,0.0,0.0,0.0,0.0,0.0,0.0,0.0,0.0,0.0,0.0,0.0,0.0,0.0,0.0,0.0,0.0,0.0,0.0,0.0,0.0,0.0,0.0,0.0,0.0,0.0,0.0,0.0,0.0,0.0,0.0,0.0,0.0,0.0,0.0,0.0,0.0,0.0,0.0,0.0,0.0,0.0,0.0,0.0,0.0,0.0,0.0,0.0,0.0,0.0,0.0,0.0,0.0,0.0,0.0,0.0,0.0,0.0,0.0,0.0,0.0,0.0,0.0,0.0,0.0,0.0,0.0,0.0,0.0,0.0,0.0,0.0,0.0,0.0,0.0,0.0,0.0,0.0,0.0,0.0,0.0,0.0,0.0,0.0,0.0,0.0,0.0,0.0,0.0,0.0,0.0,0.0,0.0,0.0,0.0,0.0,0.0,0.0,0.0,0.0,0.0,0.0,0.0,0.0,0.0,0.0,0.0,0.0,0.0,0.0,0.0,0.0,0.0,0.0,0.0,0.0,0.0,0.0,0.0,0.0,0.0,0.0,0.0,0.0,0.0,0.0,0.0,0.0,0.0,0.0,0.0,0.0,0.0,0.0,0.0,0.0,0.0,0.0,0.0,0.0,0.0,0.0,0.0,0.0,0.0,0.0,0.0,0.0,0.0,0.0,0.0,0.0,0.0,0.0,0.0,0.0,0.0,0.0,0.0,0.0,0.0,0.0,0.0,0.0,0.0,0.0,0.0,0.0,0.0,0.0,0.0,0.0,0.0,0.0,0.0,0.0,0.0,0.0,0.0,0.0,0.0,0.0,0.0,0.0,0.0,0.0,0.0,0.0,0.0,0.0,0.0,0.0,0.0,0.0,0.0,0.0,0.0,0.0,0.0,0.0,0.0,0.0,0.0,0.0,0.0,0.0,0.0,0.0,0.0,0.0,0.0,0.0,0.0,0.0,0.0,0.0,0.0,0.0,0.0,0.0,0.0,0.0,0.0,0.0,0.0,0.0,0.0,0.0,0.0,0.0,0.0,0.0,0.0,0.0,0.0,0.0,0.0,0.0,0.0,0.0,0.0,0.0,0.0,0.0,0.0,0.0,0.0,0.0,0.0,0.0,0.0,0.0,0.0,0.0,0.0,0.0,0.0,0.0,0.0,0.0,0.0,0.0,0.0,0.0,0.0,0.0,0.0,0.0,0.0,0.0,0.0,0.0,0.0,0.0,0.0,0.0,0.0,0.0,0.0,0.0,0.0,0.0,0.0,0.0,0.0,0.0,0.0,0.0,0.0,0.0,0.0,0.0,0.0,0.0,0.0,0.0,0.0,0.0,0.0,0.0,0.0,0.0,0.0,0.0,0.0,0.0,0.0,0.0,0.0,0.0,0.0,0.0,0.0,0.0,0.0,0.0,0.0,0.0,0.0,0.0,0.0,0.0,0.0,0.0,0.0,0.0,0.0,0.0,0.0,0.0,0.0,0.0,0.0,0.0,0.0,0.0,0.0,0.0,0.0,0.0,0.0,0.0,0.0,0.0,0.0,0.0,0.0,0.0,0.0,0.0,0.0,0.0,0.0,0.0,0.0,0.0,0.0,0.0,0.0,0.0,0.0,0.0,0.0,0.0,0.0,0.0,0.0,0.0,0.0,0.0,0.0,0.0,0.0,0.0,0.0,0.0,0.0,0.0,0.0,0.0,0.0,0.0,0.0,0.0,0.0,0.0,0.0,0.0,0.0,0.0,0.0,0.0,0.0,0.0,0.0,0.0,0.0,0.0,0.0,0.0,0.0,0.0,0.0,0.0,0.0,0.0,0.0,0.0,0.0,0.0,0.0,0.0,0.0,0.0,0.0,0.0,0.0,0.0,0.0,0.0,0.0,0.0,0.0,0.0,0.0,0.0,0.0,0.0,0.0,0.0,0.0,0.0,0.0,0.0,0.0,0.0,0.0,0.0,0.0,0.0,0.0,0.0,0.0,0.0,0.0,0.0,0.0,0.0,0.0,0.0,0.0,0.0,0.0,0.0,0.0,0.0,0.0,0.0,0.0,0.0,0.0,0.0,0.0,0.0,0.0,0.0,0.0,0.0,0.0,0.0,0.0,0.0,0.0,0.0,0.0,0.0,0.0,0.0,0.0,0.0,0.0,0.0,0.0,0.0,0.0,0.0,0.0,0.0,0.0,0.0,0.0,0.0,0.0,0.0,0.0,0.0,0.0,0.0,0.0,0.0,0.0,0.0,0.0,0.0,0.0,0.0,0.0,0.0,0.0,0.0,0.0,0.0,0.0,0.0,0.0,0.0,0.0,0.0,0.0,0.0,0.0,0.0,0.0,0.0,0.0,0.0,0.0,0.0,0.0,0.0,0.0,0.0,0.0,0.0,0.0,0.0,0.0,0.0,0.0,0.0,0.0,0.0,0.0,0.0,0.0,0.0,0.0,0.0,0.0,0.0,0.0,0.0,0.0,0.0,0.0,0.0,0.0,0.0,0.0,0.0,0.0,0.0,0.0,0.0,0.0,0.0,0.0,0.0,0.0,0.0,5.0709,5.0709,0.0,0.0,0.0,0.0,0.0,0.0,0.0,0.0,0.0,0.0,0.0,0.0,0.0,0.0,0.0,0.0,0.0,0.0,0.0,0.0,0.0,0.0,0.0,0.0,0.0,0.0,0.0,0.0,0.0,0.0,0.0,0.0,0.0,0.0,0.0,0.0,0.0,0.0,4.7287,4.7896,4.873,4.873,4.8492,4.8095,0.0,0.0,0.0,0.0,0.0,0.0,0.0,0.0,0.0,0.0,0.0,0.0,0.0,0.0,0.0,0.0,0.0,0.0,0.0,0.0,0.0,0.0,0.0,0.0,0.0,0.0,0.0,0.0,0.0,0.0,0.0,0.0,0.0,0.0,0.0,0.0,0.0,0.0,0.0,0.0,0.0,0.0,0.0,0.0,0.0,0.0,0.0,0.0,0.0,0.0,0.0,0.0,0.0,0.0,0.0,0.0,0.0,0.0,0.0,0.0,0.0,0.0,0.0,0.0,0.0,0.0,0.0,0.0,0.0,0.0,5.1462,5.1265,0.0,0.0,0.0,0.0,0.0,0.0,0.0,0.0,0.0,0.0,0.0,0.0,0.0,0.0,0.0,0.0,0.0,0.0,0.0,0.0,0.0,0.0,0.0,4.5592,4.5592,4.5592,4.5592,4.5592,0.0,0.0,0.0,0.0,0.0,0.0,4.583,4.6544,4.7049,4.7348,4.8135,4.8923,4.9637,5.0353,4.9916,4.8565,4.8565,0.0,0.0,0.0,0.0,0.0,0.0,0.0,0.0,0.0,0.0,0.0,0.0,0.0,0.0,0.0,0.0,0.0,0.0,0.0,0.0,0.0,0.0,0.0,0.0,0.0,0.0,0.0,0.0,0.0,0.0,0.0,0.0,0.0,0.0,0.0,0.0,0.0,0.0,0.0,0.0,0.0,0.0,0.0,0.0,0.0,0.0,0.0,0.0,0.0,0.0,0.0,0.0,0.0,0.0,0.0,0.0,0.0,0.0,0.0,0.0,0.0,0.0,0.0,5.1819,5.2127,5.2148,5.2863,5.3219,5.3178,5.2586,5.2278,5.2177,5.289,0.0,0.0,0.0,0.0,0.0,0.0,0.0,0.0,0.0,0.0,0.0,0.0,0.0,0.0,0.0,0.0,0.0,0.0,0.0,0.0,0.0,4.5592,4.5592,4.5592,4.5592,4.5592,4.5592,0.0,0.0,4.5592,4.5592,4.595,4.6703,4.6823,4.7609,4.9065,4.9923,5.043,5.0512,5.0668,5.0589,5.0353,5.0353,4.9954,4.9202,0.0,0.0,0.0,0.0,0.0,0.0,0.0,0.0,0.0,0.0,0.0,0.0,0.0,0.0,0.0,0.0,0.0,0.0,0.0,0.0,0.0,0.0,0.0,0.0,0.0,0.0,0.0,0.0,0.0,0.0,0.0,0.0,0.0,0.0,0.0,0.0,0.0,0.0,0.0,0.0,0.0,4.8265,4.8276,0.0,0.0,0.0,0.0,0.0,0.0,0.0,0.0,0.0,0.0,0.0,0.0,0.0,5.1739,5.1739,5.2493,5.2887,5.2887,5.2969,5.3041,5.303,5.3148,5.3189,5.3227,5.3864,0.0,5.3046,5.3167,0.0,0.0,0.0,0.0,0.0,0.0,0.0,0.0,0.0,0.0,0.0,0.0,0.0,0.0,0.0,0.0,0.0,0.0,0.0,0.0,0.0,4.5592,4.5592,4.5592,4.5592,4.5592,4.5592,4.5592,4.5592,4.5592,4.6069,4.6504,4.69,4.7833,4.8892,5.0115,5.051,5.0709,5.0709,5.0195,4.9957,4.9954,4.9478,4.956,5.0113,4.9598,0.0,0.0,0.0,0.0,0.0,0.0,0.0,0.0,0.0,0.0,0.0,0.0,0.0,0.0,0.0,0.0,0.0,0.0,0.0,0.0,0.0,0.0,0.0,0.0,0.0,0.0,0.0,0.0,0.0,0.0,0.0,0.0,0.0,0.0,0.0,0.0,0.0,0.0,0.0,4.8399,4.8464,4.9425,4.9111,4.9161,0.0,0.0,0.0,0.0,0.0,0.0,0.0,0.0,0.0,5.2095,5.2454,5.2625,5.2644,5.3,5.3197,5.3197,5.3713,5.3928,5.396,5.4397,5.4597,5.4635,5.4995,5.4942,5.4626,5.4626,5.4598,5.4597,0.0,0.0,0.0,0.0,5.5151,5.5231,0.0,0.0,0.0,0.0,0.0,0.0,0.0,0.0,0.0,0.0,0.0,0.0,4.5592,4.5592,4.5592,4.5592,4.5592,4.5592,4.5592,4.5821,4.5936,4.5936,4.6769,4.7319,4.7547,4.8969,4.9954,5.0353,5.0353,5.0233,5.0034,4.9361,4.9058,4.9043,4.8608,4.9029,4.9995,4.9322,4.9082,4.9002,0.0,0.0,0.0,0.0,0.0,0.0,0.0,0.0,0.0,0.0,0.0,0.0,0.0,0.0,0.0,0.0,0.0,0.0,0.0,0.0,0.0,0.0,0.0,0.0,0.0,0.0,0.0,0.0,0.0,0.0,0.0,0.0,0.0,0.0,0.0,0.0,0.0,4.9161,4.924,5.0551,5.0115,4.9995,0.0,0.0,0.0,0.0,0.0,0.0,5.2216,5.223,5.2533,5.3168,5.3404,5.3526,5.3524,5.3724,5.3842,5.3842,5.4438,5.4715,5.4715,5.5231,5.547,5.547,5.5549,5.5588,5.5588,5.5667,5.5706,5.5706,5.5706,5.5706,5.5706,5.5706,5.5706,5.5706,0.0,0.0,0.0,0.0,0.0,0.0,0.0,0.0,0.0,0.0,0.0,4.5592,4.5592,4.5592,4.5592,4.5592,4.5592,4.5592,4.5592,4.6355,4.6812,4.6812,4.7604,4.8422,4.9261,5.0173,5.0233,4.9478,4.9478,4.9043,4.8248,4.8207,4.8185,4.8201,4.8992,4.8938,4.8248,4.8169,4.8169,4.809,4.7295,0.0,0.0,0.0,0.0,0.0,0.0,0.0,0.0,0.0,0.0,0.0,0.0,0.0,0.0,0.0,0.0,0.0,0.0,0.0,0.0,0.0,0.0,0.0,0.0,0.0,0.0,0.0,0.0,0.0,0.0,0.0,0.0,0.0,0.0,0.0,0.0,0.0,0.0,5.0709,5.0668,0.0,0.0,0.0,0.0,5.1859,5.2611,5.3087,5.3126,5.3113,5.3135,5.3214,5.4009,5.4443,5.4438,5.5192,5.5588,5.5588,5.5352,5.5269,5.5231,5.4954,5.4836,5.4874,5.519,5.531,5.5349,5.5588,5.5706,5.5706,5.5706,5.5706,5.5706,5.5706,5.5706,5.5706,0.0,0.0,0.0,0.0,0.0,0.0,0.0,0.0,4.5592,4.5592,4.5592,4.5592,4.5592,4.5592,4.5592,4.5592,4.6126,4.6432,4.6432,4.7199,4.7658,4.7658,4.8485,4.9074,4.9386,4.9689,4.943,4.8565,4.9112,4.9224,4.8945,4.8945,4.8927,4.8921,4.8683,4.839,4.8174,4.9314,4.9779,4.9738,4.9461,4.9502,0.0,0.0,0.0,0.0,0.0,0.0,0.0,0.0,0.0,0.0,0.0,0.0,0.0,0.0,0.0,0.0,0.0,0.0,0.0,0.0,0.0,0.0,0.0,0.0,0.0,0.0,0.0,0.0,0.0,0.0,0.0,0.0,0.0,0.0,0.0,0.0,0.0,5.1421,5.1462,0.0,5.2254,5.2572,5.2743,5.2754,5.3026,5.3344,5.37,5.3902,5.4199,5.4556,5.5033,5.5192,5.5033,5.5826,5.6104,5.5906,5.6302,5.6649,5.6825,5.6703,5.6825,5.7068,5.7189,5.7243,5.7252,5.7332,5.67,5.5706,5.5706,5.6024,5.6541,5.6541,5.6895,5.7373,0.0,0.0,0.0,0.0,0.0,0.0,0.0,0.0,4.5592,4.5592,4.5592,4.5592,4.5592,4.5592,4.5708,4.6011,4.6584,4.7005,4.7274,4.8084,4.8545,4.8545,4.9093,4.9413,4.9386,4.9389,4.8987,4.8106,4.8967,4.9259,4.8949,4.8949,4.8949,4.8949,4.8671,4.8552,4.8611,5.0069,5.0375,4.982,4.982,5.0019,5.0209,0.0,0.0,0.0,0.0,0.0,0.0,0.0,0.0,0.0,0.0,0.0,0.0,0.0,0.0,0.0,0.0,0.0,0.0,0.0,0.0,0.0,0.0,0.0,0.0,0.0,0.0,0.0,0.0,0.0,0.0,0.0,0.0,0.0,0.0,0.0,5.1739,5.2295,5.2343,5.2559,5.3154,5.3353,5.3523,5.3648,5.3801,5.404,5.4438,5.4912,5.5282,5.5538,5.5983,5.6183,5.6104,5.6531,5.6667,5.6587,5.6868,5.7155,5.7364,5.728,5.7356,5.7637,5.7716,5.7757,5.7794,5.7995,5.744,5.6371,5.6524,5.6936,5.7447,5.7451,5.7797,5.8311,0.0,0.0,0.0,0.0,0.0,0.0,0.0,4.5592,4.5592,4.5592,4.5592,4.5592,4.5592,4.5631,4.5975,4.6812,4.6966,4.7312,4.8084,4.8971,4.9435,4.9397,4.9358,4.9363,4.9375,4.9348,4.8945,4.809,4.896,4.8988,4.813,4.8169,4.8169,4.821,4.9043,4.944,4.9519,5.0351,4.9719,4.8169,4.8169,4.8685,4.944,0.0,0.0,0.0,0.0,0.0,0.0,0.0,0.0,0.0,0.0,0.0,0.0,0.0,0.0,0.0,0.0,0.0,0.0,0.0,0.0,0.0,0.0,0.0,0.0,0.0,0.0,0.0,0.0,0.0,0.0,0.0,0.0,0.0,5.2052,5.2685,5.32,5.3241,5.3231,5.3247,5.3286,5.3763,5.4188,5.4554,5.5055,5.5349,5.5349,5.6112,5.6379,5.6025,5.6805,5.736,5.7679,5.74,5.7431,5.7703,5.7127,5.6836,5.6856,5.6586,5.6485,5.6485,5.6724,5.6842,5.6883,5.7521,5.7778,5.7819,5.816,5.8319,5.8346,5.8323,5.8363,5.8363,0.0,0.0,0.0,0.0,0.0,0.0,4.5592,4.5592,4.5592,4.5592,4.5592,4.5592,4.5592,4.6165,4.6622,4.6889,4.8007,4.8817,4.9048,4.9858,5.0053,4.9435,4.8779,4.8478,4.846,4.8462,4.8327,4.809,4.896,4.9264,4.9043,4.9678,4.9995,4.9995,5.0233,5.0351,5.0353,5.0592,5.043,4.9995,4.9995,5.0115,5.0351,0.0,0.0,0.0,0.0,0.0,0.0,0.0,0.0,0.0,0.0,0.0,0.0,0.0,0.0,0.0,0.0,0.0,0.0,0.0,0.0,0.0,0.0,0.0,0.0,0.0,0.0,0.0,0.0,0.0,0.0,0.0,0.0,5.3846,5.2974,5.3054,5.341,5.4085,5.4138,5.4358,5.4954,5.5151,5.5411,5.5927,5.6091,5.6222,5.6302,5.7,5.7113,5.653,5.7189,5.7353,5.6983,5.8088,5.8557,5.8444,5.9467,6.0082,6.0305,6.0242,6.0364,6.0566,6.004,5.9838,5.9796,5.9636,5.958,5.9518,5.8634,5.8648,5.916,5.9169,5.9554,6.011,0.0,0.0,0.0,0.0,0.0,0.0,4.5592,4.5592,4.5592,4.5592,4.5592,4.5746,4.6088,4.6584,4.7197,4.7892,4.8856,4.955,4.9938,5.0091,5.0091,4.9938,4.8779,4.8283,4.8643,4.8653,4.8628,4.8648,4.9382,4.9737,4.9757,5.0154,5.0313,5.0313,5.0313,5.0313,5.0313,5.0313,5.0392,5.0471,5.0471,5.0551,5.0709,5.0709,5.0709,5.0709,5.0709,5.0709,5.0709,5.0709,0.0,0.0,0.0,0.0,0.0,0.0,0.0,0.0,0.0,0.0,0.0,0.0,0.0,0.0,0.0,0.0,0.0,0.0,0.0,0.0,0.0,0.0,0.0,0.0,5.4676,5.4794,5.4161,5.4199,5.4438,5.4954,5.4992,5.531,5.6142,5.5986,5.6151,5.6926,5.6755,5.6607,5.669,5.7755,5.8086,5.7561,5.8588,5.9058,5.8809,5.9608,6.0026,5.9987,6.081,6.1305,6.1507,6.1507,6.1592,6.1757,6.1305,6.1098,6.1065,6.0942,6.0879,6.0784,0.0,0.0,0.0,0.0,6.0388,6.0784,0.0,0.0,0.0,0.0,0.0,0.0,4.5592,4.5592,4.5592,4.5592,4.5708,4.605,4.6812,4.7081,4.7776,4.9281,4.9473,4.982,5.0515,4.982,4.9704,5.0361,4.8933,4.8493,4.9351,4.9332,4.9394,4.9502,4.9976,5.0225,5.0247,4.9968,4.9848,4.9848,4.981,4.9807,4.9807,4.9807,4.9927,5.0135,5.0155,5.0353,5.0709,5.0709,5.0709,5.0709,5.0709,5.0709,5.0709,5.0709,0.0,0.0,0.0,0.0,0.0,0.0,0.0,0.0,0.0,0.0,0.0,0.0,0.0,0.0,0.0,0.0,0.0,0.0,0.0,0.0,0.0,0.0,0.0,0.0,5.5667,5.5588,5.531,5.5538,5.5708,5.5615,5.5706,5.6065,5.6818,5.645,5.6593,5.7669,5.7269,5.7005,5.7047,5.8608,0.0,0.0,0.0,6.1379,6.1624,6.1422,6.1475,6.1778,6.1576,6.1453,6.1453,6.1453,6.1453,6.1453,6.1368,6.1344,6.1337,6.1587,6.1702,6.1704,6.1168,6.0944,6.0944,6.0864,6.0864,6.0864,0.0,0.0,0.0,0.0,0.0,0.0,4.5592,4.5592,4.5592,4.5592,4.6203,4.6697,4.6889,4.8122,4.9048,4.9358,5.0053,5.0207,4.9704,4.9473,4.9163,4.8625,4.8276,4.8401,4.9078,4.9078,4.9395,5.0048,5.0159,5.033,5.0604,5.028,5.0118,5.0118,4.9915,4.9795,4.9795,4.9795,4.9832,4.9889,4.9862,5.0195,5.0709,5.0709,5.0709,5.0709,5.0709,5.0709,5.0709,5.0709,5.0709,5.0709,5.0709,0.0,0.0,0.0,0.0,0.0,0.0,0.0,0.0,0.0,0.0,0.0,0.0,0.0,0.0,0.0,0.0,0.0,0.0,0.0,0.0,5.5428,5.539,5.5352,5.531,5.5676,5.569,5.5061,5.5785,5.6302,5.6183,5.6659,5.7225,5.788,5.8415,5.8894,5.9265,6.0496,6.1059,6.0721,6.1288,6.1512,6.1304,6.1884,6.2181,6.2273,6.2849,0.0,6.3137,6.3137,6.3137,6.31,6.2438,6.2153,6.2129,6.1842,6.1847,6.2106,6.1973,6.1935,6.1855,6.118,6.1142,6.126,0.0,0.0,0.0,0.0,0.0,0.0,4.5592,4.5592,4.5592,4.5592,4.6355,4.7043,4.7466,4.8625,4.9589,5.0014,5.0053,4.9858,4.9435,4.8874,4.859,4.8735,4.8449,4.8723,4.9572,4.947,4.9641,5.0209,4.9928,4.9964,5.0251,4.9769,4.9559,4.9541,4.9417,4.9338,4.9338,4.9338,4.9458,4.9606,4.9602,4.9848,5.027,5.0385,5.0551,5.0709,5.0709,5.0709,5.0709,5.0709,5.0709,5.0709,5.0709,5.0709,5.0789,0.0,0.0,0.0,0.0,0.0,0.0,0.0,0.0,0.0,0.0,0.0,0.0,0.0,0.0,5.5667,0.0,0.0,5.547,5.531,5.5482,5.5655,5.5655,5.6216,5.6363,5.5731,5.6377,5.6971,5.7239,5.7839,5.8497,5.9205,5.9838,6.0295,6.0533,6.1506,6.1962,6.1826,6.2359,6.2561,6.2396,6.2806,6.3014,6.3014,6.3425,6.359,6.359,6.359,6.359,6.359,6.318,6.3014,6.2977,6.2769,6.2769,6.2918,6.2899,6.2753,6.2433,6.2066,6.2113,6.2359,0.0,0.0,0.0,0.0,0.0,0.0,0.0,4.5592,4.5592,4.5592,4.6509,4.7389,4.8045,4.9048,4.9861,5.0399,4.982,4.932,4.9163,4.838,4.8394,4.9349,4.9029,4.923,5.0088,4.9924,4.9905,5.0118,4.9652,4.9572,4.9854,4.9255,4.8994,4.9006,4.8927,4.8886,4.8886,4.8886,4.9052,4.9296,4.9296,4.9463,4.9753,4.9974,5.0286,5.0592,5.0671,5.0709,5.0709,5.0709,5.0789,5.0948,5.0948,5.1065,5.1304,5.1977,5.2281,0.0,0.0,0.0,0.0,0.0,0.0,0.0,0.0,0.0,5.5706,5.5706,5.5706,5.5629,5.5428,5.5476,5.5503,5.5462,5.5826,5.6122,5.6125,5.68,5.7153,5.6834,5.7134,5.768,5.847,5.9016,5.969,6.0561,6.1135,6.1421,6.1428,6.2193,6.2641,6.2641,6.326,6.359,6.359,6.359,6.359,6.359,6.359,6.359,6.359,6.359,6.359,6.359,6.359,6.359,6.359,6.359,6.359,6.359,6.359,6.3382,6.3022,6.2822,6.2913,6.3186,0.0,0.0,0.0,0.0,0.0,0.0,0.0,0.0,4.5592,4.5592,4.6971,4.8007,4.8084,4.9589,5.0284,4.9589,4.9473,4.9086,4.8315,4.8643,4.9004,4.9387,4.9808,4.9951,4.986,4.9838,4.9814,4.9832,4.9542,4.9662,5.0152,4.9583,4.9334,4.9338,4.9047,4.8886,4.8886,4.8886,4.8927,4.8969,4.8969,4.9135,4.9438,4.9479,4.9814,5.0274,5.0589,5.0709,5.0709,5.0709,5.1186,5.178,5.178,5.2295,5.2928,5.3046,0.0,5.4215,5.4322,5.4874,5.5428,5.5549,5.5629,5.5706,0.0,0.0,5.5706,5.5706,5.5706,5.5706,5.5667,5.6041,5.6265,5.5975,5.6308,5.6622,5.6618,5.7104,5.7546,5.7789,5.7878,5.8115,5.8613,5.9387,6.0163,6.1043,6.184,6.2276,6.2279,6.3014,6.3468,6.3468,6.3548,6.359,6.359,6.359,6.359,6.359,6.359,6.359,6.359,6.359,6.359,6.359,6.359,6.359,6.359,6.359,6.359,6.359,6.359,6.3793,6.3924,6.2853,6.2665,6.282,0.0,0.0,0.0,0.0,0.0,0.0,0.0,0.0,0.0,4.624,4.7337,4.8276,4.8817,4.9976,5.0555,5.0207,4.9704,4.9243,4.8894,4.8743,4.8932,4.9382,4.959,4.9759,4.98,4.9662,4.9585,4.9583,4.9255,4.9334,4.9745,4.9296,4.9093,4.9093,4.8969,4.8886,4.8886,4.8886,4.8886,4.8886,4.8886,4.8969,4.9213,5.0073,5.0527,5.0758,5.1045,5.1265,0.0,5.1977,5.2375,5.2642,5.2659,5.2918,5.3313,5.3828,5.4195,0.0,5.5072,5.5428,0.0,0.0,5.5706,5.5706,5.5706,5.5706,5.5667,5.5508,5.5986,5.634,5.5945,5.6486,5.6925,0.0,5.6919,5.7146,5.7414,5.7825,5.8301,5.8939,5.9003,5.9082,5.926,6.0524,6.1487,6.1752,6.2604,6.31,6.31,6.3425,6.359,6.359,6.359,6.359,6.359,6.359,6.359,6.359,6.359,6.359,6.359,6.359,6.359,6.359,6.359,6.359,6.359,6.359,6.359,6.359,6.359,6.3713,6.3814,6.3556,6.3652,6.3897,0.0,0.0,0.0,0.0,0.0,0.0,0.0,0.0,0.0,0.0,4.7551,4.8507,4.9627,5.0322,5.0594,5.0361,4.9743,4.9397,4.9397,4.8838,4.8823,4.9596,4.9557,4.9574,4.9675,4.9583,4.9468,4.9417,4.9052,4.9052,4.9379,4.9052,4.8886,4.8886,4.8886,4.8886,4.8886,4.8886,4.8886,4.8927,4.913,4.9213,4.9375,5.0688,5.1274,5.1477,5.1823,5.2078,5.2333,5.3005,5.3361,5.3548,5.3551,5.3722,5.4001,5.4635,5.4833,5.4954,5.5549,0.0,0.0,5.5706,5.5706,5.5706,5.5706,5.5903,5.5986,5.5826,5.6612,5.7168,5.6574,5.7091,5.7544,5.7446,5.7539,5.7741,5.8068,5.8532,5.9051,5.9597,6.0042,6.0328,6.0263,6.1544,6.2385,6.2507,6.3146,6.3548,6.3505,6.3505,6.3505,6.3505,6.3548,6.3548,6.3548,6.359,6.359,6.359,6.359,6.359,6.359,6.359,6.359,6.359,6.359,6.359,6.359,6.359,6.359,6.359,6.359,6.359,6.3633,6.3922,6.4204,6.4413,0.0,0.0,0.0,0.0,0.0,0.0,0.0,0.0,0.0,0.0,0.0,0.0,0.0,5.0671,5.0361,4.9512,4.9435,4.9397,4.9397,4.8838,4.9005,5.0124,4.9911,4.9669,4.9434,4.9662,4.9664,4.9417,4.9052,4.9052,4.9379,4.9052,4.8886,4.8886,4.8886,4.8886,4.8886,4.8886,4.8886,4.8969,4.9749,5.0073,5.0156,5.1058,5.1758,5.2354,5.2925,5.3141,5.317,5.3173,5.3768,5.4443,5.4479,5.4992,0.0,5.5667,5.5667,5.5667,5.5706,0.0,5.5706,5.5706,5.5706,5.5706,5.5706,5.6343,5.6975,5.6936,5.7635,5.8134,5.7733,5.7973,5.8158,5.7834,5.8158,5.8455,5.838,5.9109,5.9658,5.9623,6.0984,6.1887,0.0,6.2015,6.2527,6.3317,6.338,6.3345,6.3222,6.3222,6.3222,6.3222,6.3345,6.3425,6.3425,6.3548,6.359,6.359,6.359,6.359,6.359,6.359,6.359,6.359,6.359,6.359,6.359,6.359,6.359,6.359,6.359,6.359,6.359,6.359,6.3633,6.3633,0.0,0.0,0.0,0.0,0.0,0.0,0.0,0.0,0.0,0.0,0.0,0.0,0.0,0.0,0.0,0.0,5.0245,5.0184,4.995,4.9745,4.9727,4.9911,4.9857,4.9752,4.968,4.9565,4.9506,4.9417,4.9052,4.8969,4.9052,4.8964,4.8886,4.8886,4.8886,4.8886,4.8886,4.8886,4.9213,4.9707,4.9994,5.0431,5.1084,5.2118,5.2792,5.3275,0.0,5.4349,5.4158,5.4676,5.5033,5.531,5.531,5.547,5.5706,5.5706,5.5706,5.5706,5.5706,0.0,5.5706,5.5706,5.6142,5.6579,5.6579,5.7252,5.7788,5.756,5.8355,5.8918,5.8351,5.8726,5.9033,5.8728,5.8447,5.8332,5.8401,5.9031,5.9686,6.0207,6.1196,0.0,0.0,0.0,6.2954,6.3103,6.3228,6.3259,6.3179,6.3179,6.3252,6.3338,6.3386,6.3431,6.3548,6.359,6.3548,6.3468,6.3382,6.3382,6.3468,6.3382,6.3345,6.3345,6.3425,6.3425,6.3345,6.3548,6.3548,6.3468,6.3553,6.359,6.359,6.359,6.359,6.359,0.0,0.0,0.0,0.0,0.0,0.0,0.0,0.0,0.0,0.0,0.0,0.0,0.0,0.0,0.0,0.0,0.0,5.0612,5.0383,5.0171,5.0034,4.9958,4.9834,4.9772,4.9641,4.9564,4.9446,4.9213,4.901,4.8886,4.8886,4.8886,4.8886,4.8886,4.8886,4.8886,4.8927,4.9213,4.9666,5.0147,5.076,5.132,5.1939,5.3087,5.3747,0.0,5.4989,5.5151,5.4995,5.5547,5.5706,5.5706,5.5706,5.5706,5.5706,5.5706,5.5706,5.5706,5.5706,5.5706,5.5785,5.6104,5.6579,5.7085,5.7404,5.811,5.8646,5.8298,5.9078,5.9554,5.8838,5.9064,5.9202,5.883,5.8702,5.8646,5.8697,5.9601,6.0438,6.0909,6.1672,6.237,0.0,0.0,0.0,6.2994,6.3064,6.3112,6.3044,6.3044,6.3119,6.3161,6.3215,6.3302,6.338,6.3422,6.3413,6.3332,6.3223,6.3254,6.3326,6.3246,6.3203,6.3203,6.3289,6.3308,6.3291,6.3444,6.3473,6.3425,6.3548,6.3553,6.3548,6.359,6.359,6.359,0.0,0.0,0.0,0.0,0.0,0.0,0.0,0.0,0.0,0.0,0.0,0.0,0.0,0.0,0.0,0.0,0.0,0.0,5.0692,5.0132,4.9949,5.0159,4.9935,4.9681,4.9392,4.9654,4.9515,4.8927,4.8923,4.8886,4.8886,4.8886,4.8886,4.8886,4.8927,4.8969,4.901,4.9874,5.023,5.039,5.1951,5.2636,5.2803,5.391,5.4535,5.4887,5.5208,5.547,5.5706,5.5706,5.5706,5.5706,5.5706,5.5706,5.5706,5.5706,5.5706,5.5706,5.5706,5.5747,5.5983,5.6777,5.7052,5.7338,5.815,5.896,5.9435,5.9116,5.9672,6.0032,0.0,0.0,5.8725,5.8283,5.8872,5.9359,5.922,6.0702,6.175,0.0,0.0,0.0,0.0,0.0,0.0,6.2984,6.2996,6.2941,6.2805,6.2793,6.2793,6.2805,6.2922,6.3005,6.3011,6.3128,6.321,6.3192,6.3172,6.3186,6.3203,6.3167,6.3167,6.3167,6.3203,6.3277,6.3357,6.3401,6.3374,6.3382,6.3525,6.3525,6.3419,6.3525,6.3594,6.3594,0.0,0.0,0.0,0.0,0.0,0.0,0.0,0.0,0.0,0.0,0.0,0.0,0.0,0.0,0.0,0.0,0.0,0.0,5.0347,5.0432,5.0198,4.9635,4.993,4.9897,4.9397,4.9456,4.9423,4.9255,4.901,4.8886,4.8886,4.8886,4.8886,4.8927,4.9541,4.9828,4.9911,5.0734,5.1446,5.1983,5.2428,5.3128,5.391,5.4199,5.4668,5.5164,5.5264,5.547,5.5706,0.0,0.0,0.0,0.0,5.5706,5.5706,5.5706,5.5706,5.5706,5.5706,5.6183,5.6738,5.6936,5.7948,5.8873,5.8847,5.9474,5.9953,5.9554,5.9619,5.9628,0.0,0.0,0.0,5.8269,5.8787,0.0,5.9213,6.0628,0.0,6.1593,0.0,6.2793,6.2793,6.2793,0.0,0.0,6.2855,6.2842,6.2793,6.2793,6.2842,6.2947,6.2978,6.3069,6.3148,6.3088,6.3082,6.321,6.302,6.2959,6.3038,6.2958,6.2915,6.2915,6.3001,6.2996,6.2971,6.3265,6.3274,6.314,6.3349,6.339,6.3263,6.33,6.3284,6.3309,0.0,0.0,0.0,0.0,0.0,0.0,0.0,0.0,0.0,0.0,0.0,0.0,0.0,0.0,0.0,0.0,0.0,0.0,0.0,5.047,5.0336,4.9987,5.0017,4.9935,4.9776,4.9623,4.9504,4.9417,4.9213,4.9047,4.8886,4.8886,4.8886,4.8927,4.9375,4.9786,5.0216,5.104,5.1872,0.0,0.0,5.3743,5.4321,5.4626,5.4966,5.531,5.5428,5.5588,0.0,0.0,0.0,5.5706,5.5706,5.5706,5.5706,5.5706,0.0,5.5785,5.6183,5.662,5.7164,5.791,5.8687,5.9356,5.9713,5.9939,5.9979,5.9656,5.9628,0.0,5.8723,5.8682,5.8707,0.0,0.0,0.0,6.0187,6.1335,6.2125,0.0,6.2541,0.0,6.2793,6.2793,6.2793,0.0,6.2793,6.2793,6.2793,6.2793,6.283,6.291,6.291,6.2966,6.3033,6.2965,6.2947,6.3008,6.2861,6.2836,6.2915,6.2829,6.2793,6.2793,6.2872,6.2915,6.2897,6.3148,6.315,6.3006,6.3248,6.3223,6.3109,6.3192,6.3217,6.3186,0.0,0.0,0.0,0.0,0.0,0.0,0.0,0.0,0.0,0.0,0.0,0.0,0.0,0.0,0.0,0.0,0.0,0.0,0.0,0.0,5.0386,5.0623,5.0151,5.0001,5.0125,4.9962,4.9711,4.9462,4.9432,4.9255,4.8969,4.8927,4.8886,4.8886,4.901,4.9498,5.0314,5.1174,5.2018,5.284,5.3868,5.4326,5.4418,0.0,5.531,5.539,5.5626,0.0,0.0,0.0,5.5706,5.5706,5.5706,5.5706,5.5706,5.5706,5.5785,5.6024,5.6777,5.7164,5.7684,5.9139,5.9317,5.9439,6.0492,6.0184,5.9672,5.9598,0.0,5.9329,5.8552,5.8714,5.9036,5.9328,0.0,6.0813,6.1513,6.229,6.2793,6.2793,6.2793,6.2793,6.2793,6.2793,6.2793,6.2793,6.2793,6.2793,6.2793,6.2793,6.2793,6.2793,6.2793,6.2793,6.2793,6.2793,6.2793,6.2793,6.2793,6.2793,6.2793,6.2915,6.2958,6.2995,6.3104,6.3202,6.3294,6.3319,6.3309,6.3328,6.3462,6.3411,6.3325,6.3448,6.3468,6.3444,0.0,0.0,0.0,0.0,0.0,0.0,0.0,0.0,0.0,0.0,5.0484,0.0,0.0,0.0,0.0,0.0,0.0,0.0,0.0,0.0,0.0,5.031,5.0447,5.0333,4.9891,5.0022,5.0002,4.9726,4.9502,4.9375,4.9296,4.9047,4.8886,4.8927,4.9583,5.0371,5.1236,5.2062,5.2845,5.3622,5.4115,5.4471,5.4756,5.5168,0.0,0.0,0.0,0.0,0.0,0.0,5.5706,5.5706,5.5706,5.5706,5.5706,5.5706,5.6222,5.6818,5.6975,5.8022,5.9139,5.9441,5.9793,6.0118,6.0343,5.9796,0.0,0.0,5.9235,5.9069,5.9441,5.9567,5.9742,6.0114,6.0852,6.1422,6.1592,6.229,6.2793,0.0,0.0,0.0,0.0,0.0,0.0,0.0,6.2793,6.2793,6.2793,6.2793,6.2793,6.2793,6.2793,6.2793,6.2793,6.2793,6.2793,6.2793,6.2793,6.2793,6.2829,6.3541,6.3873,6.3897,6.4584,6.4888,6.4908,6.5029,6.4985,6.4896,6.5053,6.5014,6.4884,6.4926,6.4932,6.4848,0.0,0.0,0.0,0.0,0.0,0.0,0.0,0.0,0.0,0.0,5.039,5.0443,0.0,0.0,0.0,0.0,0.0,0.0,0.0,0.0,0.0,0.0,5.0433,5.0394,5.0257,5.0096,4.9995,4.9995,0.0,4.96,4.9583,4.9296,4.9172,4.9172,4.9379,5.018,5.1435,5.1806,5.2678,5.3826,5.4157,5.4494,5.4836,0.0,0.0,0.0,0.0,0.0,0.0,0.0,5.5706,5.5706,5.5706,5.5706,5.5785,5.6222,5.6659,5.72,5.8061,5.8879,5.9595,6.0068,6.0068,5.9985,6.0151,0.0,0.0,0.0,5.9397,5.9507,5.9748,6.014,0.0,6.0945,6.1349,6.1751,6.2168,6.2541,0.0,6.2793,0.0,0.0,0.0,6.2793,6.2793,6.2793,6.2793,6.2793,6.2793,6.2793,6.2793,6.2793,6.2793,6.2793,6.2793,6.2793,6.3038,6.3492,6.3492,6.3707,6.4112,6.4524,6.4716,6.474,6.5128,6.5291,6.5284,6.5376,6.5379,6.5299,6.5362,6.5355,6.5292,6.5292,6.5292,6.5225,0.0,0.0,0.0,0.0,0.0,0.0,0.0,5.028,5.028,5.028,5.028,5.0359,5.0457,5.0513,5.0553,0.0,0.0,0.0,0.0,0.0,0.0,0.0,0.0,0.0,0.0,0.0,0.0,5.0294,5.003,0.0,0.0,0.0,0.0,0.0,4.9162,4.984,5.1232,5.1422,5.2308,0.0,0.0,5.4601,0.0,0.0,0.0,0.0,0.0,0.0,0.0,0.0,5.5706,5.5706,5.5706,5.5826,5.6104,5.6815,5.7239,5.7835,5.9139,5.9592,5.9832,6.0506,6.0061,5.9566,5.9895,5.9131,0.0,0.0,5.9778,6.0045,6.028,6.0816,6.1378,0.0,6.1874,6.2082,6.2707,6.2793,6.2793,0.0,6.2793,0.0,6.2793,6.2793,0.0,6.2793,6.2793,6.2793,6.2793,6.2793,6.2793,6.2793,6.2793,6.2793,6.2793,6.3007,6.3411,6.4111,6.4263,6.4693,6.5308,6.5477,6.5577,6.5577,6.5743,6.581,6.5793,6.5793,6.5793,6.5799,6.5795,6.5826,6.5799,6.5795,6.5809,6.5809,0.0,0.0,0.0,0.0,0.0,0.0,0.0,5.028,5.028,5.028,5.028,5.0286,5.0336,5.0387,5.0465,0.0,0.0,0.0,0.0,0.0,0.0,0.0,0.0,0.0,0.0,0.0,0.0,5.0648,5.0317,0.0,0.0,0.0,0.0,0.0,0.0,4.9852,5.0712,5.1441,0.0,0.0,0.0,0.0,0.0,0.0,0.0,0.0,0.0,0.0,0.0,0.0,0.0,5.5706,5.5706,5.6222,5.6898,5.6975,0.0,0.0,5.9477,5.987,6.0228,6.0189,5.9631,5.9202,5.9431,0.0,5.8631,6.01,6.0104,6.0244,6.1725,6.2034,0.0,0.0,0.0,6.2707,6.2793,6.2793,6.2793,6.2793,0.0,0.0,6.2793,6.2793,6.2793,6.2793,6.2793,6.2793,6.2793,6.2793,6.2793,6.2793,6.2793,6.2793,6.2793,6.3575,6.4008,6.4125,6.4838,6.5218,6.5304,6.6053,6.6409,6.6409,6.7156,6.7497,6.7474,6.7474,6.7474,6.7474,6.7474,6.7474,6.7474,6.7474,6.7474,6.7357,0.0,0.0,0.0,0.0,0.0,0.0,0.0,5.0185,5.028,5.028,5.028,5.028,5.028,5.0303,5.0387,0.0,0.0,0.0,0.0,0.0,0.0,0.0,0.0,0.0,0.0,0.0,5.0507,5.0686,5.0186,0.0,0.0,0.0,0.0,0.0,0.0,5.0103,5.0895,5.1736,0.0,0.0,0.0,0.0,0.0,0.0,0.0,0.0,0.0,0.0,5.5706,0.0,0.0,0.0,5.6338,5.7082,0.0,0.0,5.8595,5.9595,6.0148,6.0426,6.0517,6.0171,5.9677,5.9303,5.9327,0.0,5.9115,6.02,6.0671,6.1138,6.2055,6.2414,6.2621,6.2786,6.2793,6.2793,6.2793,6.2793,6.2793,6.2793,6.2793,0.0,0.0,0.0,6.2793,6.2793,6.2793,6.2793,6.2793,6.2793,6.2793,6.2793,6.3313,6.3563,6.3575,6.4427,6.5068,6.557,6.5877,6.6286,6.6743,6.7076,6.7206,6.7243,6.7577,6.77,6.77,6.77,6.77,6.77,6.77,6.77,6.77,6.77,6.77,6.7657,0.0,0.0,0.0,0.0,0.0,0.0,4.9837,5.0079,5.028,5.028,5.028,5.028,5.028,5.028,5.0336,5.0376,0.0,0.0,0.0,0.0,0.0,0.0,0.0,0.0,0.0,0.0,5.0471,5.0709,5.0271,5.0239,0.0,0.0,5.0107,5.0181,0.0,0.0,0.0,0.0,0.0,0.0,0.0,0.0,0.0,0.0,0.0,0.0,0.0,0.0,0.0,0.0,0.0,0.0,0.0,0.0,0.0,0.0,5.9237,6.003,6.0624,6.0716,6.0506,6.0031,5.9547,5.916,0.0,0.0,5.9439,6.0219,6.1052,6.1759,6.2269,6.2621,6.2793,6.2793,6.2793,6.2793,6.2793,6.2793,6.2793,6.2793,0.0,6.2793,0.0,6.2793,6.2793,6.2793,6.2793,6.2793,6.2793,6.2793,6.2793,6.2793,6.3649,6.4083,6.4088,6.5143,6.5932,6.65,6.6756,6.7156,6.77,6.77,6.77,6.77,6.77,6.77,6.77,6.77,6.77,6.77,6.77,6.77,6.77,6.77,6.77,6.77,0.0,0.0,0.0,0.0,0.0,0.0,0.0,5.0079,5.028,5.028,5.028,5.028,5.028,5.028,5.028,5.028,0.0,0.0,0.0,0.0,0.0,0.0,0.0,0.0,0.0,0.0,0.0,5.0709,5.0705,5.0514,5.0209,5.053,5.0513,5.0192,0.0,0.0,0.0,0.0,0.0,0.0,0.0,0.0,5.531,0.0,0.0,0.0,0.0,0.0,0.0,0.0,0.0,0.0,0.0,5.7609,5.8443,5.9237,6.011,6.0784,6.0784,6.0528,6.0088,5.9526,5.9112,5.8675,0.0,0.0,5.9435,6.0237,6.1043,6.1851,6.2652,6.2793,6.2793,6.2793,6.2793,6.2793,6.2793,6.2793,6.2793,0.0,0.0,6.2793,6.2793,6.2793,6.2793,6.2793,6.2793,6.2793,6.2793,6.2793,6.2793,6.2793,6.3649,6.4103,6.4103,6.5675,6.6476,6.6512,6.729,6.77,6.77,6.77,6.77,6.77,6.77,6.77,6.77,6.77,6.77,6.77,6.77,6.77,6.77,6.77,6.77,6.77,0.0,0.0,0.0,0.0,0.0,0.0,0.0,4.9759,5.0044,5.0259,5.028,5.028,5.028,5.028,5.028,5.028,0.0,0.0,0.0,0.0,0.0,0.0,0.0,0.0,0.0,0.0,0.0,5.0709,5.0471,5.0437,5.0553,5.022,5.025,5.0521,5.0298,5.0646,0.0,0.0,0.0,0.0,0.0,5.5551,5.531,0.0,0.0,0.0,0.0,0.0,0.0,0.0,0.0,0.0,0.0,0.0,0.0,6.0142,6.0586,6.0784,6.0784,6.0671,6.0402,5.9925,5.9694,5.956,5.9614,6.0034,6.0674,6.1459,6.2057,6.2505,6.2756,6.2793,6.2793,6.2793,6.2793,6.2793,6.2793,0.0,0.0,6.2793,6.2793,6.2793,6.2793,6.2793,6.2793,6.2793,6.2793,6.2793,6.2793,6.3356,6.3692,6.3692,6.4494,6.5191,6.5748,6.6776,6.7333,6.7333,6.759,6.77,6.77,6.77,6.77,6.77,6.77,6.77,6.77,6.77,6.77,6.77,6.77,6.77,6.77,6.77,6.77,6.77,0.0,0.0,0.0,0.0,0.0,0.0,0.0,4.9581,4.991,5.0248,5.028,5.028,5.028,5.028,5.028,5.028,0.0,0.0,0.0,0.0,0.0,0.0,0.0,0.0,0.0,0.0,5.0709,5.0709,5.0471,5.0429,5.0496,5.0245,5.0268,5.0527,5.0447,5.0947,0.0,0.0,0.0,0.0,5.5629,5.5588,5.547,0.0,0.0,0.0,0.0,0.0,0.0,0.0,0.0,0.0,0.0,0.0,0.0,0.0,6.0731,6.0716,6.0743,6.0691,6.053,6.0074,6.0036,0.0,0.0,6.0704,6.138,6.1886,6.2419,6.2793,6.2793,6.2793,6.2793,6.2793,6.2793,6.2793,0.0,0.0,0.0,6.2793,0.0,0.0,6.2793,6.2793,6.2793,6.2793,6.2793,6.2793,6.2793,6.3613,6.4243,6.4537,6.5331,6.5992,6.6512,6.729,6.77,6.77,6.77,6.77,6.77,6.77,6.77,6.77,6.77,6.77,0.0,6.77,6.77,6.77,6.77,6.77,6.77,6.77,6.77,6.77,0.0,0.0,0.0,0.0,0.0,0.0,0.0,0.0,0.0,0.0,5.028,5.028,5.028,5.028,5.028,0.0,0.0,0.0,0.0,0.0,0.0,0.0,0.0,0.0,0.0,5.0709,5.0709,5.0709,5.0709,5.0525,5.0232,5.0514,5.0509,5.0263,5.0595,5.1247,0.0,0.0,0.0,0.0,5.5706,5.5706,0.0,0.0,0.0,0.0,0.0,0.0,0.0,0.0,0.0,0.0,0.0,0.0,0.0,0.0,0.0,0.0,0.0,6.0629,0.0,0.0,0.0,0.0,0.0,0.0,0.0,6.1679,6.2285,6.2793,6.2793,6.2793,6.2793,6.2793,6.2793,0.0,0.0,6.2793,0.0,0.0,6.2793,6.2793,6.2793,6.2793,6.2793,6.2793,6.2793,6.2829,6.2896,6.3723,6.453,6.5362,6.6182,6.6586,6.6586,6.7327,6.77,6.77,6.77,6.77,6.77,6.77,6.77,6.77,6.77,6.77,6.77,6.77,6.77,6.77,6.77,6.77,6.77,6.77,6.77,6.77,0.0,0.0,0.0,0.0,0.0,0.0,0.0,0.0,0.0,0.0,5.028,5.028,5.028,5.028,5.028,0.0,0.0,0.0,0.0,0.0,0.0,0.0,0.0,0.0,0.0,5.0709,5.0709,5.0709,5.0709,5.0644,5.0589,5.0404,5.0408,5.0615,5.1082,5.2276,5.3976,0.0,0.0,0.0,5.5706,5.5706,0.0,0.0,0.0,0.0,5.5638,5.5638,0.0,0.0,0.0,0.0,0.0,0.0,0.0,0.0,6.0597,6.0548,6.0526,0.0,0.0,0.0,0.0,0.0,0.0,0.0,0.0,0.0,0.0,6.2793,6.2793,6.2793,6.2793,0.0,0.0,6.2793,6.2793,0.0,0.0,6.2793,6.2793,6.2793,6.2793,6.2793,6.2793,6.2793,6.2793,6.308,6.3752,6.4584,6.5411,6.6182,6.6996,6.74,6.74,6.7627,6.77,6.77,6.77,6.77,6.77,6.77,6.77,6.77,6.77,6.77,6.77,6.77,6.77,6.77,6.77,6.77,6.77,6.77,6.77,6.77,0.0,0.0,0.0,0.0,0.0,0.0,0.0,0.0,0.0,0.0,0.0,0.0,0.0,0.0,0.0,0.0,0.0,0.0,0.0,0.0,0.0,0.0,0.0,0.0,5.0707,5.0709,5.0709,5.0709,5.0709,5.0709,5.0705,5.0505,5.0705,5.131,5.2379,5.3272,5.3992,5.52,5.5706,5.5706,5.5706,0.0,0.0,0.0,0.0,0.0,5.5615,5.5826,0.0,5.7134,5.7999,5.8815,0.0,0.0,0.0,0.0,6.0525,6.0477,6.0473,6.0786,6.1086,6.1323,0.0,0.0,0.0,0.0,0.0,0.0,0.0,0.0,6.2793,6.2793,0.0,0.0,6.2793,0.0,0.0,0.0,6.2793,6.2793,6.2793,6.2793,6.2793,6.2793,6.2793,6.2793,6.2793,6.319,6.4064,6.4841,6.5662,6.6476,6.729,6.77,6.77,6.77,6.77,6.77,6.77,6.77,6.77,6.77,6.77,6.77,6.77,6.77,6.77,6.77,6.77,6.77,6.77,6.77,6.77,6.77,6.77,6.77,0.0,0.0,0.0,0.0,0.0,0.0,0.0,0.0,0.0,0.0,0.0,0.0,0.0,0.0,0.0,0.0,0.0,0.0,0.0,0.0,0.0,0.0,0.0,5.0594,5.0682,5.0692,5.0695,5.0695,5.0705,5.0709,5.0709,5.0709,5.1205,5.2156,5.378,5.4164,5.3662,5.509,5.5706,5.5706,5.5706,0.0,0.0,0.0,0.0,0.0,0.0,0.0,0.0,5.7984,5.8732,5.936,6.0198,0.0,0.0,0.0,0.0,0.0,6.0589,6.1155,6.1621,6.1274,0.0,0.0,0.0,0.0,0.0,0.0,0.0,0.0,0.0,6.2793,0.0,0.0,0.0,0.0,6.2793,6.2793,6.2793,6.2793,6.2793,6.2793,6.2793,6.2793,6.2793,6.2793,6.2793,6.3239,6.4243,6.4928,6.5735,6.6659,6.7327,6.77,6.77,6.77,6.77,6.77,6.77,6.77,6.77,6.77,6.77,6.77,6.77,6.77,6.77,6.77,6.77,6.77,6.77,6.77,6.77,6.77,6.77,6.77,0.0,0.0,0.0,0.0,0.0,0.0,0.0,0.0,0.0,0.0,0.0,0.0,0.0,0.0,0.0,0.0,0.0,0.0,0.0,0.0,0.0,0.0,5.0481,5.0519,5.0529,5.0573,5.0632,5.0632,5.0685,5.0709,5.0709,5.0709,5.1512,5.3044,5.4049,5.4782,5.5321,5.559,5.5706,5.5706,5.5706,0.0,0.0,0.0,0.0,0.0,0.0,0.0,0.0,5.8525,5.9118,5.935,6.0144,0.0,0.0,0.0,0.0,0.0,6.1153,6.158,6.1768,6.2049,0.0,0.0,0.0,0.0,0.0,0.0,0.0,0.0,0.0,6.2793,6.2793,0.0,0.0,6.2793,0.0,0.0,6.2793,6.2793,6.2793,6.2793,6.2793,6.2793,6.2793,6.2793,6.2793,6.349,6.5038,6.5221,6.5992,6.748,6.7627,6.77,6.77,6.77,6.77,6.77,6.77,6.77,6.77,6.77,6.77,6.77,6.77,6.77,6.77,6.77,6.77,6.77,6.77,6.77,6.77,6.77,6.77,6.77,0.0,0.0,0.0,0.0,0.0,0.0,0.0,0.0,0.0,0.0,0.0,0.0,0.0,0.0,0.0,0.0,0.0,0.0,0.0,0.0,0.0,5.0359,5.039,5.0437,5.0503,5.0527,5.054,5.054,5.0594,5.066,5.066,5.1613,5.2472,5.3277,5.4587,5.5129,5.509,5.5513,5.5687,5.566,0.0,0.0,0.0,0.0,0.0,0.0,0.0,0.0,0.0,0.0,5.9496,5.9918,6.0273,0.0,0.0,0.0,0.0,0.0,6.1438,6.2111,6.2643,6.264,0.0,0.0,0.0,0.0,0.0,0.0,0.0,0.0,0.0,0.0,6.2793,6.2793,0.0,6.2793,6.2793,6.2793,6.2793,6.2793,6.2793,6.2793,6.2793,6.2793,6.2793,6.2793,6.2793,6.3527,6.5215,6.5288,6.6029,6.7664,6.77,6.77,6.77,6.77,6.77,6.77,6.77,6.77,6.77,6.77,6.77,6.77,6.77,6.77,6.77,6.77,6.77,6.77,6.77,6.77,6.77,6.77,6.77,6.77,0.0,0.0,0.0,0.0,0.0,0.0,0.0,0.0,0.0,0.0,0.0,0.0,0.0,0.0,0.0,0.0,0.0,0.0,0.0,0.0,5.028,5.028,5.0509,5.0556,5.0459,5.0473,5.0481,5.0481,5.0739,5.097,5.1255,5.2797,5.3508,5.3585,5.5052,5.5352,5.48,5.5415,5.5651,5.5593,0.0,0.0,0.0,0.0,0.0,0.0,0.0,0.0,0.0,0.0,0.0,0.0,0.0,0.0,0.0,6.0644,6.1049,6.1556,6.1934,6.261,6.3173,0.0,0.0,6.3371,6.2917,0.0,0.0,0.0,0.0,0.0,0.0,6.2793,0.0,6.2793,6.2793,6.2793,6.2793,6.2793,6.2793,6.2793,6.2793,6.2793,6.2793,6.2793,6.2793,6.2793,6.2793,6.3527,6.5215,6.5288,6.6029,6.7664,6.77,6.77,6.77,6.77,6.77,6.77,6.77,6.77,6.77,6.77,6.77,6.77,6.77,6.77,6.77,6.77,6.77,6.77,6.77,6.77,6.77,6.77,6.77,6.77,0.0,0.0,0.0,0.0,0.0,0.0,0.0,0.0,0.0,0.0,0.0,0.0,0.0,0.0,0.0,0.0,0.0,0.0,0.0,0.0,5.028,5.028,5.1079,5.1123,5.0333,5.0384,5.0412,5.0412,5.1297,5.2146,5.3038,5.3969,5.4398,5.4434,5.5321,5.5638,5.5508,5.5585,5.5587,5.5529,5.5529,0.0,0.0,0.0,0.0,0.0,0.0,0.0,0.0,0.0,0.0,0.0,0.0,0.0,6.0568,6.1287,6.1271,6.1363,6.2943,6.2893,6.2549,6.3297,0.0,0.0,6.2917,0.0,0.0,0.0,0.0,0.0,0.0,6.2793,6.2793,6.2793,6.2793,6.2793,6.2793,6.2793,6.2793,6.2793,6.2793,6.2793,6.2793,6.2793,6.2793,6.2793,6.2793,6.3527,6.5215,6.5288,6.6029,6.7664,6.77,6.77,6.77,6.77,6.77,6.77,6.77,6.77,6.77,6.77,6.77,6.77,6.77,6.77,6.77,6.77,6.77,6.77,6.77,6.77,6.77,6.77,6.77,6.77,0.0,0.0,0.0,0.0,0.0,0.0,0.0,0.0,0.0,0.0,0.0,0.0,0.0,0.0,0.0,0.0,0.0,0.0,0.0,0.0,5.1852,5.1852,5.2158,5.2193,5.1852,5.1873,5.1906,5.1946,5.2376,5.3074,5.401,5.4357,5.4723,5.5187,5.5498,5.5615,5.5558,5.5558,5.5482,5.5422,5.5422,5.573,0.0,0.0,0.0,0.0,0.0,0.0,0.0,0.0,6.0436,6.0415,6.0415,6.0756,6.1175,6.1191,6.1876,6.263,6.3026,6.3074,6.313,6.3427,6.3262,0.0,0.0,0.0,0.0,0.0,0.0,0.0,0.0,0.0,6.2793,6.2793,6.2793,6.2793,6.2793,6.2793,6.2793,6.2793,6.2793,6.2793,6.2793,6.2793,6.2793,6.2793,6.3313,6.409,6.5251,6.5772,6.6549,6.7664,6.77,6.77,6.77,6.77,6.77,6.77,6.77,6.77,6.77,6.77,6.77,6.77,6.77,6.77,6.77,6.77,6.77,6.77,6.77,6.77,6.77,6.77,6.77,6.77,0.0,0.0,0.0,0.0,0.0,0.0,0.0,0.0,0.0,0.0,0.0,0.0,0.0,0.0,0.0,0.0,0.0,0.0,5.2811,5.2811,5.2811,5.2811,5.3075,5.3228,5.3228,5.3492,5.3367,5.288,5.3252,5.3914,5.483,5.4811,5.51,5.5615,5.5615,5.5531,5.5452,5.5476,5.5473,5.5428,5.5661,5.6039,0.0,0.0,0.0,0.0,0.0,0.0,0.0,0.0,6.0313,6.0286,6.0651,6.1066,6.1469,6.1721,6.2515,6.328,6.3133,6.3286,6.3462,6.3302,6.3032,0.0,0.0,0.0,0.0,0.0,0.0,0.0,0.0,0.0,0.0,6.2793,6.2793,6.2793,6.2793,6.2793,6.2793,6.2793,6.2793,6.2793,6.2793,6.2793,6.2793,6.2793,6.3613,6.4457,6.5258,6.6072,6.6886,6.7664,6.77,6.77,6.77,6.77,6.77,6.77,6.77,6.77,6.77,6.77,6.77,6.77,6.77,6.77,6.77,6.77,6.77,6.77,6.77,6.77,6.77,6.77,6.77,6.77,0.0,0.0,0.0,0.0,0.0,0.0,0.0,0.0,0.0,0.0,0.0,0.0,0.0,0.0,0.0,0.0,0.0,0.0,5.2808,5.2808,5.2808,5.2808,5.3645,5.4104,5.4104,5.4979,5.4562,5.2811,5.3757,5.4695,5.5615,5.5549,5.5514,5.5615,5.5574,5.5502,5.5382,5.5488,5.5477,5.5466,5.6278,5.6366,5.6216,0.0,0.0,0.0,0.0,0.0,0.0,0.0,6.0129,6.0022,6.1224,6.1321,6.1334,6.3005,6.3229,6.3005,6.339,6.349,6.3371,6.2929,6.2793,0.0,6.2793,0.0,0.0,0.0,0.0,6.2793,6.2793,0.0,0.0,6.2793,6.2793,6.2793,6.2793,6.2793,6.2793,6.2793,6.2793,6.2793,6.2793,6.2793,6.2793,6.2793,6.3613,6.4463,6.5258,6.6065,6.6886,6.7664,6.77,6.77,6.77,6.77,6.77,6.77,6.77,6.77,6.77,6.77,6.77,6.77,6.77,6.77,6.77,6.77,6.77,6.77,6.77,6.77,6.77,6.77,6.77,6.77,0.0,0.0,0.0,0.0,0.0,0.0,0.0,0.0,0.0,0.0,0.0,0.0,0.0,0.0,0.0,0.0,0.0,0.0,5.4635,5.4635,5.4635,5.4635,5.4865,5.5017,5.5017,5.5285,5.5154,5.4631,5.4966,5.5246,5.5508,5.5266,5.5253,5.5434,5.5208,5.5064,5.4974,5.4995,5.5189,5.5517,5.6042,5.6869,5.7854,0.0,0.0,0.0,0.0,0.0,0.0,0.0,0.0,0.0,6.1053,6.1707,6.2353,6.2535,6.2923,6.3299,6.306,6.2996,0.0,6.283,6.2793,0.0,0.0,6.2793,0.0,0.0,6.2793,6.2793,6.2793,6.2793,0.0,6.2793,6.2793,6.2793,6.2793,6.2793,6.2793,6.2793,6.2793,6.2793,6.2793,6.2793,6.2793,6.2793,6.412,6.5038,6.5295,6.6592,6.7437,6.77,6.77,6.77,6.77,6.77,6.77,6.77,6.77,6.77,6.77,6.77,6.77,6.77,6.77,6.77,6.77,6.77,6.77,6.77,6.77,6.77,6.77,6.77,6.77,6.77,0.0,0.0,0.0,0.0,0.0,0.0,0.0,0.0,0.0,0.0,0.0,0.0,0.0,0.0,0.0,0.0,0.0,0.0,0.0,5.5396,5.5396,5.5396,5.5396,5.5396,5.5396,5.5396,5.5326,5.5142,5.5371,5.5418,5.5326,5.5213,5.5197,5.5256,5.5016,5.4873,5.4791,5.5029,5.5257,5.5573,5.6447,5.731,5.8097,0.0,0.0,0.0,0.0,0.0,0.0,0.0,0.0,0.0,6.1602,6.2164,6.263,6.2691,6.2966,6.3163,6.288,6.2793,0.0,6.2793,6.2793,6.2793,6.2793,0.0,0.0,0.0,6.2793,6.2793,6.2793,6.2793,6.2793,6.2793,6.2793,6.2793,6.2793,6.2793,6.2793,6.2793,6.2793,6.2793,6.2793,6.2793,6.2793,6.2793,6.4334,6.5288,6.5288,6.6849,6.77,6.77,6.77,6.77,6.77,6.77,6.77,6.77,6.77,6.77,6.77,6.77,6.77,6.77,6.77,6.77,6.77,6.77,6.77,6.77,6.77,6.77,6.77,6.77,6.77,6.77,0.0,0.0,0.0,0.0,0.0,0.0,0.0,0.0,0.0,0.0,0.0,0.0,0.0,0.0,0.0,0.0,0.0,0.0,0.0,0.0,5.5396,5.5396,5.5396,5.5396,5.5396,5.5374,5.5168,5.484,5.5233,5.5283,5.5099,5.5263,5.5256,5.5054,5.4913,5.4844,5.4844,5.5321,5.556,5.5749,5.7247,5.7672,5.7505,5.833,0.0,0.0,0.0,0.0,0.0,0.0,0.0,0.0,6.247,6.2577,6.2413,6.32,6.314,6.2793,6.2793,6.2793,0.0,6.2793,6.2793,0.0,6.2793,6.2793,6.2793,6.2793,0.0,6.2793,6.2793,6.2793,6.2793,6.2793,6.2793,6.2793,6.2793,6.2793,6.2793,6.2793,6.2793,6.2793,6.2793,6.2793,6.2829,6.2903,6.4407,6.5325,6.5398,6.6886,6.77,6.77,6.77,6.77,6.77,6.77,6.77,6.77,6.77,6.77,6.77,6.77,6.77,6.77,6.77,6.77,6.77,6.77,6.77,6.77,6.77,6.77,6.77,6.77,6.77,6.77,0.0,0.0,0.0,0.0,0.0,0.0,0.0,0.0,0.0,0.0,0.0,0.0,0.0,0.0,0.0,0.0,0.0,0.0,0.0,0.0,5.5396,5.5396,5.5396,5.5396,5.5396,5.5099,5.5022,5.527,5.537,5.523,5.4855,5.4922,5.4922,5.484,5.4564,5.4595,5.4886,5.5006,5.5629,5.6583,5.7249,5.7818,5.84,5.8884,5.9084,0.0,0.0,0.0,0.0,0.0,0.0,0.0,6.2261,6.249,6.2696,6.2886,6.2886,6.2793,6.2793,6.2793,0.0,6.2793,6.2793,6.2793,6.2793,6.2793,6.2793,6.2793,6.2793,6.2793,6.2793,6.2793,6.2793,6.2793,6.2793,6.2793,6.2793,6.2793,6.2793,6.2793,6.2793,6.2793,6.2793,6.2793,6.3086,6.3766,6.4744,6.5588,6.6219,6.718,6.77,6.77,6.77,6.77,6.77,6.77,6.77,6.77,6.77,6.77,6.77,6.77,6.77,6.77,6.77,6.77,6.77,6.77,6.77,6.77,6.77,6.77,6.77,6.77,6.77,6.77,0.0,0.0,0.0,0.0,0.0,0.0,0.0,0.0,0.0,0.0,0.0,0.0,0.0,0.0,0.0,0.0,0.0,0.0,0.0,0.0,5.5396,5.5396,5.5396,5.5296,5.512,5.5106,5.5032,5.4859,5.5046,5.494,0.0,0.0,5.465,5.4368,5.4535,5.4718,5.4949,5.5558,5.618,5.6833,5.7462,5.7935,5.8368,5.8959,5.9191,5.9298,6.0094,0.0,0.0,0.0,0.0,0.0,0.0,0.0,6.2793,6.2793,6.2793,6.2793,6.2793,6.2793,0.0,6.2793,0.0,6.2793,6.2793,6.2793,6.2793,6.2793,6.2793,6.2793,6.2793,6.2793,6.2793,6.2793,6.2793,6.2793,6.2793,6.2793,6.2793,6.2793,6.2793,6.2793,6.2793,6.2793,6.3166,6.4023,6.4861,6.5662,6.6476,6.7253,6.77,6.77,6.77,6.77,6.77,6.77,6.77,6.77,6.77,6.77,6.77,6.77,6.77,6.77,6.77,6.77,6.77,6.77,6.77,6.77,6.77,6.77,6.77,6.77,6.77,6.77,0.0,0.0,0.0,0.0,0.0,0.0,0.0,0.0,0.0,0.0,0.0,0.0,0.0,0.0,0.0,0.0,0.0,0.0,0.0,0.0,0.0,5.5286,5.5286,5.5137,5.4803,5.5078,5.4956,5.438,5.4548,0.0,0.0,0.0,0.0,5.4093,5.4784,5.5147,5.5311,5.6347,5.6884,5.7073,5.774,5.8076,5.829,0.0,0.0,5.9543,6.0688,6.1313,6.1661,6.215,0.0,0.0,0.0,0.0,6.2793,6.2793,6.2793,6.2793,6.2793,6.2793,6.2793,6.2793,6.2793,0.0,6.2793,6.2793,6.2793,6.2793,6.2793,6.2793,6.2793,6.2793,6.2793,6.2793,6.2793,6.2793,6.2793,6.2793,6.2793,6.2793,6.2793,6.2793,6.2793,6.2793,6.3233,6.4243,6.4928,6.5698,6.6666,6.7327,6.77,6.77,6.77,6.77,6.77,6.77,6.77,6.77,6.77,6.77,6.77,6.77,6.77,6.77,6.77,6.77,6.77,6.77,6.77,6.77,6.77,6.77,6.77,6.77,6.77,6.77,0.0,0.0,0.0,0.0,0.0,0.0,0.0,0.0,0.0,0.0,0.0,0.0,0.0,0.0,0.0,0.0,0.0,0.0,5.5396,0.0,0.0,5.49,5.49,5.484,5.4799,5.4564,5.4532,5.4735,0.0,0.0,0.0,0.0,0.0,5.4802,0.0,0.0,5.657,5.6729,5.7183,5.785,5.796,5.8437,5.9043,0.0,0.0,0.0,0.0,6.1544,6.1716,6.2469,6.2775,0.0,0.0,0.0,6.2793,6.2793,6.2793,6.2793,6.2793,6.2793,6.2793,6.2793,6.2793,6.2793,6.2793,6.2793,6.2793,6.2793,6.2793,6.2793,6.2793,6.2793,6.2793,6.2793,6.2793,6.2793,6.2793,6.2793,6.2793,6.2793,6.2793,6.2793,6.2793,6.2793,6.3453,6.5038,6.5258,6.5955,6.748,6.7627,6.77,6.77,6.77,6.77,6.77,6.77,6.77,6.77,6.77,6.77,6.77,6.77,6.77,6.77,6.77,6.77,6.77,6.77,6.77,6.77,6.77,6.77,6.77,6.77,6.77,6.77,0.0,0.0,0.0,0.0,0.0,0.0,0.0,0.0,0.0,0.0,0.0,0.0,0.0,0.0,0.0,5.5685,5.5777,5.6075,5.6768,5.6622,5.6549,5.6549,5.6549,5.6345,5.5881,5.5952,5.5814,5.5514,0.0,0.0,0.0,5.6017,5.5895,0.0,0.0,0.0,0.0,0.0,0.0,5.8033,5.8505,0.0,0.0,0.0,0.0,0.0,0.0,0.0,0.0,6.2683,6.2793,6.2793,6.2793,0.0,0.0,0.0,6.2793,6.2793,6.2793,6.2793,6.2793,6.2793,6.2793,6.2793,6.2793,6.2793,6.2793,6.2793,6.2793,6.2793,6.2793,6.2793,6.2793,6.2793,6.2793,6.2793,6.2793,6.2793,6.2793,6.2793,6.2793,6.2793,6.2793,6.3239,6.4016,6.5215,6.5735,6.6476,6.7627,6.77,6.77,6.77,6.77,6.77,6.77,6.77,6.77,6.77,6.77,6.77,6.77,6.77,6.77,6.77,6.77,6.77,6.77,6.77,6.77,6.77,6.77,6.77,6.77,6.77,6.77,6.77,0.0,0.0,0.0,0.0,0.0,0.0,0.0,0.0,0.0,0.0,0.0,0.0,0.0,0.0,0.0,0.0,5.636,5.6845,5.7831,5.7784,5.7742,5.7742,5.7664,5.7316,5.6699,5.6898,5.6715,0.0,0.0,0.0,5.6276,5.6641,5.6602,0.0,5.6859,0.0,0.0,0.0,0.0,0.0,0.0,0.0,0.0,0.0,0.0,0.0,0.0,0.0,0.0,0.0,0.0,0.0,6.2793,6.2793,0.0,0.0,0.0,6.2793,6.2793,6.2793,6.2793,6.2793,6.2793,6.2793,6.2793,6.2793,6.2793,6.2793,6.2793,6.2793,6.2793,6.2793,6.2793,6.2793,6.2793,6.2793,6.2793,6.2793,6.2793,6.2793,6.2793,6.2793,6.2793,6.3576,6.4427,6.5258,6.6035,6.6849,6.7664,6.77,6.77,6.77,6.77,6.77,6.77,6.77,6.77,6.77,6.77,6.77,6.77,6.77,6.77,6.77,6.77,6.77,6.77,6.77,6.77,6.77,6.77,6.77,6.77,6.77,6.77,6.77,0.0,0.0,0.0,0.0,0.0,0.0,0.0,0.0,0.0,0.0,0.0,0.0,0.0,5.4852,5.5323,5.6551,5.7016,5.743,5.7869,5.7554,5.7316,5.7316,5.6983,0.0,5.669,5.6336,0.0,0.0,0.0,0.0,5.6777,5.6791,5.7183,5.7892,5.7929,5.7923,5.7997,0.0,0.0,0.0,0.0,0.0,0.0,0.0,0.0,0.0,0.0,0.0,0.0,0.0,0.0,0.0,0.0,0.0,0.0,0.0,0.0,0.0,6.2793,6.2793,6.2793,6.2793,6.2793,6.2793,6.2793,6.2793,6.2793,6.2793,6.2793,6.2793,6.2793,6.2793,6.2793,6.2793,6.2793,6.2793,6.2793,6.2793,6.2793,6.2793,6.2793,6.2793,6.2793,6.3576,6.4427,6.5258,6.6035,6.6849,6.7664,6.77,6.77,6.77,6.77,6.77,6.77,6.77,6.77,6.77,6.77,6.77,6.77,6.77,6.77,6.77,6.77,6.77,6.77,6.77,6.77,6.77,6.77,6.77,6.77,6.77,6.77,6.77,0.0,0.0,0.0,0.0,0.0,0.0,0.0,0.0,0.0,0.0,0.0,0.0,0.0,5.5469,5.5925,5.7364,5.8117,5.8596,5.8728,5.8588,5.8515,5.8515,5.8382,5.8189,5.793,5.7776,0.0,0.0,0.0,5.7305,5.7556,5.7556,5.7703,5.8002,5.8002,5.829,5.8792,5.908,0.0,0.0,0.0,0.0,0.0,0.0,0.0,0.0,0.0,0.0,0.0,0.0,0.0,0.0,0.0,0.0,0.0,0.0,0.0,6.2793,6.2793,6.2793,6.2793,6.2793,6.2793,6.2793,6.2793,6.2793,6.2793,6.2793,6.2793,6.2793,6.2793,6.2793,6.2793,6.2793,6.2793,6.2793,6.2793,6.2793,6.2793,6.2793,6.2793,6.2793,6.2793,6.4047,6.5001,6.5295,6.6512,6.7407,6.7664,6.77,6.77,6.77,6.77,6.77,6.77,6.77,6.77,6.77,6.77,6.77,6.77,6.77,6.77,6.77,6.77,6.77,6.77,6.77,6.77,6.77,6.77,6.77,6.77,6.77,6.77,6.77,0.0,0.0,0.0,0.0,0.0,0.0,0.0,0.0,0.0,0.0,0.0,0.0,0.0,0.0,5.6588,5.8005,5.867,5.9069,5.9201,5.921,5.921,5.921,5.9084,5.8885,5.8607,0.0,0.0,0.0,0.0,0.0,0.0,5.8002,5.8143,5.8394,5.8394,5.8688,0.0,0.0,0.0,6.086,0.0,0.0,6.2071,0.0,0.0,0.0,0.0,0.0,0.0,0.0,0.0,0.0,0.0,0.0,0.0,0.0,0.0,0.0,6.2793,6.2793,6.2793,6.2793,6.2793,6.2793,6.2793,6.2793,6.2793,6.2793,6.2793,6.2793,6.2793,6.2793,6.2793,6.2793,6.2793,6.2793,6.2793,6.2793,6.2793,6.2793,6.2793,6.2793,6.2793,6.4334,6.5288,6.5288,6.6769,6.77,6.77,6.77,6.77,6.77,6.77,6.77,6.77,6.77,6.77,6.77,6.77,6.77,6.77,6.77,6.77,6.77,6.77,6.77,6.77,6.77,6.77,6.77,6.77,6.77,6.77,6.77,6.77,6.77,0.0,0.0,0.0,0.0,0.0,0.0,0.0,0.0,0.0,0.0,0.0,0.0,0.0,0.0,0.0,5.8465,5.8581,5.8755,5.915,5.9173,5.9173,5.9173,5.8796,5.8581,5.8581,0.0,0.0,0.0,0.0,0.0,0.0,0.0,5.8468,5.9227,5.9264,5.9264,5.9374,0.0,6.16,6.171,0.0,6.2793,6.2793,0.0,0.0,0.0,6.2793,6.2793,0.0,0.0,0.0,0.0,0.0,0.0,0.0,0.0,0.0,0.0,0.0,0.0,0.0,6.2793,6.2793,6.2793,6.2793,6.2793,6.2793,6.2793,6.2793,6.2793,6.2793,6.2793,6.2793,6.2793,6.2793,6.2793,6.2793,6.2793,6.2793,6.2793,6.2793,6.2793,6.2793,6.4334,6.5288,6.5288,6.6769,6.77,6.77,6.77,6.77,6.77,6.77,6.77,6.77,6.77,6.77,6.77,6.77,6.77,6.77,6.77,6.77,6.77,6.77,6.77,6.77,6.77,6.77,6.77,6.77,6.77,6.77,6.77,6.77,6.77,0.0,0.0,0.0,0.0,0.0,0.0,0.0,0.0,0.0,0.0,0.0,0.0,0.0,0.0,0.0,5.8153,5.8164,5.822,5.831,5.8315,5.8315,5.8315,5.8237,5.8164,5.8164,0.0,0.0,0.0,0.0,0.0,0.0,0.0,0.0,0.0,6.0676,6.0933,6.097,6.1416,0.0,0.0,6.2719,6.2793,0.0,0.0,0.0,0.0,0.0,6.2793,0.0,0.0,6.2793,6.2793,0.0,0.0,0.0,0.0,0.0,0.0,6.2793,0.0,0.0,0.0,0.0,0.0,6.2793,6.2793,6.2793,6.2793,6.2793,6.2793,6.2793,6.2793,6.2793,6.2793,6.2793,6.2793,6.2793,6.2793,6.2793,6.2793,6.2793,6.2793,6.2793,6.4334,6.5288,6.5288,6.6769,6.77,6.77,6.77,6.77,6.77,6.77,6.77,6.77,6.77,6.77,6.77,6.77,6.77,6.77,6.77,6.77,6.77,6.77,6.77,6.77,6.77,6.77,6.77,6.77,6.77,6.77,6.77,6.77,6.7774,0.0,0.0,0.0,0.0,0.0,0.0,0.0,0.0,0.0,0.0,0.0,0.0,0.0,0.0,0.0,0.0,5.8988,5.8988,5.8988,5.8988,5.8988,5.8988,5.8988,5.8988,5.8988,0.0,0.0,0.0,0.0,0.0,0.0,0.0,0.0,0.0,0.0,0.0,0.0,0.0,0.0,0.0,6.2793,0.0,0.0,6.2793,6.2793,0.0,0.0,0.0,6.2793,6.2793,6.2793,0.0,0.0,0.0,0.0,0.0,0.0,0.0,0.0,0.0,0.0,0.0,0.0,0.0,6.2793,6.2793,6.2793,6.2793,6.2793,6.2793,6.2793,6.2793,6.2793,6.2793,6.2793,6.2793,6.2793,6.2793,6.2793,6.2793,6.2793,6.2793,6.2793,6.4334,6.5288,6.5288,6.6769,6.77,6.77,6.77,6.77,6.77,6.77,6.77,6.77,6.77,6.77,6.77,6.77,6.77,6.77,6.77,6.77,6.77,6.77,6.77,6.77,6.77,6.77,6.77,6.77,6.77,6.77,6.77,6.7914,6.8274,0.0,0.0,0.0,0.0,0.0,0.0,0.0,0.0,0.0,0.0,0.0,0.0,0.0,0.0,0.0,0.0,6.0413,6.0413,6.0413,6.0413,0.0,0.0,6.0413,6.0413,6.0413,5.971,0.0,0.0,0.0,0.0,0.0,0.0,0.0,0.0,0.0,0.0,0.0,0.0,0.0,6.2793,6.2793,6.2793,0.0,0.0,6.2793,0.0,6.2793,6.2793,6.2793,6.2793,6.2793,0.0,0.0,0.0,0.0,0.0,6.278,0.0,0.0,0.0,0.0,0.0,0.0,0.0,6.2774,6.278,6.2793,6.2793,6.2793,6.2793,6.2793,6.2866,6.2903,6.2829,6.2866,6.2903,6.2793,6.2793,6.2793,6.2793,6.2793,6.2793,6.2793,6.4334,6.5288,6.5288,6.6769,6.77,6.77,6.77,6.77,6.77,6.77,6.77,6.77,6.77,6.77,6.77,6.77,6.77,6.77,6.77,6.77,6.77,6.77,6.77,6.77,6.77,6.77,6.77,6.77,6.7737,6.7841,6.7841,6.8355,6.9038,0.0,0.0,0.0,0.0,0.0,0.0,0.0,0.0,0.0,0.0,0.0,0.0,0.0,0.0,0.0,0.0,0.0,6.0413,6.0413,0.0,6.0413,6.0413,6.0413,6.0413,6.0413,6.0266,6.023,6.0413,6.023,0.0,0.0,0.0,0.0,0.0,0.0,0.0,0.0,0.0,0.0,6.2793,6.2793,0.0,6.2793,6.2793,6.2793,6.2793,6.2793,6.2793,6.2793,0.0,6.2793,6.2793,0.0,0.0,0.0,0.0,0.0,0.0,0.0,0.0,0.0,0.0,0.0,0.0,6.2667,6.2724,6.2793,6.2793,6.2793,6.2793,6.2793,6.3386,6.3613,6.2903,6.3392,6.3613,6.2903,6.2793,6.2793,6.2793,6.2793,6.2793,6.2793,6.4334,6.5288,6.5288,6.6769,6.77,6.77,6.77,6.77,6.77,6.77,6.77,6.77,6.77,6.77,6.77,6.77,6.77,6.77,6.77,6.77,6.77,6.77,6.77,6.77,6.77,6.77,6.77,6.77,6.8098,6.8678,6.8678,6.9192,6.9963,0.0,0.0,0.0,0.0,0.0,0.0,0.0,0.0,0.0,0.0,0.0,0.0,0.0,0.0,0.0,0.0,0.0,0.0,0.0,0.0,0.0,6.1582,6.1582,6.1582,6.1582,6.1582,6.1582,6.1582,6.1582,6.1808,0.0,0.0,0.0,0.0,0.0,0.0,0.0,0.0,6.2793,6.2793,6.2793,0.0,6.2793,6.2793,6.2793,6.2793,6.2793,6.2793,6.2793,6.2793,6.2749,0.0,0.0,6.2705,6.2616,0.0,6.2654,6.2603,0.0,0.0,0.0,6.2603,0.0,0.0,0.0,6.2749,6.2793,6.2793,6.2793,6.2793,6.2793,6.3166,6.3313,6.2866,6.3166,6.3313,6.2866,6.2793,6.2793,6.2793,6.2793,6.2793,6.2793,6.4334,6.5625,6.6439,6.7253,6.77,6.77,6.77,6.77,6.77,6.77,6.77,6.77,6.77,6.77,6.77,6.77,6.77,6.77,6.77,6.77,6.77,6.77,6.77,6.77,6.77,6.7951,6.8311,6.8311,6.8531,6.8965,6.9339,7.0,7.0763,0.0,0.0,0.0,0.0,0.0,0.0,0.0,0.0,0.0,0.0,0.0,0.0,0.0,0.0,0.0,0.0,0.0,0.0,0.0,0.0,0.0,0.0,6.2793,6.2793,6.2793,6.2793,6.2793,6.2793,6.2793,6.2793,6.2793,6.2793,0.0,0.0,0.0,0.0,0.0,0.0,0.0,6.2793,0.0,6.2793,6.2793,6.2793,6.2793,6.2786,6.2768,6.2755,6.2749,6.2724,0.0,6.2584,6.2711,6.2648,0.0,0.0,0.0,0.0,0.0,0.0,0.0,0.0,0.0,6.2584,0.0,0.0,0.0,6.2755,6.2774,6.2793,6.2793,6.2939,6.3013,6.2829,6.2939,6.2976,6.2829,6.2793,6.2793,6.2793,6.2793,6.2793,6.2793,6.4334,6.5962,6.759,6.77,6.77,6.77,6.77,6.77,6.77,6.77,6.77,6.77,6.77,6.77,6.77,6.77,6.77,6.77,6.77,6.77,6.77,6.77,6.77,6.77,6.7884,6.8311,6.8892,6.8892,6.9075,6.9442,7.011,7.0837,7.1527,5.9196,0.0,0.0,0.0,0.0,0.0,0.0,0.0,0.0,0.0,0.0,0.0,0.0,0.0,0.0,0.0,0.0,0.0,6.2793,0.0,0.0,0.0,0.0,0.0,6.2793,6.2793,6.2793,6.2793,6.2793,6.2793,6.2793,6.2793,0.0,0.0,6.2793,0.0,0.0,0.0,6.2793,0.0,6.2793,6.2793,0.0,6.2793,6.2793,6.2774,6.2667,6.2629,6.2603,0.0,6.2459,6.2436,0.0,6.2449,0.0,0.0,0.0,0.0,0.0,0.0,0.0,0.0,6.2324,0.0,0.0,0.0,6.2629,6.2629,0.0,6.2793,6.2793,0.0,0.0,6.2939,6.3466,6.3686,6.2903,6.2793,6.2793,6.2793,6.2793,6.2793,6.2793,6.4334,6.5962,6.759,6.77,6.77,6.77,6.77,6.77,6.77,6.77,6.77,6.77,6.77,6.77,6.77,6.77,6.77,6.77,6.77,6.77,6.77,6.77,6.77,6.7774,6.8458,6.8818,6.8892,6.8892,6.9765,7.105,7.1123,7.1674,7.2342,0.0,0.0,0.0,0.0,0.0,0.0,0.0,0.0,0.0,0.0,0.0,0.0,0.0,0.0,0.0,0.0,0.0,0.0,0.0,0.0,0.0,0.0,0.0,0.0,0.0,6.2793,6.2793,6.2793,6.2793,6.2793,6.2793,6.2793,6.2793,0.0,6.2793,0.0,6.2793,0.0,6.2793,0.0,0.0,0.0,0.0,6.2768,6.2749,6.2667,6.2526,6.2475,6.2468,0.0,6.2367,0.0,0.0,0.0,0.0,0.0,0.0,0.0,0.0,0.0,0.0,0.0,0.0,0.0,6.2298,0.0,6.2475,0.0,0.0,0.0,0.0,0.0,0.0,0.0,6.3092,6.3203,6.2866,6.2793,6.2793,6.2793,6.2793,6.3196,6.415,6.4884,6.5962,6.759,6.77,6.77,6.77,6.77,6.77,6.77,6.77,6.77,6.77,6.77,6.77,6.77,6.77,6.77,6.77,6.77,6.77,6.7737,6.8201,6.8385,6.8458,6.9265,6.9883,7.0279,7.0279,7.072,7.1344,7.1828,7.2195,7.2488,0.0,0.0,0.0,0.0,0.0,0.0,0.0,0.0,0.0,0.0,0.0,0.0,6.2793,6.2793,0.0,0.0,0.0,6.2793,0.0,0.0,6.2793,0.0,0.0,0.0,0.0,0.0,0.0,6.2793,6.2793,6.2793,6.2793,6.2793,6.2793,6.2793,0.0,6.2793,6.2786,0.0,6.2743,6.2717,6.2399,6.2152,6.2039,6.2327,6.236,6.2242,6.1897,6.1787,6.178,6.1745,6.1698,6.1529,6.1185,0.0,0.0,0.0,0.0,0.0,6.1706,0.0,0.0,0.0,0.0,0.0,0.0,0.0,0.0,0.0,0.0,0.0,0.0,0.0,0.0,0.0,0.0,6.2755,6.2786,6.2793,6.2793,6.2793,6.2793,6.338,6.4818,6.5185,6.5882,6.7253,6.759,6.77,6.77,6.77,6.77,6.77,6.77,6.77,6.77,6.77,6.77,6.77,6.77,6.77,6.77,6.77,6.7811,6.8061,6.8641,6.9038,6.9302,7.011,7.0763,7.1307,7.1527,7.1637,7.1711,7.2268,7.2488,7.2488,0.0,6.2719,0.0,0.0,0.0,0.0,0.0,0.0,0.0,0.0,0.0,0.0,0.0,0.0,0.0,0.0,0.0,6.2793,6.2793,0.0,6.2793,0.0,0.0,0.0,0.0,0.0,0.0,0.0,6.2793,6.2793,6.2793,6.2793,6.2793,6.2793,6.2793,6.2793,6.2786,6.266,6.261,6.2552,6.1737,6.1047,6.0519,0.0,6.1443,6.1343,6.0547,6.0262,6.0239,6.0125,6.007,6.0085,6.0184,6.0172,0.0,0.0,0.0,0.0,0.0,0.0,0.0,6.1678,0.0,0.0,0.0,0.0,6.2037,0.0,0.0,0.0,0.0,0.0,0.0,0.0,0.0,0.0,0.0,6.2793,6.2793,6.2793,6.2793,6.3166,6.4059,6.4854,6.5625,6.6476,6.7253,6.77,6.77,6.77,6.77,6.77,6.77,6.77,6.77,6.77,6.77,6.77,6.77,6.77,6.77,6.77,6.8134,6.8855,6.8892,6.9332,7.0117,7.094,7.127,7.138,7.2158,7.2452,7.2452,7.2488,7.2488,7.2488,0.0,0.0,0.0,0.0,0.0,0.0,0.0,6.2667,0.0,0.0,0.0,0.0,0.0,0.0,6.2755,0.0,0.0,6.2755,6.2673,6.2749,0.0,0.0,0.0,6.2793,0.0,0.0,0.0,0.0,0.0,6.2793,6.2793,6.2793,6.2793,6.2793,6.2793,6.2749,0.0,0.0,0.0,0.0,0.0,6.0668,6.0787,6.0638,6.06,6.0547,6.0211,6.007,6.0062,6.0014,5.999,5.9918,5.947,5.9625,5.991,5.9461,6.0001,6.0674,6.0407,6.0536,6.0947,6.1891,0.0,0.0,0.0,0.0,0.0,0.0,0.0,0.0,0.0,0.0,0.0,0.0,0.0,0.0,0.0,6.2736,6.2793,6.2793,6.2793,6.3129,6.4029,6.4824,6.5625,6.6439,6.7253,6.77,6.77,6.77,6.77,6.77,6.77,6.77,6.77,6.77,6.77,6.77,6.77,6.7467,6.7054,6.8067,6.8391,6.8328,6.9817,7.0646,7.0947,7.1754,7.2085,7.2121,7.2378,7.2488,7.2488,7.2488,7.2488,7.2488,6.2546,0.0,0.0,0.0,0.0,0.0,0.0,0.0,0.0,0.0,6.2539,0.0,6.2533,0.0,6.2616,0.0,6.2597,6.2635,6.2603,6.2635,0.0,6.2724,6.2679,0.0,0.0,0.0,0.0,0.0,0.0,6.2793,6.2793,6.2749,6.2724,6.2724,6.2673,6.2494,6.2126,6.1668,6.1265,0.0,0.0,5.9795,5.9843,5.9494,5.9682,6.0062,5.9463,5.9239,5.9239,5.9239,5.9239,5.9163,5.8677,5.8858,5.9216,5.9003,5.9598,6.0357,6.0392,6.0579,6.0987,6.1966,6.2029,6.2171,6.3357,0.0,6.2788,0.0,0.0,0.0,0.0,0.0,0.0,0.0,0.0,0.0,0.0,6.2673,6.2743,6.2786,6.2793,6.3129,6.4029,6.4824,6.5625,6.6439,6.7253,6.77,6.77,6.77,6.77,6.77,6.77,6.77,6.77,6.77,6.77,6.7694,6.7454,6.7376,6.7498,6.8215,6.8741,6.9187,7.0666,7.1454,7.1784,7.2305,7.2488,7.2488,7.2488,7.2488,7.2488,7.2488,7.2488,7.2488,0.0,0.0,0.0,0.0,6.24,0.0,0.0,0.0,6.2407,0.0,6.237,6.2413,6.237,6.2413,6.2413,6.237,6.2413,0.0,6.2578,6.2455,0.0,0.0,6.2455,6.242,6.242,0.0,0.0,0.0,0.0,0.0,6.2768,6.2622,6.2552,6.2546,6.2403,6.198,6.1336,6.1199,6.0757,6.0003,5.9171,5.8502,5.7945,5.7909,5.8754,5.9765,5.8404,5.7891,5.7891,5.7891,5.7891,5.79,5.7924,5.7958,5.8094,5.8853,5.9081,5.9417,6.0771,6.0649,6.048,6.1864,6.1745,6.1457,6.2171,0.0,6.2068,0.0,0.0,0.0,0.0,0.0,0.0,0.0,0.0,0.0,0.0,0.0,6.2653,6.2755,6.2823,6.3166,6.3949,6.4781,6.5625,6.6366,6.7217,6.77,6.77,6.77,6.77,6.77,6.77,6.77,6.77,6.77,6.7687,6.7653,6.7011,6.7455,6.8788,6.8211,6.9158,7.1264,7.1301,7.1741,7.2445,7.2416,7.2402,7.2402,7.2402,7.2402,7.2409,7.2467,7.2488,7.2488,6.2258,6.2154,6.206,0.0,6.2195,6.2238,0.0,0.0,0.0,0.0,6.2288,6.2344,6.2245,6.2324,6.2344,6.2245,6.2324,0.0,0.0,0.0,0.0,6.2436,6.2403,6.242,6.242,6.2416,0.0,6.2436,0.0,0.0,6.2481,6.1951,6.1696,6.1696,6.1654,6.1236,6.0501,6.0463,5.969,5.8467,5.8253,5.8343,5.8573,5.8083,5.8423,5.9079,5.8209,5.7891,5.7891,5.7891,5.7891,5.7992,5.8549,5.8718,5.8853,5.9607,6.025,6.066,6.0427,6.0672,6.1208,6.2136,6.2209,6.2435,6.3684,6.3522,6.3042,6.2855,0.0,0.0,0.0,0.0,0.0,0.0,0.0,0.0,0.0,0.0,0.0,6.2515,6.3266,6.3613,6.3166,6.4444,6.5405,6.5588,6.6923,6.77,6.77,6.77,6.77,6.77,6.77,6.77,6.77,6.77,6.7447,6.6968,6.6772,6.6927,6.7379,6.8338,6.9458,7.0597,7.1134,7.1482,7.1625,7.1091,7.0852,7.0852,7.0852,7.0852,7.101,7.2115,7.2488,7.2488,6.2134,0.0,0.0,6.1985,0.0,0.0,6.2121,6.2121,0.0,6.1998,6.188,0.0,6.1684,6.1479,6.1336,6.125,6.1322,0.0,0.0,0.0,0.0,6.1422,6.1365,6.1329,6.1329,6.1393,0.0,6.1429,0.0,0.0,6.1507,6.1098,6.0863,6.0863,6.0796,6.0355,5.9609,5.9304,5.8702,5.7891,5.7891,5.8119,0.0,5.802,5.8323,5.8909,5.8511,5.8161,5.7958,5.8254,5.8389,5.8524,5.9259,5.9462,5.9631,6.0419,6.096,6.1264,6.1129,6.1443,6.1888,6.2298,6.241,6.2635,6.3448,6.3288,6.2959,6.2959,6.2595,6.2276,6.2276,0.0,0.0,0.0,0.0,0.0,0.0,0.0,0.0,0.0,6.358,6.3932,6.3785,6.5005,6.5809,6.5809,6.6996,6.77,6.77,6.77,6.77,6.77,6.77,6.77,6.77,6.7412,6.7075,6.6685,6.6392,6.6634,6.7346,6.8266,6.9275,7.0321,7.0729,7.0929,7.0896,7.0461,7.03,7.03,7.03,7.03,7.0394,7.1235,7.1539,7.1531,0.0,0.0,0.0,0.0,0.0,0.0,0.0,6.1882,0.0,6.1882,0.0,6.0919,6.1001,6.039,5.999,5.999,0.0,6.0046,6.0153,6.007,6.0054,6.0153,6.007,5.999,5.999,6.0125,0.0,0.0,0.0,0.0,6.0355,6.0129,6.0027,6.0019,5.9918,5.9513,5.8866,5.8191,5.7891,5.7891,5.7891,5.7958,5.8026,5.8026,5.849,5.9148,5.9148,5.8718,5.8297,5.8921,5.9148,5.9259,6.0013,6.025,6.0419,6.1197,6.1434,6.1569,6.2221,6.2391,6.2391,6.2391,6.2391,6.2391,6.2391,6.2391,6.2391,6.2391,6.2391,6.2391,6.2391,6.2353,0.0,0.0,0.0,0.0,0.0,0.0,0.0,0.0,0.0,0.0,6.476,6.5817,6.6512,6.6512,6.7253,6.77,6.77,6.77,6.77,6.77,6.77,6.766,6.7586,6.6997,6.6647,6.6569,6.5961,6.6512,6.8028,6.8064,6.8894,7.0291,7.0197,7.0154,7.0146,7.0024,6.9963,6.9937,6.9937,6.9937,6.9937,6.9937,6.9913,6.9983,0.0,0.0,0.0,0.0,0.0,6.1184,6.1163,6.117,6.117,6.117,6.0575,6.0383,6.0949,6.039,5.999,5.999,5.999,0.0,0.0,0.0,0.0,6.003,6.0006,5.999,5.999,6.0022,6.0038,0.0,0.0,0.0,6.0062,5.9412,5.912,5.912,5.9087,5.9002,5.8866,5.8191,5.7891,5.7891,5.7891,5.8254,5.8819,5.8819,5.9268,5.9911,5.9911,5.981,5.9742,5.9877,5.9911,6.0047,6.0858,6.1095,6.1231,6.1985,6.2221,6.2255,6.2357,6.2391,6.2391,6.2391,6.2391,6.2391,6.2391,6.2391,6.2391,6.2391,6.2391,6.2391,6.2391,6.2397,6.2363,0.0,0.0,0.0,0.0,0.0,0.0,0.0,0.0,6.4591,6.3824,6.5421,6.6512,6.6512,6.7253,6.77,6.77,6.77,6.77,6.77,6.77,6.7433,6.6867,6.6751,6.6431,6.5875,6.5758,6.655,6.8063,6.8069,6.8894,7.0266,6.9672,6.9392,6.9328,6.8549,6.8128,6.797,6.797,6.797,6.797,6.797,6.7975,6.8204,0.0,0.0,0.0,0.0,0.0,0.0,0.0,5.9907,6.0034,6.0429,5.9878,5.9535,5.9875,5.9314,5.8918,5.8918,5.8918,5.8918,5.8918,5.8918,5.8918,5.8918,5.8918,0.0,5.8918,5.8918,5.8918,5.8918,0.0,0.0,0.0,5.8546,5.8379,5.8379,5.8379,5.8379,5.8352,5.8054,5.8127,5.8457,5.8457,5.893,5.9564,5.9564,6.0047,6.0723,6.0723,6.096,6.124,6.0858,6.0723,6.0858,6.1646,6.1873,6.1941,6.2289,6.2391,6.2391,6.2391,6.2391,6.2391,6.2391,6.2391,6.2391,6.2391,6.2391,6.2391,6.2391,6.2391,6.2391,6.2391,6.2391,6.2391,6.2391,0.0,0.0,0.0,0.0,0.0,0.0,0.0,0.0,0.0,6.5676,6.631,6.6329,6.717,6.77,6.77,6.77,6.77,6.77,6.7371,6.7032,6.6699,6.5984,6.5636,6.5698,6.5761,6.6415,6.7537,6.792,6.8476,6.9135,6.8778,6.8584,6.843,6.7855,6.7648,6.7638,6.7526,6.7482,6.7499,6.7499,6.7507,6.762,0.0,6.1133,0.0,0.0,6.0658,6.0168,5.9061,5.8789,5.8952,5.9676,5.9146,5.8746,5.8866,5.8281,5.7891,5.7891,5.7891,5.7891,5.7891,5.7891,5.7891,5.7891,5.7891,5.7891,5.7891,5.7891,5.7891,0.0,0.0,0.0,5.7891,5.7891,5.7891,5.79,5.806,5.8127,5.8127,5.8297,5.8693,5.9216,5.9216,5.9665,6.0351,6.0351,6.0858,6.1535,6.1535,6.1917,6.2323,6.1738,6.1535,6.1637,6.2221,6.2391,6.2391,6.2391,6.2391,6.2391,6.2391,6.2391,6.2391,6.2391,6.2391,6.2391,6.2391,6.2391,6.2391,6.2391,6.2391,6.2391,6.2391,6.2391,6.2391,6.2391,0.0,0.0,0.0,0.0,0.0,0.0,0.0,0.0,6.527,6.5823,6.6108,6.6137,6.7067,6.7613,6.7481,6.7633,6.7549,6.7258,6.6881,6.6567,6.6253,6.5316,6.5146,6.5739,6.6006,6.6506,6.7265,6.7842,6.8083,6.8083,6.8083,6.7979,6.7719,6.7557,6.7526,6.7577,6.7499,6.74,6.7373,6.741,6.7398,6.7362,0.0,0.0,0.0,0.0,0.0,5.9036,5.89,5.8379,5.8244,5.8926,5.8405,5.8235,5.8841,5.8281,5.7891,5.7891,5.7891,5.7891,5.7891,5.7891,5.7891,5.7891,5.7891,5.7891,5.7891,5.7891,5.7891,0.0,0.0,5.7891,5.7891,5.7891,5.7891,5.7924,5.8592,5.8887,5.8955,5.9607,5.9945,6.0013,6.0013,6.0486,6.1197,6.1197,6.1637,6.2289,6.2289,6.2357,6.2391,6.2323,6.2289,6.2323,6.2391,6.2391,6.2391,6.2391,6.2391,6.2391,6.2391,6.2391,6.2391,6.2391,6.2391,6.2391,6.2391,6.2391,6.2391,6.2391,6.2391,6.2391,6.2391,6.2391,6.2391,6.2391,6.2391,0.0,0.0,0.0,0.0,0.0,0.0,0.0,6.3734,6.5161,6.6043,6.593,6.691,6.7294,6.6802,6.7378,6.7139,6.5826,6.6381,6.6092,6.4822,6.5328,6.5676,6.5896,6.658,6.7265,6.8014,6.8059,6.8083,6.8083,6.8083,6.7889,6.754,6.7496,6.725,6.6917,6.7149,6.7097,6.6873,6.7154,6.7058,6.6873,5.9958,5.9652,5.9356,5.9356,5.9113,5.8772,5.8352,5.8454,5.8668,5.89,5.8343,5.8009,5.8289,5.8047,5.8094,5.8515,5.8161,5.8094,5.8524,5.8161,5.7891,5.7891,5.7891,5.7891,5.7891,5.7891,5.7891,0.0,0.0,0.0,5.8558,5.8558,5.8795,5.9235,5.9539,5.9665,5.9665,5.9979,6.0385,6.0825,6.0825,6.1264,6.1951,6.1951,6.2154,6.2391,6.2391,6.2391,6.2391,6.2391,6.2391,6.2391,6.2391,6.2391,6.2391,6.2391,6.2391,6.2391,6.2391,6.2391,6.2391,6.2391,6.2391,6.2391,6.2391,6.2391,6.2391,6.2391,6.2391,6.2391,6.2391,6.2391,6.2391,6.2391,6.2391,0.0,0.0,0.0,0.0,0.0,0.0,0.0,0.0,6.4147,6.4922,6.5835,6.6794,6.7104,6.653,6.6656,6.633,6.5453,6.5202,6.5033,6.4899,6.4786,6.529,6.6391,6.6666,6.7276,6.8083,6.8083,6.8014,6.7929,6.7789,6.7648,6.7499,6.7188,6.7053,6.7045,6.6993,6.6876,6.6789,6.691,6.6896,6.6802,5.9314,5.8952,5.8659,5.889,5.8924,5.8851,5.8582,5.8998,5.9327,5.9327,5.8863,5.8533,5.8533,5.8533,5.8761,5.9293,5.8863,5.877,5.9293,5.8829,5.8533,5.8533,5.8533,0.0,5.8533,5.8533,5.8533,5.8533,5.8533,0.0,5.9327,5.9327,5.9597,6.0114,6.0351,6.0452,6.0452,6.0689,6.1095,6.1637,6.1637,6.1941,6.2391,6.2391,6.2391,6.2391,6.2391,6.2526,6.2719,6.2719,6.2864,6.2966,6.2526,6.2391,6.2424,6.2651,6.2719,6.2753,6.3,6.3033,6.3,6.2787,6.2719,6.2661,6.2458,6.2391,6.2391,6.2391,6.2391,6.2391,6.2391,6.2391,6.2391,6.2391,6.2391,6.2391,0.0,6.2391,0.0,0.0,6.2391,6.2581,6.3121,6.3383,6.3961,6.5097,6.5976,6.6313,6.6018,6.5857,6.5402,6.4642,6.4437,6.4463,6.4796,6.4765,6.5412,6.6711,6.6847,6.7304,6.7994,6.7959,6.7849,6.7699,6.7547,6.7479,6.7397,6.7053,6.698,6.7077,6.6954,6.6868,6.6827,6.6898,6.6855,6.6802,5.8038,5.7918,5.8137,5.8863,5.8998,5.9235,5.9945,6.008,6.008,6.008,6.008,6.008,6.008,6.008,6.008,6.008,6.008,6.008,6.008,6.008,6.008,6.008,6.008,6.008,6.008,6.008,6.008,6.008,0.0,6.008,6.008,6.008,6.008,6.0148,6.0926,6.1298,6.1332,6.2042,6.2391,6.2391,6.2391,6.2391,6.2391,6.2391,6.2391,6.2391,6.2391,6.2854,6.3487,6.3487,6.3961,6.4309,6.2864,6.2391,6.2526,6.3284,6.3487,6.3656,6.4377,6.458,6.441,6.3656,6.3487,6.3284,6.256,6.2391,6.2391,6.2391,6.2391,6.2391,6.2391,6.2391,6.2391,6.2391,6.2391,6.2391,0.0,6.2391,0.0,6.2391,6.2391,6.24,6.24,6.3055,6.3521,6.3549,6.42,6.4789,6.5089,6.5043,6.4392,6.3061,6.4387,6.4768,6.4118,6.5542,6.6414,6.6701,6.7245,6.7597,6.7799,6.7587,6.752,6.7486,6.752,6.7397,6.7201,6.7219,6.7029,6.6846,6.7079,6.7034,6.6829,6.709,6.7025,6.6802,5.9358,5.9404,5.9471,5.9708,5.9733,5.9844,6.0047,6.0554,6.0926,6.0926,6.1366,6.168,6.168,6.0723,6.0317,6.0858,6.0419,6.0317,6.0892,6.0419,6.0114,6.0114,6.0114,6.0114,6.0114,6.0114,6.0114,6.0114,6.0114,6.0385,6.0926,6.1434,6.168,6.168,6.1951,6.2052,6.2086,6.2289,6.2391,6.2391,6.2391,6.2685,6.3149,6.3149,6.3463,6.3903,6.3903,6.4038,6.4231,6.4231,6.441,6.4512,6.4038,6.3903,6.3937,6.4164,6.4231,6.4299,6.4546,6.4613,6.4546,6.4309,6.4231,6.4208,6.3937,6.3903,6.3903,6.3903,6.3497,6.3149,6.3149,6.2753,6.2391,6.2391,6.2391,6.2391,6.2391,0.0,6.2391,6.2391,6.2391,6.2391,6.2391,6.2625,6.2975,6.3475,6.3262,6.3422,6.4165,6.4042,6.3841,6.3533,6.385,6.4385,6.5189,6.5675,6.6296,6.7056,6.7223,6.7407,6.7587,6.7516,6.7438,6.7294,6.7294,6.716,6.6951,6.6938,6.6886,6.6802,6.6891,6.6891,6.6823,6.6904,6.6865,6.6802,6.0013,6.0114,6.0216,6.0486,6.0554,6.0655,6.0926,6.14,6.1704,6.1704,6.212,6.2391,6.2391,6.1545,6.1163,6.167,6.1264,6.1173,6.167,6.1231,6.096,6.096,6.096,6.096,6.096,6.096,6.096,6.096,6.096,6.1231,6.1704,6.2188,6.2391,6.2391,6.2391,6.2391,6.2391,6.2391,6.256,6.2821,6.2821,6.325,6.3927,6.3927,6.4197,6.4613,6.4613,6.4783,6.5019,6.5019,6.5189,6.5415,6.5415,6.5415,6.5358,6.5087,6.5019,6.5053,6.5358,6.5415,6.5347,6.5087,6.5019,6.4952,6.4647,6.4613,6.4613,6.4613,6.4231,6.3927,6.3927,6.3531,6.3236,6.3236,6.299,6.2821,6.2821,6.256,6.2391,0.0,6.2391,6.2391,6.2391,6.2651,6.3003,6.3471,6.3319,6.3479,6.4082,6.3722,6.3679,6.4079,6.4244,6.4783,6.5672,6.5977,6.6487,6.7191,6.7191,6.7212,6.7229,6.7229,6.7191,6.7056,6.7056,6.6938,6.6802,6.6802,6.6802,6.6802,6.6802,6.6802,6.6802,6.6802,6.6802,6.6802,6.025,6.025,6.0486,6.1264,6.1366,6.1603,6.2289,6.2391,6.2391,6.2391,6.2391,6.2391,6.2391,6.2391,6.2391,6.2391,6.2391,6.2391,6.2391,6.2391,6.2391,6.2391,6.2391,6.2391,6.2391,6.2391,6.2391,6.2391,6.2391,6.2391,6.2391,6.2391,6.2391,6.2391,6.2458,6.2492,6.2492,6.2526,6.2956,6.3589,6.3589,6.4028,6.4681,6.4681,6.4715,6.4749,6.4749,6.5189,6.5774,6.5774,6.6237,6.6802,6.6802,6.6802,6.6667,6.5977,6.5774,6.5943,6.6599,6.6802,6.6633,6.5943,6.5774,6.5605,6.4918,6.4749,6.4749,6.4749,6.4715,6.4681,6.4681,6.4647,6.4613,6.4613,6.4028,6.3589,6.3589,6.299,6.256,6.256,6.256,6.256,6.256,6.3183,6.3589,6.3589,6.4197,6.4613,6.4681,6.4028,6.3961,6.4647,6.5334,6.5706,6.5774,6.6474,6.6951,6.716,6.716,6.7045,6.6802,6.6802,6.6802,6.6802,6.6802,6.6802,6.6802,6.6802,6.6802,6.6802,6.6802,6.6802,6.6802,6.6802,6.6802,6.6802,6.1748,6.1849,6.1917,6.212,6.2154,6.2188,6.2357,6.2391,6.2391,6.2391,6.2391,6.2391,6.2391,6.2391,6.2391,6.2391,6.2391,6.2391,6.2391,6.2391,6.2391,6.2391,6.2391,6.2391,6.2391,6.2391,6.2391,6.2391,6.2391,6.2391,6.2391,6.2391,6.2391,6.2424,6.299,6.325,6.3284,6.3835,6.4174,6.4333,6.4333,6.4783,6.5436,6.5436,6.5797,6.6294,6.6294,6.6396,6.6531,6.6531,6.6667,6.6802,6.6802,6.6802,6.6768,6.6599,6.6531,6.6565,6.6768,6.6802,6.6768,6.6565,6.6531,6.6497,6.6328,6.6294,6.6294,6.6294,6.5831,6.5436,6.5436,6.4986,6.4613,6.4613,6.4444,6.4333,6.4333,6.4174,6.4072,6.4072,6.4072,6.4072,6.4072,6.4241,6.4333,6.4333,6.4512,6.485,6.5402,6.5266,6.5266,6.5436,6.5605,6.5977,6.6531,6.67,6.6823,6.6886,6.6886,6.6854,6.6802,6.6802,6.6802,6.6802,6.6802,6.6802,6.6802,6.6802,6.6802,6.6802,6.6802,6.6802,6.6802,6.6802,6.6802,6.6802,6.2323,6.2391,6.2391,6.2391,6.2391,6.2391,6.2391,6.2695,6.2888,6.2888,6.3193,6.3406,6.3406,6.3406,6.3406,6.3406,6.2797,6.2391,6.2391,6.2391,6.2391,6.2391,6.2391,6.2391,6.2391,6.2391,6.256,6.2888,6.3236,6.3406,6.3406,6.3406,6.3406,6.3429,6.3825,6.3994,6.4028,6.4444,6.4783,6.5097,6.5097,6.5527,6.6203,6.6203,6.643,6.6802,6.6802,6.6802,6.6802,6.6802,6.6802,6.6802,6.6802,6.6802,6.6802,6.6802,6.6802,6.6802,6.6802,6.6802,6.6802,6.6802,6.6802,6.6802,6.6802,6.6802,6.6802,6.6802,6.6464,6.6203,6.6203,6.5865,6.5628,6.5628,6.5324,6.5097,6.5097,6.4816,6.4613,6.4613,6.4613,6.4613,6.4613,6.4884,6.5097,6.5097,6.5425,6.5797,6.617,6.6203,6.6203,6.6203,6.6203,6.6406,6.6802,6.6802,6.6802,6.6802,6.6802,6.6802,6.6802,6.6802,6.6802,6.6802,6.6802,6.6802,6.6802,6.6802,6.6802,6.6802,6.6802,6.6802,6.6802,6.6802,6.6802,6.6802,6.256,6.2661,6.2729,6.2729,6.2729,6.2729,6.2729,6.326,6.3656,6.3656,6.4197,6.4613,6.4613,6.4613,6.4613,6.4613,6.3439,6.2729,6.2729,6.2729,6.2729,6.2729,6.2729,6.2729,6.2729,6.2729,6.3024,6.3656,6.4299,6.4613,6.4613,6.4613,6.4613,6.4613,6.4715,6.4783,6.4783,6.4884,6.529,6.5876,6.5876,6.6237,6.6802,6.6802,6.6802,6.6802,6.6802,6.6802,6.6802,6.6802,6.6802,6.6802,6.6802,6.6802,6.6802,6.6802,6.6802,6.6802,6.6802,6.6802,6.6802,6.6802,6.6802,6.6802,6.6802,6.6802,6.6802,6.6802,6.6802,6.6802,6.6802,6.6802,6.6802,6.6802,6.6271,6.5876,6.5876,6.5324,6.4942,6.4942,6.4942,6.4942,6.4942,6.5493,6.5876,6.5876,6.644,6.6802,6.6802,6.6802,6.6802,6.6802,6.6802,6.6802,6.6802,6.6802,6.6802,6.6802,6.6802,6.6802,6.6802,6.6802,6.6802,6.6802,6.6802,6.6802,6.6802,6.6802,6.6802,6.6802,6.6802,6.6802,6.6802,6.6802,6.6802,6.6802,6.3318,6.3825,6.4275,6.4275,6.4275,6.4275,6.4275,6.4377,6.4444,6.4444,6.4546,6.4613,6.4613,6.4613,6.4613,6.4613,6.4377,6.4275,6.4275,6.4275,6.4275,6.4275,6.4275,6.4275,6.4275,6.4275,6.4309,6.4444,6.4546,6.4613,6.4613,6.4613,6.4613,6.4613,6.5266,6.5537,6.5571,6.6193,6.6531,6.6633,6.6633,6.67,6.6802,6.6802,6.6802,6.6802,6.6802,6.6802,6.6802,6.6802,6.6802,6.6802,6.6802,6.6802,6.6802,6.6802,6.6802,6.6802,6.6802,6.6802,6.6802,6.6802,6.6802,6.6802,6.6802,6.6802,6.6802,6.6802,6.6802,6.6802,6.6802,6.6802,6.6802,6.6802,6.67,6.6633,6.6633,6.6531,6.6464,6.6464,6.6464,6.6464,6.6464,6.6565,6.6633,6.6633,6.6734,6.6802,6.6802,6.6802,6.6802,6.6802,6.6802,6.6802,6.6802,6.6802,6.6802,6.6802,6.6802,6.6802,6.6802,6.6802,6.6802,6.6802,6.6802,6.6802,6.6802,6.6802,6.6802,6.6802,6.6802,6.6802,6.6802,6.6802,6.6802,6.6802,6.4096,6.4377,6.4613,6.4613,6.4613,6.4613,6.4613,6.4928,6.5199,6.5199,6.5527,6.5787,6.5787,6.5787,6.5787,6.5787,6.5787,6.5787,6.5787,6.5053,6.4613,6.4613,6.4613,6.4613,6.4613,6.4996,6.5199,6.5199,6.5595,6.5787,6.5787,6.5787,6.5787,6.5787,6.6136,6.6305,6.6305,6.6667,6.6802,6.6802,6.6802,6.6802,6.6802,6.6802,6.6802,6.6802,6.6802,6.6802,6.6802,6.6802,6.6802,6.6802,6.6802,6.6802,6.6802,6.6802,6.6802,6.6802,6.6802,6.6802,6.6802,6.6802,6.6802,6.6802,6.6802,6.6802,6.6802,6.6802,6.6802,6.6802,6.6802,6.6802,6.6802,6.6802,6.6802,6.6802,6.6802,6.6802,6.6802,6.6802,6.6802,6.6802,6.6802,6.6802,6.6802,6.6802,6.6802,6.6802,6.6802,6.6802,6.6802,6.6802,6.6802,6.6802,6.6802,6.6802,6.6802,6.6802,6.6802,6.6802,6.6802,6.6802,6.6802,6.6802,6.6802,6.6802,6.6802,6.6802,6.6802,6.6802,6.6802,6.6802,6.6802,6.6802,6.6802,6.6802,6.485,6.4986,6.5121,6.5121,6.5121,6.5121,6.5121,6.5595,6.5977,6.5977,6.643,6.6802,6.6802,6.6802,6.6802,6.6802,6.6802,6.6802,6.6802,6.5719,6.5121,6.5121,6.5121,6.5121,6.5121,6.5672,6.5977,6.5977,6.6531,6.6802,6.6802,6.6802,6.6802,6.6802,6.6802,6.6802,6.6802,6.6802,6.6802,6.6802,6.6802,6.6802,6.6802,6.6802,6.6802,6.6802,6.6802,6.6802,6.6802,6.6802,6.6802,6.6802,6.6802,6.6802,6.6802,6.6802,6.6802,6.6802,6.6802,6.6802,6.6802,6.6802,6.6802,6.6802,6.6802,6.6802,6.6802,6.6802,6.6802,6.6802,6.6802,6.6802,6.6802,6.6802,6.6802,6.6802,6.6802,6.6802,6.6802,6.6802,6.6802,6.6802,6.6802,6.6802,6.6802,6.6802,6.6802,6.6802,6.6802,6.6802,6.6802,6.6802,6.6802,6.6802,6.6802,6.6802,6.6802,6.6802,6.6802,6.6802,6.6802,6.6802,6.6802,6.6802,6.6802,6.6802,6.6802,6.6802,6.6802,6.6802,6.6802,6.6802,6.6802,6.6802,6.6802,6.6802,6.5605,6.617,6.6633,6.6633,6.6633,6.6633,6.6633,6.6667,6.6734,6.6734,6.6768,6.6802,6.6802,6.6802,6.6802,6.6802,6.6802,6.6802,6.6802,6.67,6.6633,6.6633,6.6633,6.6633,6.6633,6.67,6.6734,6.6734,6.6768,6.6802,6.6802,6.6802,6.6802,6.6802,6.6802,6.6802,6.6802,6.6802,6.6802,6.6802,6.6802,6.6802,6.6802,6.6802,6.6802,6.6802,6.6802,6.6802,6.6802,6.6802,6.6802,6.6802,6.6802,6.6802,6.6802,6.6802,6.6802,6.6802,6.6802,6.6802,6.6802,6.6802,6.6802,6.6802,6.6802,6.6802,6.6802,6.6802,6.6802,6.6802,6.6802,6.6802,6.6802,6.6802,6.6802,6.6802,6.6802,6.6802,6.6802,6.6802,6.6802,6.6802,6.6802,6.6802,6.6802,6.6802,6.6802,6.6802,6.6802,6.6802,6.6802,6.6802,6.6802,6.6802,6.6802,6.6802,6.6802,6.6802,6.6802,6.6802,6.6802,6.6802,6.6802,6.6802,6.6802,6.6802,6.6802,6.6802,6.6802,6.6802,6.6802,6.6802,6.6802,6.6802,6.6802,6.6802,6.6373,6.6599,6.6802,6.6802,6.6802,6.6802,6.6802,6.6802,6.6802,6.6802,6.6802,6.6802,6.6802,6.6802,6.6802,6.6802,6.6802,6.6802,6.6802,6.6802,6.6802,6.6802,6.6802,6.6802,6.6802,6.6802,6.6802,6.6802,6.6802,6.6802,6.6802,6.6802,6.6802,6.6802,6.6802,6.6802,6.6802,6.6802,6.6802,6.6802,6.6802,6.6802,6.6802,6.6802,6.6802,6.6802,6.6802,6.6802,6.6802,6.6802,6.6802,6.6802,6.6802,6.6802,6.6802,6.6802,6.6802,6.6802,6.6802,6.6802,6.6802,6.6802,6.6802,6.6802,6.6802,6.6802,6.6802,6.6802,6.6802,6.6802,6.6802,6.6802,6.6802,6.6802,6.6802,6.6802,6.6802,6.6802,6.6802,6.6802,6.6802,6.6802,6.6802,6.6802,6.6802,6.6802,6.6802,6.6802,6.6802,6.6802,6.6802,6.6802,6.6802,6.6802,6.6802,6.6802,6.6802,6.6802,6.6802,6.6802,6.6802,6.6802,6.6802,6.6802,6.6802,6.6802,6.6802,6.6802,6.6802,6.6802,6.6802,6.6802,6.6802,6.6802,6.6802,6.6802,6.6802,6.6802,6.6802,6.6802,6.6802,6.6802,6.6802,6.6802,6.6802,6.6802,6.6802,6.6802,6.6802,6.6802,6.6802,6.6802,6.6802,6.6802,6.6802,6.6802,6.6802,6.6802,6.6802,6.6802,6.6802,6.6802,6.6802,6.6802,6.6802,6.6802,6.6802,6.6802,6.6802,6.6802,6.6802,6.6802,6.6802,6.6802,6.6802,6.6836,6.7039,6.714,6.7174,6.7444,6.7512,6.7512,6.7512,6.7512,6.7512,6.7512,6.7512,6.7512,6.7512,6.7512,6.7512,6.7512,6.7512,6.7512,6.7512,6.7512,6.7411,6.6937,6.6802,6.6802,6.6802,6.6802,6.6802,6.6802,6.6802,6.6802,6.6802,6.6802,6.6802,6.6802,6.6802,6.6802,6.6802,6.6802,6.6802,6.6802,6.6802,6.6802,6.6802,6.6802,6.6802,6.6802,6.6802,6.6802,6.6802,6.6802,6.6802,6.6802,6.6802,6.6802,6.6802,6.6802,6.6802,6.6802,6.6802,6.6802,6.6802,6.6802,6.6802,6.6802,6.6802,6.6802,6.6802,6.6802,6.6802,6.6802,6.6802,6.6802,6.6802,6.6802,6.6802,6.6802,6.6802,6.6802,6.6802,6.6802,6.6802,6.6802,6.6802,6.6802,6.6802,6.6802,6.6802,6.6802,6.6802,6.6802,6.6802,6.6802,6.6802,6.6802,6.6802,6.6802,6.6802,6.6802,6.6802,6.6802,6.6802,6.6802,6.6802,6.6802,6.6802,6.6802,6.6802,6.6802,6.6802,6.6802,6.6802,6.6791,6.6836,6.6836,6.6836,6.6859,6.7624,6.7895,6.7996,6.8808,6.9113,6.9113,6.9113,6.9113,6.9113,6.9113,6.9113,6.9113,6.9113,6.9113,6.9113,6.9113,6.9113,6.9113,6.9113,6.9113,6.8741,6.7208,6.6836,6.6836,6.6836,6.6836,6.6836,6.6836,6.6836,6.6836,6.6791,6.6802,6.6802,6.6802,6.6802,6.6802,6.6802,6.6802,6.6802,6.6802,6.6802,6.6802,6.6802,6.6802,6.6802,6.6802,6.6802,6.6802,6.6802,6.6791,6.6836,6.6836,6.6836,6.6836,6.6836,6.6802,6.6802,6.6802,6.6802,6.6802,6.6802,6.6802,6.6802,6.6802,6.6802,6.6802,6.6802,6.6802,6.6802,6.6802,6.6802,6.6802,6.6802,6.6802,6.6802,6.6802,6.6802,6.6802,6.6802,6.6802,6.6802,6.6802,6.6802,6.6802,6.6802,6.6802,6.6802,6.6802,6.6802,6.6802,6.6802,6.6802,6.6802,6.6802,6.6802,6.6802,6.6802,6.6802,6.6802,6.6802,6.6802,6.6802,6.6802,6.6802,6.6802,6.6802,6.6802,6.6802,6.7072,6.7557,6.7557,6.7895,6.8392,6.8392,6.8392,6.8436,6.8639,6.8741,6.8774,6.9011,6.9113,6.9113,6.9113,6.9113,6.9113,6.9113,6.9113,6.9113,6.9113,6.9113,6.9113,6.9113,6.9113,6.9113,6.9113,6.9113,6.8977,6.8527,6.8392,6.8392,6.8392,6.8392,6.8392,6.8392,6.8392,6.8233,6.7692,6.7557,6.7411,6.6859,6.6802,6.6802,6.6802,6.6802,6.6802,6.6802,6.6802,6.6802,6.6802,6.6802,6.6802,6.6802,6.7275,6.7557,6.7557,6.8098,6.8392,6.8392,6.8392,6.8412,6.8417,6.7328,6.6802,6.6802,6.6802,6.6802,6.6802,6.6802,6.6802,6.6802,6.6802,6.6802,6.6802,6.6802,6.6802,6.6802,6.6802,6.6802,6.6802,6.6802,6.6802,6.6802,6.6802,6.6802,6.6802,6.6802,6.6802,6.6802,6.6802,6.6802,6.6802,6.6802,6.6802,6.6802,6.6802,6.6802,6.6903,6.7208,6.7512,6.7715,6.7715,6.7715,6.7715,6.7715,6.7715,6.7546,6.7242,6.7546,6.7715,6.7715,6.7715,6.7715,6.7715,6.7715,6.7963,6.8368,6.8368,6.8639,6.9113,6.9113,6.9113,6.9113,6.9417,6.9553,6.9553,6.9857,6.9981,6.9981,6.9981,6.9981,6.9981,6.9981,6.9981,6.9981,6.9981,6.9981,6.9981,6.9981,6.9981,6.9981,6.9981,6.9981,6.9981,6.9981,6.9542,6.9113,6.9113,6.9113,6.9113,6.9113,6.9089,6.8963,6.8454,6.836,6.822,6.7768,6.77,6.7703,6.7709,6.7716,6.7703,6.7709,6.7716,6.77,6.77,6.7718,6.7711,6.7726,6.8132,6.8368,6.8368,6.8842,6.9113,6.9113,6.9113,6.911,6.9092,6.8182,6.7707,6.77,6.77,6.77,6.77,6.77,6.77,6.77,6.7379,6.7246,6.7201,6.6924,6.6802,6.6802,6.6802,6.6802,6.6802,6.6802,6.6802,6.6802,6.6802,6.6802,6.6802,6.6802,6.6802,6.6802,6.6802,6.6802,6.6836,6.6903,6.6903,6.6937,6.7005,6.7005,6.7275,6.7963,6.8673,6.9113,6.9113,6.9113,6.9113,6.9113,6.9147,6.8842,6.8132,6.8774,6.9113,6.9113,6.9113,6.9113,6.9113,6.9113,6.9147,6.9214,6.9214,6.9248,6.9316,6.9316,6.9316,6.935,7.0026,7.0308,7.0375,7.103,7.13,7.13,7.13,7.13,7.13,7.13,7.13,7.13,7.13,7.13,7.13,7.13,7.13,7.13,7.13,7.13,7.13,7.13,7.0286,6.9316,6.9316,6.9316,6.9316,6.9316,6.9289,6.9263,6.9218,6.922,6.9188,6.9107,6.9107,6.9101,6.9103,6.9116,6.9101,6.9092,6.9114,6.9092,6.9092,6.912,6.9098,6.9103,6.9159,6.9214,6.9214,6.9248,6.9316,6.9316,6.9316,6.9313,6.9308,6.9308,6.9222,6.9092,6.9092,6.9094,6.9099,6.9099,6.9099,6.9054,6.833,6.8016,6.7967,6.7201,6.6891,6.6891,6.6836,6.6802,6.6802,6.6802,6.6802,6.6802,6.6802,6.6802,6.6802,6.6802,6.6802,6.6802,6.6802,6.6802,6.7005,6.759,6.7658,6.7895,6.8527,6.8594,6.8673,6.8842,6.9011,6.9113,6.9113,6.9113,6.9113,6.9113,6.9654,6.9868,6.9699,6.9316,6.9113,6.9113,6.9113,6.9113,6.9113,6.9113,6.9417,6.9969,6.9969,7.0263,7.0827,7.0827,7.0827,7.0827,7.0996,7.1064,7.1064,7.1233,7.13,7.13,7.13,7.13,7.13,7.13,7.13,7.13,7.13,7.13,7.13,7.13,7.13,7.13,7.13,7.13,7.13,7.13,7.1064,7.0827,7.0827,7.0827,7.0827,7.0827,7.0815,7.0658,7.0074,6.9961,6.9768,6.921,6.9097,6.9109,6.9099,6.9098,6.9109,6.9099,6.9084,6.9092,6.9092,6.9091,6.911,6.911,6.9624,6.9969,6.9969,7.05,7.0827,7.0827,7.0827,7.0804,7.0804,7.0804,7.0235,6.9092,6.9092,6.909,6.9087,6.9087,6.9087,6.9087,6.8908,6.8822,6.878,6.7978,6.7656,6.7601,6.7024,6.6802,6.6802,6.6802,6.6802,6.6802,6.7242,6.7309,6.7444,6.7817,6.7884,6.7884,6.7884,6.7884,6.8053,6.8436,6.847,6.8639,6.9045,6.9113,6.9248,6.9586,6.9958,7.015,7.015,7.015,7.015,7.015,7.0534,7.0737,7.0737,7.0353,7.015,7.015,7.015,7.015,7.015,7.015,7.0364,7.0737,7.0737,7.0939,7.13,7.13,7.13,7.13,7.13,7.13,7.13,7.13,7.13,7.13,7.13,7.13,7.13,7.13,7.13,7.13,7.13,7.13,7.13,7.13,7.13,7.13,7.13,7.13,7.13,7.13,7.13,7.13,7.13,7.13,7.13,7.13,7.13,7.1165,7.0794,7.0715,7.0614,7.0207,7.015,7.015,7.015,7.015,7.015,7.015,7.0157,7.0141,7.0141,7.0163,7.0164,7.0164,7.0524,7.0737,7.0737,7.1097,7.13,7.13,7.13,7.13,7.13,7.13,7.0927,7.0141,7.0141,7.0137,7.0164,7.0164,7.0164,7.012,6.976,6.9613,6.9559,6.8788,6.8255,6.7878,6.7478,6.7112,6.6802,6.6802,6.6802,6.6802,6.7996,6.8098,6.8335,6.8977,6.9113,6.9113,6.9113,6.9113,6.9147,6.9282,6.9282,6.935,6.9451,6.9485,6.9722,7.0342,7.0962,7.13,7.13,7.13,7.13,7.13,7.13,7.13,7.13,7.13,7.13,7.13,7.13,7.13,7.13,7.13,7.13,7.13,7.13,7.13,7.13,7.13,7.13,7.13,7.13,7.13,7.13,7.13,7.13,7.13,7.13,7.13,7.13,7.13,7.13,7.13,7.13,7.13,7.13,7.13,7.13,7.13,7.13,7.13,7.13,7.13,7.13,7.13,7.13,7.13,7.13,7.13,7.13,7.13,7.13,7.13,7.13,7.13,7.13,7.13,7.13,7.13,7.13,7.13,7.13,7.13,7.13,7.13,7.13,7.13,7.13,7.13,7.13,7.13,7.13,7.13,7.13,7.13,7.13,7.13,7.13,7.13,7.13,7.13,7.13,7.13,7.13,7.1255,7.0659,7.0389,7.0344,6.9581,6.8895,6.8269,6.7993,6.7523,6.6979,6.6846,6.6802,6.6802,6.891,6.8944,6.8977,6.9079,6.9113,6.9113,6.9113,6.9113,6.9316,6.9969,7.0037,7.0297,7.0928,7.0996,7.103,7.1131,7.1233,7.13,7.13,7.13,7.13,7.13,7.13,7.13,7.13,7.13,7.13,7.13,7.13,7.13,7.13,7.13,7.13,7.13,7.13,7.13,7.13,7.13,7.13,7.13,7.13,7.13,7.13,7.13,7.13,7.13,7.13,7.13,7.13,7.13,7.13,7.13,7.13,7.13,7.13,7.13,7.13,7.13,7.13,7.13,7.13,7.13,7.13,7.13,7.13,7.13,7.13,7.13,7.13,7.13,7.13,7.13,7.13,7.13,7.13,7.13,7.13,7.13,7.13,7.13,7.13,7.13,7.13,7.13,7.13,7.13,7.13,7.13,7.13,7.13,7.13,7.13,7.13,7.13,7.13,7.13,7.13,7.13,7.13,7.13,7.13,7.13,7.13,7.1289,7.1199,7.1154,7.1075,7.0355,6.9985,6.977,6.844,6.7834,6.7656,6.7024,6.6802,6.6802,6.962,6.9722,6.9823,7.0252,7.0319,7.0319,7.0319,7.0319,7.0455,7.077,7.0804,7.0939,7.1267,7.13,7.13,7.13,7.13,7.13,7.13,7.13,7.13,7.13,7.13,7.13,7.13,7.13,7.13,7.13,7.13,7.13,7.13,7.13,7.13,7.13,7.13,7.13,7.13,7.13,7.13,7.13,7.13,7.13,7.13,7.13,7.13,7.13,7.13,7.13,7.13,7.13,7.13,7.13,7.13,7.13,7.13,7.13,7.13,7.13,7.13,7.13,7.13,7.13,7.13,7.13,7.13,7.13,7.13,7.13,7.13,7.13,7.13,7.13,7.13,7.13,7.13,7.13,7.13,7.13,7.13,7.13,7.13,7.13,7.13,7.13,7.13,7.13,7.13,7.13,7.13,7.13,7.13,7.13,7.13,7.13,7.13,7.13,7.13,7.13,7.13,7.13,7.13,7.13,7.13,7.13,7.13,7.13,7.1255,7.094,7.0569,7.0075,6.8995,6.8056,6.7246,6.6924,6.6802,6.6802]},{"header":{"parameterUnit":"m.s-1","parameterCategory":1,"la1":30.6,"la2":28.766,"lo1":-90.7593,"lo2":-88.6598,"dy":0.0162,"dx":0.0183,"nx":116,"ny":114,"refTime":"2023-11-22T06:00:00:Z","depth":0,"parameterNumber":3,"parameterNumberName":"V-component_of_WINDS"},"data":[0.0,0.0,0.0,0.0,0.0,0.0,0.0,0.0,0.0,0.0,0.0,0.0,0.0,0.0,0.0,0.0,0.0,0.0,0.0,0.0,0.0,0.0,0.0,0.0,0.0,0.0,0.0,0.0,0.0,0.0,0.0,0.0,0.0,0.0,0.0,0.0,0.0,0.0,0.0,0.0,0.0,0.0,0.0,0.0,0.0,0.0,0.0,0.0,0.0,0.0,0.0,0.0,0.0,0.0,0.0,0.0,0.0,0.0,0.0,0.0,0.0,0.0,0.0,0.0,0.0,0.0,0.0,0.0,0.0,0.0,0.0,0.0,0.0,0.0,0.0,0.0,0.0,0.0,0.0,0.0,0.0,0.0,0.0,0.0,0.0,0.0,0.0,0.0,0.0,0.0,0.0,0.0,0.0,0.0,0.0,0.0,0.0,0.0,0.0,0.0,0.0,0.0,0.0,0.0,0.0,0.0,0.0,0.0,0.0,0.0,0.0,0.0,0.0,0.0,0.0,0.0,0.0,0.0,0.0,0.0,0.0,0.0,0.0,0.0,0.0,0.0,0.0,0.0,0.0,0.0,0.0,0.0,0.0,0.0,0.0,0.0,0.0,0.0,0.0,0.0,0.0,0.0,0.0,0.0,0.0,0.0,0.0,0.0,0.0,0.0,0.0,0.0,0.0,0.0,0.0,0.0,0.0,0.0,0.0,0.0,0.0,0.0,0.0,0.0,0.0,0.0,0.0,0.0,0.0,0.0,0.0,0.0,0.0,0.0,0.0,0.0,0.0,0.0,0.0,0.0,0.0,0.0,0.0,0.0,0.0,0.0,0.0,0.0,0.0,0.0,0.0,0.0,0.0,0.0,0.0,0.0,0.0,0.0,0.0,0.0,0.0,0.0,0.0,0.0,0.0,0.0,0.0,0.0,0.0,0.0,0.0,0.0,0.0,0.0,0.0,0.0,0.0,0.0,0.0,0.0,0.0,0.0,0.0,0.0,0.0,0.0,0.0,0.0,0.0,0.0,0.0,0.0,0.0,0.0,0.0,0.0,0.0,0.0,0.0,0.0,0.0,0.0,0.0,0.0,0.0,0.0,0.0,0.0,0.0,0.0,0.0,0.0,0.0,0.0,0.0,0.0,0.0,0.0,0.0,0.0,0.0,0.0,0.0,0.0,0.0,0.0,0.0,0.0,0.0,0.0,0.0,0.0,0.0,0.0,0.0,0.0,0.0,0.0,0.0,0.0,0.0,0.0,0.0,0.0,0.0,0.0,0.0,0.0,0.0,0.0,0.0,0.0,0.0,0.0,0.0,0.0,0.0,0.0,0.0,0.0,0.0,0.0,0.0,0.0,0.0,0.0,0.0,0.0,0.0,0.0,0.0,0.0,0.0,0.0,0.0,0.0,0.0,0.0,0.0,0.0,0.0,0.0,0.0,0.0,0.0,0.0,0.0,0.0,0.0,0.0,0.0,0.0,0.0,0.0,0.0,0.0,0.0,0.0,0.0,0.0,0.0,0.0,0.0,0.0,0.0,0.0,0.0,0.0,0.0,0.0,0.0,0.0,0.0,0.0,0.0,0.0,0.0,0.0,0.0,0.0,0.0,0.0,0.0,0.0,0.0,0.0,0.0,0.0,0.0,0.0,0.0,0.0,0.0,0.0,0.0,0.0,0.0,0.0,0.0,0.0,0.0,0.0,0.0,0.0,0.0,0.0,0.0,0.0,0.0,0.0,0.0,0.0,0.0,0.0,0.0,0.0,0.0,0.0,0.0,0.0,0.0,0.0,0.0,0.0,0.0,0.0,0.0,0.0,0.0,0.0,0.0,0.0,0.0,0.0,0.0,0.0,0.0,0.0,0.0,0.0,0.0,0.0,0.0,0.0,0.0,0.0,0.0,0.0,0.0,0.0,0.0,0.0,0.0,0.0,0.0,0.0,0.0,0.0,0.0,0.0,0.0,0.0,0.0,0.0,0.0,0.0,0.0,0.0,0.0,0.0,0.0,0.0,0.0,0.0,0.0,0.0,0.0,0.0,0.0,0.0,0.0,0.0,0.0,0.0,0.0,0.0,0.0,0.0,0.0,0.0,0.0,0.0,0.0,0.0,0.0,0.0,0.0,0.0,0.0,0.0,0.0,0.0,0.0,0.0,0.0,0.0,0.0,0.0,0.0,0.0,0.0,0.0,0.0,0.0,0.0,0.0,0.0,0.0,0.0,0.0,0.0,0.0,0.0,0.0,0.0,0.0,0.0,0.0,0.0,0.0,0.0,0.0,0.0,0.0,0.0,0.0,0.0,0.0,0.0,0.0,0.0,0.0,0.0,0.0,0.0,0.0,0.0,0.0,0.0,0.0,0.0,0.0,0.0,0.0,0.0,0.0,0.0,0.0,0.0,0.0,0.0,0.0,0.0,0.0,0.0,0.0,0.0,0.0,0.0,0.0,0.0,0.0,0.0,0.0,0.0,0.0,0.0,0.0,0.0,0.0,0.0,0.0,0.0,0.0,0.0,0.0,0.0,0.0,0.0,0.0,0.0,0.0,0.0,0.0,0.0,0.0,0.0,0.0,0.0,0.0,0.0,0.0,0.0,0.0,0.0,0.0,0.0,0.0,0.0,0.0,0.0,0.0,0.0,0.0,0.0,0.0,0.0,0.0,0.0,0.0,0.0,0.0,0.0,0.0,0.0,0.0,0.0,0.0,0.0,0.0,0.0,0.0,0.0,0.0,0.0,0.0,0.0,0.0,0.0,0.0,0.0,0.0,0.0,0.0,0.0,0.0,0.0,0.0,0.0,0.0,0.0,0.0,0.0,0.0,0.0,0.0,0.0,0.0,0.0,0.0,0.0,0.0,0.0,0.0,0.0,0.0,0.0,0.0,0.0,0.0,0.0,0.0,0.0,0.0,0.0,0.0,0.0,0.0,0.0,0.0,0.0,0.0,0.0,0.0,0.0,0.0,0.0,0.0,0.0,0.0,0.0,0.0,0.0,0.0,0.0,0.0,0.0,0.0,0.0,0.0,0.0,0.0,0.0,0.0,0.0,0.0,0.0,0.0,0.0,0.0,0.0,0.0,0.0,0.0,0.0,0.0,0.0,0.0,0.0,0.0,0.0,0.0,0.0,0.0,0.0,0.0,0.0,0.0,0.0,0.0,0.0,0.0,0.0,0.0,0.0,0.0,0.0,0.0,0.0,0.0,0.0,0.0,0.0,0.0,0.0,0.0,0.0,0.0,0.0,0.0,0.0,0.0,0.0,0.0,0.0,0.0,0.0,0.0,0.0,0.0,0.0,0.0,0.0,0.0,0.0,0.0,0.0,0.0,0.0,0.0,0.0,0.0,0.0,0.0,0.0,0.0,0.0,0.0,0.0,0.0,0.0,0.0,0.0,0.0,0.0,0.0,0.0,0.0,0.0,0.0,0.0,0.0,0.0,0.0,0.0,0.0,0.0,0.0,0.0,0.0,0.0,0.0,0.0,0.0,0.0,0.0,0.0,0.0,0.0,0.0,0.0,0.0,0.0,0.0,0.0,0.0,0.0,0.0,0.0,0.0,0.0,0.0,0.0,0.0,0.0,0.0,0.0,0.0,0.0,0.0,0.0,0.0,0.0,0.0,0.0,0.0,0.0,0.0,0.0,0.0,0.0,0.0,0.0,0.0,0.0,0.0,0.0,0.0,0.0,0.0,0.0,0.0,0.0,0.0,0.0,0.0,0.0,0.0,0.0,0.0,0.0,0.0,0.0,0.0,0.0,0.0,0.0,0.0,0.0,0.0,0.0,0.0,0.0,0.0,0.0,0.0,0.0,0.0,0.0,0.0,0.0,0.0,0.0,0.0,0.0,0.0,0.0,0.0,0.0,0.0,0.0,0.0,0.0,0.0,0.0,0.0,0.0,0.0,0.0,0.0,0.0,0.0,0.0,0.0,0.0,0.0,0.0,0.0,0.0,0.0,0.0,0.0,0.0,0.0,0.0,0.0,0.0,0.0,0.0,0.0,0.0,0.0,0.0,0.0,0.0,0.0,0.0,0.0,0.0,0.0,0.0,0.0,0.0,0.0,0.0,0.0,0.0,0.0,0.0,0.0,0.0,0.0,0.0,0.0,0.0,0.0,0.0,0.0,0.0,0.0,0.0,0.0,0.0,0.0,0.0,0.0,0.0,0.0,0.0,0.0,0.0,0.0,0.0,0.0,0.0,0.0,0.0,0.0,0.0,0.0,0.0,0.0,0.0,0.0,0.0,0.0,0.0,0.0,0.0,0.0,0.0,0.0,0.0,0.0,0.0,0.0,0.0,0.0,0.0,0.0,0.0,0.0,0.0,0.0,0.0,0.0,0.0,0.0,0.0,0.0,0.0,0.0,0.0,0.0,0.0,0.0,0.0,0.0,0.0,0.0,0.0,0.0,0.0,0.0,0.0,0.0,0.0,0.0,0.0,0.0,0.0,0.0,0.0,0.0,0.0,0.0,0.0,0.0,0.0,0.0,0.0,0.0,0.0,0.0,0.0,0.0,0.0,0.0,0.0,0.0,0.0,0.0,0.0,0.0,0.0,0.0,0.0,0.0,0.0,0.0,0.0,0.0,0.0,0.0,0.0,0.0,0.0,0.0,0.0,0.0,0.0,0.0,0.0,0.0,0.0,0.0,0.0,0.0,0.0,0.0,0.0,0.0,0.0,0.0,0.0,0.0,0.0,0.0,0.0,0.0,0.0,0.0,0.0,0.0,0.0,0.0,0.0,0.0,0.0,0.0,0.0,0.0,0.0,0.0,0.0,0.0,0.0,0.0,0.0,0.0,0.0,0.0,0.0,0.0,0.0,0.0,0.0,0.0,0.0,0.0,0.0,0.0,0.0,0.0,0.0,0.0,0.0,0.0,0.0,0.0,0.0,0.0,0.0,0.0,0.0,0.0,0.0,0.0,0.0,0.0,0.0,0.0,0.0,0.0,0.0,0.0,0.0,0.0,0.0,0.0,0.0,0.0,0.0,0.0,0.0,0.0,0.0,0.0,0.0,0.0,0.0,0.0,0.0,0.0,0.0,0.0,0.0,0.0,0.0,0.0,0.0,0.0,0.0,0.0,0.0,0.0,0.0,0.0,0.0,0.0,0.0,0.0,0.0,0.0,0.0,0.0,0.0,0.0,0.0,0.0,0.0,0.0,0.0,0.0,0.0,0.0,0.0,0.0,0.0,0.0,0.0,0.0,0.0,0.0,0.0,0.0,0.0,0.0,0.0,0.0,0.0,0.0,0.0,0.0,0.0,0.0,0.0,0.0,0.0,0.0,0.0,0.0,0.0,0.0,0.0,0.0,0.0,0.0,0.0,0.0,0.0,0.0,0.0,0.0,0.0,0.0,0.0,0.0,0.0,0.0,0.0,0.0,0.0,0.0,0.0,0.0,0.0,0.0,0.0,0.0,0.0,0.0,0.0,0.0,0.0,0.0,0.0,0.0,0.0,0.0,0.0,0.0,0.0,0.0,0.0,0.0,0.0,0.0,0.0,0.0,0.0,0.0,0.0,0.0,0.0,0.0,0.0,0.0,0.0,0.0,0.0,0.0,0.0,0.0,0.0,0.0,0.0,0.0,0.0,0.0,0.0,0.0,0.0,0.0,0.0,0.0,0.0,0.0,0.0,0.0,0.0,0.0,0.0,0.0,0.0,0.0,0.0,0.0,0.0,0.0,0.0,0.0,0.0,0.0,0.0,0.0,0.0,0.0,0.0,0.0,0.0,0.0,0.0,0.0,0.0,0.0,0.0,0.0,0.0,0.0,0.0,0.0,0.0,0.0,0.0,0.0,0.0,0.0,0.0,0.0,0.0,0.0,0.0,0.0,0.0,0.0,0.0,0.0,0.0,0.0,0.0,0.0,0.0,0.0,0.0,0.0,0.0,0.0,0.0,0.0,0.0,0.0,0.0,0.0,0.0,0.0,0.0,0.0,0.0,0.0,0.0,0.0,0.0,0.0,0.0,0.0,0.0,0.0,0.0,0.0,0.0,0.0,0.0,0.0,0.0,0.0,0.0,0.0,0.0,0.0,0.0,0.0,0.0,0.0,0.0,0.0,0.0,0.0,0.0,0.0,0.0,0.0,0.0,0.0,0.0,0.0,0.0,0.0,0.0,0.0,0.8899,0.8899,0.0,0.0,0.0,0.0,0.0,0.0,0.0,0.0,0.0,0.0,0.0,0.0,0.0,0.0,0.0,0.0,0.0,0.0,0.0,0.0,0.0,0.0,0.0,0.0,0.0,0.0,0.0,0.0,0.0,0.0,0.0,0.0,0.0,0.0,0.0,0.0,0.0,0.0,0.8285,0.8432,0.8428,0.8428,0.8428,0.8426,0.0,0.0,0.0,0.0,0.0,0.0,0.0,0.0,0.0,0.0,0.0,0.0,0.0,0.0,0.0,0.0,0.0,0.0,0.0,0.0,0.0,0.0,0.0,0.0,0.0,0.0,0.0,0.0,0.0,0.0,0.0,0.0,0.0,0.0,0.0,0.0,0.0,0.0,0.0,0.0,0.0,0.0,0.0,0.0,0.0,0.0,0.0,0.0,0.0,0.0,0.0,0.0,0.0,0.0,0.0,0.0,0.0,0.0,0.0,0.0,0.0,0.0,0.0,0.0,0.0,0.0,0.0,0.0,0.0,0.0,0.8901,0.8895,0.0,0.0,0.0,0.0,0.0,0.0,0.0,0.0,0.0,0.0,0.0,0.0,0.0,0.0,0.0,0.0,0.0,0.0,0.0,0.0,0.0,0.0,0.0,0.8001,0.8001,0.8001,0.8001,0.8001,0.0,0.0,0.0,0.0,0.0,0.0,0.8004,0.7998,0.8058,0.8163,0.865,0.8902,0.8906,0.8893,0.89,0.8905,0.8905,0.0,0.0,0.0,0.0,0.0,0.0,0.0,0.0,0.0,0.0,0.0,0.0,0.0,0.0,0.0,0.0,0.0,0.0,0.0,0.0,0.0,0.0,0.0,0.0,0.0,0.0,0.0,0.0,0.0,0.0,0.0,0.0,0.0,0.0,0.0,0.0,0.0,0.0,0.0,0.0,0.0,0.0,0.0,0.0,0.0,0.0,0.0,0.0,0.0,0.0,0.0,0.0,0.0,0.0,0.0,0.0,0.0,0.0,0.0,0.0,0.0,0.0,0.0,0.8904,0.8957,0.9063,0.9054,0.9055,0.9063,0.9051,0.8998,0.8892,0.8895,0.0,0.0,0.0,0.0,0.0,0.0,0.0,0.0,0.0,0.0,0.0,0.0,0.0,0.0,0.0,0.0,0.0,0.0,0.0,0.0,0.0,0.8001,0.8001,0.8001,0.8001,0.8001,0.8001,0.0,0.0,0.8001,0.8001,0.7999,0.7999,0.7993,0.8261,0.8776,0.8859,0.8906,0.8892,0.8906,0.8906,0.8893,0.8893,0.8907,0.8897,0.0,0.0,0.0,0.0,0.0,0.0,0.0,0.0,0.0,0.0,0.0,0.0,0.0,0.0,0.0,0.0,0.0,0.0,0.0,0.0,0.0,0.0,0.0,0.0,0.0,0.0,0.0,0.0,0.0,0.0,0.0,0.0,0.0,0.0,0.0,0.0,0.0,0.0,0.0,0.0,0.0,0.8592,0.8065,0.0,0.0,0.0,0.0,0.0,0.0,0.0,0.0,0.0,0.0,0.0,0.0,0.0,0.8905,0.8905,0.8902,0.891,0.891,0.8894,0.9174,0.9679,0.9686,0.9678,0.9685,0.9679,0.0,0.8907,0.8897,0.0,0.0,0.0,0.0,0.0,0.0,0.0,0.0,0.0,0.0,0.0,0.0,0.0,0.0,0.0,0.0,0.0,0.0,0.0,0.0,0.0,0.8001,0.8001,0.8001,0.8001,0.8001,0.8001,0.8001,0.8001,0.8001,0.7994,0.8004,0.8006,0.834,0.8635,0.8893,0.8906,0.8899,0.8899,0.8893,0.8893,0.8907,0.8905,0.8892,0.8907,0.8899,0.0,0.0,0.0,0.0,0.0,0.0,0.0,0.0,0.0,0.0,0.0,0.0,0.0,0.0,0.0,0.0,0.0,0.0,0.0,0.0,0.0,0.0,0.0,0.0,0.0,0.0,0.0,0.0,0.0,0.0,0.0,0.0,0.0,0.0,0.0,0.0,0.0,0.0,0.0,0.8725,0.8805,0.8534,0.8742,0.8904,0.0,0.0,0.0,0.0,0.0,0.0,0.0,0.0,0.0,0.8908,0.8895,0.9057,0.9401,0.9405,0.941,0.941,0.9411,0.9539,0.9803,0.9806,0.9796,0.9803,0.979,0.9641,0.9402,0.9402,0.9566,0.9796,0.0,0.0,0.0,0.0,0.9802,0.9801,0.0,0.0,0.0,0.0,0.0,0.0,0.0,0.0,0.0,0.0,0.0,0.0,0.8001,0.8001,0.8001,0.8001,0.8001,0.8001,0.8001,0.8054,0.8074,0.8074,0.8076,0.8104,0.8157,0.8648,0.8907,0.8893,0.8893,0.89,0.8907,0.8898,0.8816,0.8675,0.8667,0.8755,0.89,0.8891,0.8903,0.8902,0.0,0.0,0.0,0.0,0.0,0.0,0.0,0.0,0.0,0.0,0.0,0.0,0.0,0.0,0.0,0.0,0.0,0.0,0.0,0.0,0.0,0.0,0.0,0.0,0.0,0.0,0.0,0.0,0.0,0.0,0.0,0.0,0.0,0.0,0.0,0.0,0.0,0.8904,0.8904,0.8899,0.8893,0.89,0.0,0.0,0.0,0.0,0.0,0.0,0.8899,0.9048,0.913,0.9121,0.9132,0.9348,0.9799,0.9791,0.9797,0.9797,0.9798,0.9802,0.9802,0.9801,0.9796,0.9796,0.9795,0.9802,0.9802,0.98,0.9807,0.9807,0.9807,0.9807,0.9807,0.9807,0.9807,0.9807,0.0,0.0,0.0,0.0,0.0,0.0,0.0,0.0,0.0,0.0,0.0,0.8001,0.8001,0.8001,0.8001,0.8001,0.8001,0.8001,0.8001,0.8174,0.8281,0.8281,0.8287,0.8375,0.8562,0.879,0.89,0.8905,0.8905,0.8896,0.8901,0.8907,0.8591,0.8039,0.8047,0.8368,0.8901,0.89,0.89,0.8899,0.8899,0.0,0.0,0.0,0.0,0.0,0.0,0.0,0.0,0.0,0.0,0.0,0.0,0.0,0.0,0.0,0.0,0.0,0.0,0.0,0.0,0.0,0.0,0.0,0.0,0.0,0.0,0.0,0.0,0.0,0.0,0.0,0.0,0.0,0.0,0.0,0.0,0.0,0.0,0.8899,0.8906,0.0,0.0,0.0,0.0,0.8897,0.8907,0.8899,0.8905,0.944,0.9758,0.9758,0.9751,0.9768,0.9798,0.9794,0.9802,0.9802,0.9791,0.9808,0.9801,0.9798,0.9792,0.9799,0.9809,0.9799,0.9806,0.9802,0.9807,0.9807,0.9807,0.9807,0.9807,0.9807,0.9807,0.9807,0.0,0.0,0.0,0.0,0.0,0.0,0.0,0.0,0.8001,0.8001,0.8001,0.8001,0.8001,0.8001,0.8001,0.8001,0.812,0.8187,0.8187,0.8336,0.843,0.843,0.8467,0.8501,0.8528,0.8608,0.873,0.8905,0.8508,0.832,0.8328,0.8328,0.8201,0.7995,0.7997,0.8329,0.8874,0.8488,0.8316,0.8323,0.8319,0.8312,0.0,0.0,0.0,0.0,0.0,0.0,0.0,0.0,0.0,0.0,0.0,0.0,0.0,0.0,0.0,0.0,0.0,0.0,0.0,0.0,0.0,0.0,0.0,0.0,0.0,0.0,0.0,0.0,0.0,0.0,0.0,0.0,0.0,0.0,0.0,0.0,0.0,0.8908,0.8901,0.0,0.8906,0.8901,0.9063,0.945,0.9484,0.9481,0.9484,0.9686,0.9801,0.9804,0.9797,0.9794,0.9797,0.9797,0.9798,0.9795,0.9801,1.1541,1.4762,1.4763,1.4762,1.4759,1.4757,1.2871,0.9806,0.9803,0.9791,0.9807,0.9807,0.98,0.9795,0.9795,0.9808,0.9794,0.0,0.0,0.0,0.0,0.0,0.0,0.0,0.0,0.8001,0.8001,0.8001,0.8001,0.8001,0.8001,0.8021,0.81,0.8227,0.8315,0.8362,0.8492,0.8574,0.8574,0.8615,0.8602,0.8528,0.8514,0.8541,0.8591,0.8194,0.8105,0.8301,0.8301,0.8301,0.8301,0.8309,0.8534,0.8872,0.8477,0.8303,0.8309,0.8309,0.83,0.8346,0.0,0.0,0.0,0.0,0.0,0.0,0.0,0.0,0.0,0.0,0.0,0.0,0.0,0.0,0.0,0.0,0.0,0.0,0.0,0.0,0.0,0.0,0.0,0.0,0.0,0.0,0.0,0.0,0.0,0.0,0.0,0.0,0.0,0.0,0.0,0.8905,0.8898,0.9082,0.9208,0.9208,0.9198,0.9362,0.9777,0.9805,0.9802,0.9798,1.1453,1.1593,0.9855,0.9808,0.9796,0.9798,1.1533,1.2579,1.2934,1.2933,1.4731,1.7984,1.607,1.5201,1.5208,1.5212,1.3251,1.0109,1.0096,1.0096,1.0082,0.9887,0.9799,0.9823,1.0033,1.0094,1.0102,0.0,0.0,0.0,0.0,0.0,0.0,0.0,0.8001,0.8001,0.8001,0.8001,0.8001,0.8001,0.8007,0.8081,0.8281,0.8308,0.8369,0.8492,0.8635,0.8703,0.8696,0.8689,0.8662,0.8595,0.8521,0.8328,0.7994,0.8001,0.8308,0.8893,0.89,0.89,0.8894,0.8896,0.8898,0.8899,0.8907,0.8893,0.89,0.89,0.89,0.8898,0.0,0.0,0.0,0.0,0.0,0.0,0.0,0.0,0.0,0.0,0.0,0.0,0.0,0.0,0.0,0.0,0.0,0.0,0.0,0.0,0.0,0.0,0.0,0.0,0.0,0.0,0.0,0.0,0.0,0.0,0.0,0.0,0.0,0.893,0.8935,0.8933,0.8924,0.9446,0.9794,0.9801,0.9798,0.986,1.0034,0.9894,0.9806,0.9806,1.4708,1.5222,1.0241,1.0096,1.0098,1.0089,1.4878,1.7901,1.9097,1.9097,1.9103,1.892,1.3455,1.0964,1.0964,1.0962,1.0969,1.096,1.0953,1.0855,1.0635,1.0059,0.9825,0.9895,1.0481,1.0702,1.0702,0.0,0.0,0.0,0.0,0.0,0.0,0.8001,0.8001,0.8001,0.8001,0.8001,0.8001,0.8001,0.8127,0.8234,0.8294,0.8478,0.8608,0.8648,0.8777,0.8798,0.8703,0.8601,0.8507,0.8381,0.8368,0.8236,0.7994,0.8001,0.8313,0.8896,0.8899,0.89,0.89,0.89,0.8907,0.8893,0.8892,0.8906,0.89,0.89,0.8893,0.8907,0.0,0.0,0.0,0.0,0.0,0.0,0.0,0.0,0.0,0.0,0.0,0.0,0.0,0.0,0.0,0.0,0.0,0.0,0.0,0.0,0.0,0.0,0.0,0.0,0.0,0.0,0.0,0.0,0.0,0.0,0.0,0.0,0.9555,0.9549,0.9549,0.9553,0.9552,0.9698,0.9799,0.9798,0.9802,1.1352,1.51,1.1922,0.9803,0.9801,1.4708,1.7206,1.6561,1.6534,1.653,1.6542,1.3895,1.477,1.9095,1.9107,1.9106,1.905,1.7506,1.6794,1.6796,1.6792,1.6788,1.6794,1.6784,1.4373,1.0679,1.052,1.044,1.0465,1.0633,1.0702,1.07,0.0,0.0,0.0,0.0,0.0,0.0,0.8001,0.8001,0.8001,0.8001,0.8001,0.8028,0.8114,0.8227,0.8349,0.8458,0.8615,0.8723,0.8777,0.8804,0.8804,0.8777,0.8601,0.8486,0.8468,0.8415,0.8328,0.8209,0.8319,0.856,0.89,0.89,0.89,0.89,0.89,0.89,0.89,0.89,0.89,0.8899,0.8899,0.8899,0.8899,0.8899,0.8899,0.8899,0.8899,0.8899,0.8899,0.8899,0.0,0.0,0.0,0.0,0.0,0.0,0.0,0.0,0.0,0.0,0.0,0.0,0.0,0.0,0.0,0.0,0.0,0.0,0.0,0.0,0.0,0.0,0.0,0.0,0.9795,0.98,0.9794,0.9801,0.9798,0.9798,0.9805,0.9799,0.9805,0.9793,1.1042,1.4045,1.3921,1.3704,1.3692,1.6544,1.7361,1.5642,1.786,1.91,1.9108,1.585,1.6102,1.9781,1.9777,1.9771,1.9781,1.9781,1.9771,1.9768,1.9771,1.9521,1.9107,1.9105,1.578,1.0701,0.0,0.0,0.0,0.0,1.0699,1.0701,0.0,0.0,0.0,0.0,0.0,0.0,0.8001,0.8001,0.8001,0.8001,0.8021,0.8107,0.8281,0.8328,0.8438,0.8676,0.871,0.8771,0.8879,0.8771,0.875,0.8852,0.8628,0.8646,0.8952,0.8837,0.871,0.8548,0.8784,0.9167,0.9682,0.9685,0.9689,0.9689,0.9682,0.9696,0.9696,0.9696,0.9691,0.9646,0.9112,0.8893,0.8899,0.8899,0.8899,0.8899,0.8899,0.8899,0.8899,0.8899,0.0,0.0,0.0,0.0,0.0,0.0,0.0,0.0,0.0,0.0,0.0,0.0,0.0,0.0,0.0,0.0,0.0,0.0,0.0,0.0,0.0,0.0,0.0,0.0,0.98,0.9802,0.9799,1.0293,1.0451,0.9869,0.9807,0.9791,0.9795,0.9858,1.017,1.0802,1.5966,1.9091,1.9088,1.9096,0.0,0.0,0.0,1.9279,1.9282,1.9274,1.9752,2.0708,2.0696,2.0693,2.0693,2.0693,2.0693,2.0693,2.0701,2.0154,1.9284,1.9271,1.6335,1.175,1.0992,1.0695,1.0695,1.0698,1.0698,1.0698,0.0,0.0,0.0,0.0,0.0,0.0,0.8001,0.8001,0.8001,0.8001,0.8134,0.826,0.8294,0.8499,0.8648,0.8689,0.8798,0.8825,0.875,0.871,0.8669,0.8574,0.8526,0.9148,1.053,1.053,0.9965,0.8825,0.8873,1.0841,1.4555,1.4551,1.4549,1.4549,1.4549,1.4543,1.4543,1.4543,1.4554,1.4217,1.0414,0.8893,0.8899,0.8899,0.8899,0.8899,0.8899,0.8899,0.8899,0.8899,0.8899,0.8899,0.8899,0.0,0.0,0.0,0.0,0.0,0.0,0.0,0.0,0.0,0.0,0.0,0.0,0.0,0.0,0.0,0.0,0.0,0.0,0.0,0.0,0.9805,0.9798,0.9791,0.9799,1.3399,1.4467,1.0298,0.9805,0.9801,0.9796,1.0246,1.2408,1.6956,1.8418,1.91,1.9096,1.9092,1.8996,1.8764,1.9821,2.0395,2.0401,2.0388,2.0485,2.0704,2.0705,0.0,2.0705,2.0705,2.0705,2.0693,2.0702,2.057,2.0393,2.0392,1.9742,1.8231,1.2802,1.0695,1.0698,1.0702,1.0695,1.0698,0.0,0.0,0.0,0.0,0.0,0.0,0.8001,0.8001,0.8001,0.8001,0.8174,0.8321,0.8396,0.8574,0.873,0.8791,0.8798,0.8777,0.8703,0.9169,0.9198,0.8621,0.9719,1.0509,1.0834,1.1805,1.176,1.0658,0.9479,1.0109,1.2398,1.2394,1.3657,1.5903,1.5908,1.5897,1.5897,1.5897,1.5906,1.57,1.3349,1.24,1.2156,0.9794,0.8899,0.8899,0.8899,0.8899,0.8899,0.8899,0.8899,0.8899,0.8899,0.8899,0.8898,0.0,0.0,0.0,0.0,0.0,0.0,0.0,0.0,0.0,0.0,0.0,0.0,0.0,0.0,0.98,0.0,0.0,0.9796,0.9799,1.1967,1.3651,1.3651,1.3659,1.2689,1.0109,1.208,1.3858,1.4404,1.474,1.6068,1.8898,1.91,1.9337,1.9869,1.991,2.0151,2.0687,2.0695,2.0705,2.0707,2.071,2.0703,2.0703,2.0704,2.07,2.07,2.07,2.07,2.07,2.07,2.0703,2.0691,2.0698,2.0698,2.0367,1.7001,1.5701,1.5693,1.5709,1.5361,1.4504,0.0,0.0,0.0,0.0,0.0,0.0,0.0,0.8001,0.8001,0.8001,0.8201,0.8383,0.8485,0.8648,0.8764,0.8858,0.8771,0.8683,0.8669,0.9665,0.9791,0.8743,1.0757,1.1635,1.1033,1.2418,1.3124,1.3078,1.1193,1.0269,1.0256,1.0259,1.2272,1.5908,1.5897,1.5899,1.5899,1.5899,1.5894,1.5899,1.5899,1.5893,1.5493,1.171,0.9689,0.8892,0.8892,0.8899,0.8899,0.8899,0.8898,0.8897,0.8897,0.8904,0.8902,0.8902,0.8983,0.0,0.0,0.0,0.0,0.0,0.0,0.0,0.0,0.0,0.9807,0.9807,0.9807,0.9793,0.9805,1.0626,1.1292,1.13,1.3935,1.6425,1.7629,1.4228,1.1612,1.1611,1.5276,1.8152,1.9016,1.9104,1.9179,1.9404,1.9404,1.9791,2.0647,2.0697,2.0713,2.0713,2.0707,2.07,2.07,2.07,2.07,2.07,2.07,2.07,2.07,2.07,2.07,2.07,2.07,2.07,2.07,2.07,2.07,2.07,2.07,2.0709,2.0553,1.9375,1.8393,1.6986,0.0,0.0,0.0,0.0,0.0,0.0,0.0,0.0,0.8001,0.8001,0.8282,0.8478,0.8492,0.873,0.8838,0.873,0.871,0.8655,0.8533,0.9745,0.9928,0.875,1.0091,1.1288,1.2186,1.1778,1.2854,1.5503,1.525,1.5124,1.5124,1.5115,1.5392,1.5897,1.5907,1.5899,1.5899,1.5899,1.5897,1.5896,1.5896,1.5891,1.584,1.5319,1.2536,0.8893,0.8906,0.8899,0.8899,0.8899,0.8896,0.8897,0.8897,0.8898,0.8902,0.8907,0.0,0.9712,0.9777,0.9799,0.9805,0.9795,0.9793,0.9807,0.0,0.0,0.9807,0.9807,0.9807,0.9807,0.98,1.3551,1.6633,1.6647,1.3275,1.2601,1.8141,1.8416,1.8058,1.8065,1.8562,1.897,1.908,1.9099,1.9494,2.0443,2.0523,2.0573,2.0687,2.0703,2.0698,2.0698,2.0705,2.07,2.07,2.07,2.07,2.07,2.07,2.07,2.07,2.07,2.07,2.07,2.07,2.07,2.07,2.07,2.07,2.07,2.07,2.0708,2.004,1.4619,1.2536,1.2353,0.0,0.0,0.0,0.0,0.0,0.0,0.0,0.0,0.0,0.8375,0.8453,0.8526,0.8608,0.8784,0.8872,0.8825,0.875,0.8669,0.8621,1.0416,1.0652,0.8777,1.1292,1.2435,1.1769,1.2339,1.3708,1.5901,1.59,1.5911,1.5908,1.5899,1.5892,1.5892,1.5896,1.5899,1.5899,1.5899,1.5899,1.5899,1.5899,1.5896,1.5901,1.5908,1.4682,1.2626,0.9879,0.8895,0.0,0.8902,0.8897,0.8957,0.9315,0.942,0.943,0.9431,0.9602,0.0,0.9804,0.9805,0.0,0.0,0.9807,0.9807,0.9807,0.9807,0.98,0.9803,0.9793,0.9808,0.9802,1.1556,1.421,0.0,1.6624,1.6117,1.8724,1.9103,1.9649,2.1143,2.1312,2.0741,1.9237,1.9647,2.022,2.0662,2.07,2.0693,2.0693,2.0704,2.07,2.07,2.07,2.07,2.07,2.07,2.07,2.07,2.07,2.07,2.07,2.07,2.07,2.07,2.07,2.07,2.07,2.07,2.07,2.07,2.07,2.0702,2.0389,1.785,1.6907,1.6897,0.0,0.0,0.0,0.0,0.0,0.0,0.0,0.0,0.0,0.0,0.8585,0.8567,0.8737,0.8845,0.8878,0.8852,0.8757,0.8696,0.8696,1.0897,1.1314,0.9346,1.2112,1.3153,1.1955,1.2809,1.4126,1.5908,1.5894,1.5894,1.5896,1.5894,1.5899,1.5899,1.5899,1.5899,1.5899,1.5899,1.5899,1.5897,1.5904,1.5901,1.5909,1.5906,1.5188,1.3748,1.0176,0.9007,0.9139,0.9152,0.9154,0.9216,0.9653,0.9805,0.9795,0.9803,0.9807,0.9798,0.9795,0.0,0.0,0.9807,0.9807,0.9807,0.9807,0.981,0.9793,0.9797,1.0924,1.1534,1.0278,1.0051,1.2035,1.8113,1.9095,1.9232,1.9606,1.994,2.0712,2.219,2.2561,2.2013,2.031,2.0667,2.0987,2.099,2.0803,2.0705,2.0711,2.0711,2.0711,2.0711,2.0705,2.0705,2.0705,2.07,2.07,2.07,2.07,2.07,2.07,2.07,2.07,2.07,2.07,2.07,2.07,2.07,2.07,2.07,2.07,2.07,2.0695,2.0692,2.0707,2.0696,0.0,0.0,0.0,0.0,0.0,0.0,0.0,0.0,0.0,0.0,0.0,0.0,0.0,0.8892,0.8852,0.8716,0.8703,0.8696,0.8696,1.0897,1.1737,1.0683,1.181,1.2788,1.3521,1.2815,1.3569,1.5908,1.5894,1.5894,1.5896,1.5894,1.5899,1.5899,1.5899,1.5899,1.5899,1.5899,1.5899,1.5896,1.5895,1.5908,1.5904,1.59,1.3446,0.9895,0.9154,0.9281,0.978,0.9765,0.9768,0.9768,0.979,0.9805,0.0,0.98,0.98,0.98,0.9807,0.0,0.9807,0.9807,0.9807,0.9807,0.9807,0.9792,0.9806,0.9799,1.3771,1.5917,1.15,1.0663,1.2528,1.8183,1.909,1.9559,2.0853,2.2045,2.2361,2.1205,2.1689,2.2296,0.0,2.217,2.1778,2.1763,2.1091,2.0697,2.0695,2.0695,2.0695,2.0695,2.0697,2.0704,2.0704,2.0705,2.07,2.07,2.07,2.07,2.07,2.07,2.07,2.07,2.07,2.07,2.07,2.07,2.07,2.07,2.07,2.07,2.07,2.07,2.0695,2.0695,0.0,0.0,0.0,0.0,0.0,0.0,0.0,0.0,0.0,0.0,0.0,0.0,0.0,0.0,0.0,0.0,0.8831,0.9174,0.9978,1.0772,1.1395,1.181,1.22,1.1801,1.0517,1.1742,1.3555,1.5908,1.5894,1.5896,1.5894,1.591,1.5899,1.5899,1.5899,1.5899,1.5899,1.5899,1.5901,1.5897,1.5898,1.6325,1.6968,1.695,1.6109,1.4431,0.0,0.9629,0.9809,0.9795,0.9797,0.9799,0.9799,0.9796,0.9807,0.9807,0.9807,0.9807,0.9807,0.0,0.9807,0.9807,0.9805,0.9802,0.9802,0.9806,0.9914,1.0311,1.1773,1.2523,1.0979,1.3744,1.7189,1.9971,2.0428,2.0281,1.9842,2.0886,2.1835,2.223,2.2482,0.0,0.0,0.0,2.1619,2.1786,2.2022,2.2169,2.216,2.216,2.1953,2.1462,2.144,2.1185,2.0705,2.07,2.0705,2.0698,2.0709,2.0709,2.0698,2.0709,2.0697,2.0697,2.0704,2.0704,2.0697,2.0705,2.0705,2.0698,2.0688,2.07,2.07,2.07,2.07,2.07,0.0,0.0,0.0,0.0,0.0,0.0,0.0,0.0,0.0,0.0,0.0,0.0,0.0,0.0,0.0,0.0,0.0,0.9223,1.0007,1.0836,1.1451,1.1778,1.2454,1.2381,1.1418,1.1229,1.2716,1.5901,1.5895,1.5899,1.5899,1.5899,1.5899,1.5899,1.5899,1.5899,1.5897,1.5901,1.5898,1.5932,1.6325,1.6876,1.7489,1.7505,1.7496,0.0,1.1657,0.9802,0.979,0.981,0.9807,0.9807,0.9807,0.9807,0.9807,0.9807,0.9807,0.9807,0.9807,0.9807,0.9805,0.9798,0.9802,0.9857,1.0073,1.0116,1.0226,1.0624,1.07,1.0702,1.0706,1.5309,1.954,2.0869,2.1112,2.0804,1.9943,2.0559,2.1476,2.2471,2.2771,2.2913,0.0,0.0,0.0,2.1979,2.2371,2.2699,2.2888,2.2888,2.2681,2.2212,2.194,2.1565,2.1091,2.1086,2.1237,2.1479,2.0943,2.0973,2.1496,2.1488,2.1493,2.1493,2.1484,2.1183,2.0736,2.1267,2.118,2.0704,2.0705,2.0688,2.0705,2.07,2.07,2.07,0.0,0.0,0.0,0.0,0.0,0.0,0.0,0.0,0.0,0.0,0.0,0.0,0.0,0.0,0.0,0.0,0.0,0.0,0.8995,1.1014,1.1819,1.0891,1.2537,1.4231,1.5855,1.1535,1.1446,1.5897,1.5911,1.5899,1.5899,1.5899,1.5899,1.5899,1.5897,1.5896,1.5895,1.589,1.5928,1.6069,1.7084,1.75,1.7492,1.75,1.7342,1.647,1.1562,0.9796,0.9807,0.9807,0.9807,0.9807,0.9807,0.9807,0.9807,0.9807,0.9807,0.9807,0.9807,0.9798,0.9808,0.9804,0.9819,0.9997,1.0564,1.0695,1.0697,1.0707,1.0925,1.1126,0.0,0.0,1.9614,2.089,2.1101,2.113,2.1171,2.1198,2.1394,0.0,0.0,0.0,0.0,0.0,0.0,2.2362,2.2211,2.2366,2.2859,2.2893,2.2893,2.2859,2.2185,2.1829,2.1812,2.1833,2.219,2.2824,2.1463,2.1545,2.2907,2.2893,2.2893,2.2893,2.2907,2.2117,2.0911,2.2238,2.1957,2.0709,2.0775,2.0775,2.0721,2.0775,2.0816,2.0816,0.0,0.0,0.0,0.0,0.0,0.0,0.0,0.0,0.0,0.0,0.0,0.0,0.0,0.0,0.0,0.0,0.0,0.0,1.0186,0.996,1.0713,1.2764,1.2232,1.3151,1.5842,1.4723,1.4698,1.59,1.5895,1.5899,1.5899,1.5899,1.5899,1.5897,1.5903,1.5905,1.5902,1.589,1.636,1.711,1.7383,1.7503,1.75,1.7496,1.5113,1.1584,1.0274,0.9796,0.9807,0.0,0.0,0.0,0.0,0.9807,0.9807,0.9807,0.9807,0.9807,0.9807,0.9796,0.9797,0.9799,1.0136,1.0513,1.0658,1.0704,1.0689,1.0702,1.4038,1.6957,0.0,0.0,0.0,2.1046,2.1107,0.0,2.2323,2.2442,0.0,2.2647,0.0,2.2893,2.2893,2.2893,0.0,0.0,2.2722,2.2756,2.2893,2.2893,2.2756,2.2465,2.2263,2.2121,2.2014,2.2418,2.2435,2.2074,2.2259,2.2547,2.2905,2.2895,2.2899,2.2899,2.2892,2.2676,2.228,2.1553,2.1037,2.082,2.191,2.1672,2.0823,2.1931,2.2332,2.2263,0.0,0.0,0.0,0.0,0.0,0.0,0.0,0.0,0.0,0.0,0.0,0.0,0.0,0.0,0.0,0.0,0.0,0.0,0.0,0.9767,1.0241,1.1483,1.2688,1.3161,1.2844,1.4846,1.5891,1.5908,1.5901,1.5907,1.5899,1.5899,1.5899,1.5897,1.5909,1.6161,1.6604,1.6599,1.6948,0.0,0.0,1.7511,1.7242,1.4973,1.2312,0.9799,0.9805,0.9802,0.0,0.0,0.0,0.9807,0.9807,0.9807,0.9807,0.9807,0.0,0.9805,0.9796,0.9793,0.9855,1.013,1.0447,1.07,1.0697,1.2604,1.4382,1.4391,1.738,0.0,1.9987,2.0583,2.1096,0.0,0.0,0.0,2.2728,2.2894,2.29,0.0,2.2898,0.0,2.2893,2.2893,2.2893,0.0,2.2893,2.2893,2.2893,2.2893,2.2791,2.2568,2.2568,2.2529,2.2457,2.2762,2.2697,2.2293,2.2705,2.289,2.2899,2.2907,2.2893,2.2893,2.2903,2.2899,2.2834,2.2014,2.1283,2.0852,2.2319,2.2388,2.1769,2.2591,2.2755,2.2492,0.0,0.0,0.0,0.0,0.0,0.0,0.0,0.0,0.0,0.0,0.0,0.0,0.0,0.0,0.0,0.0,0.0,0.0,0.0,0.0,0.9994,0.894,1.2795,1.3369,0.99,1.3212,1.4961,1.4975,1.5601,1.59,1.5896,1.5897,1.5899,1.5899,1.5895,1.6412,1.7294,1.7434,1.75,1.7504,1.7503,1.7096,1.599,0.0,0.9799,0.9798,0.9808,0.0,0.0,0.0,0.9807,0.9807,0.9807,0.9807,0.9807,0.9807,0.9805,0.98,0.9804,0.9855,1.0058,1.0578,1.0693,1.0899,1.1639,1.5023,1.819,1.8952,0.0,2.0864,2.0125,2.0612,2.1105,2.11,0.0,2.1703,2.2751,2.2903,2.2893,2.2893,2.2893,2.2893,2.2893,2.2893,2.2893,2.2893,2.2893,2.2893,2.2893,2.2893,2.2893,2.2893,2.2893,2.2893,2.2893,2.2893,2.2893,2.2893,2.2893,2.2893,2.2893,2.2899,2.2895,2.2909,2.3065,2.314,2.3115,2.3046,2.2263,2.1247,2.2532,2.3021,2.3029,2.3034,2.2748,2.235,0.0,0.0,0.0,0.0,0.0,0.0,0.0,0.0,0.0,0.0,0.9899,0.0,0.0,0.0,0.0,0.0,0.0,0.0,0.0,0.0,0.0,0.8913,0.9678,1.1548,1.4631,1.1678,1.0116,1.0103,1.4005,1.5909,1.5899,1.5907,1.5899,1.5897,1.5901,1.6003,1.6247,1.712,1.749,1.7504,1.7502,1.4946,1.1047,1.0147,0.0,0.0,0.0,0.0,0.0,0.0,0.9807,0.9807,0.9807,0.9807,0.9807,0.9807,0.9803,0.9795,0.9806,1.0166,1.0578,1.0665,1.0695,1.1924,1.6575,1.4805,0.0,0.0,2.018,1.9693,1.5096,1.7998,2.1101,2.1103,2.1942,2.266,2.2875,2.2903,2.2893,0.0,0.0,0.0,0.0,0.0,0.0,0.0,2.2893,2.2893,2.2893,2.2893,2.2893,2.2893,2.2893,2.2893,2.2893,2.2893,2.2893,2.2893,2.2893,2.2893,2.2907,2.2892,2.2893,2.2941,2.3907,2.4321,2.4268,2.3829,2.3492,2.328,2.3537,2.3643,2.3656,2.3771,2.3754,2.3643,0.0,0.0,0.0,0.0,0.0,0.0,0.0,0.0,0.0,0.0,1.0366,1.0105,0.0,0.0,0.0,0.0,0.0,0.0,0.0,0.0,0.0,0.0,0.8893,0.9953,1.2211,1.005,0.89,0.89,0.0,1.3508,1.5901,1.5899,1.5903,1.5903,1.5896,1.6214,1.6774,1.7271,1.7498,1.7505,1.7499,1.4411,0.9792,0.0,0.0,0.0,0.0,0.0,0.0,0.0,0.9807,0.9807,0.9807,0.9807,0.9805,0.9803,0.9799,0.9877,1.0172,1.0481,1.0693,1.071,1.071,1.2187,1.7817,0.0,0.0,0.0,1.6333,1.652,1.5626,1.9052,0.0,2.2032,2.2519,2.2896,2.2896,2.2898,0.0,2.2893,0.0,0.0,0.0,2.2893,2.2893,2.2893,2.2893,2.2893,2.2893,2.2893,2.2893,2.2893,2.2893,2.2893,2.2893,2.2893,2.2905,2.2913,2.2913,2.2893,2.292,2.3505,2.3775,2.3824,2.435,2.4472,2.4267,2.4017,2.3897,2.3888,2.383,2.3848,2.3906,2.3906,2.3906,2.3861,0.0,0.0,0.0,0.0,0.0,0.0,0.0,1.0702,1.0702,1.0702,1.0702,1.0518,1.0036,0.9747,0.9541,0.0,0.0,0.0,0.0,0.0,0.0,0.0,0.0,0.0,0.0,0.0,0.0,0.9648,0.9146,0.0,0.0,0.0,0.0,0.0,1.5678,1.6374,1.7142,1.6816,1.6996,0.0,0.0,1.5062,0.0,0.0,0.0,0.0,0.0,0.0,0.0,0.0,0.9807,0.9807,0.9807,0.9797,0.9798,0.9811,0.9884,1.01,1.0578,1.0709,1.0701,1.0703,1.1811,1.4095,1.8526,1.6121,0.0,0.0,1.4386,1.4936,1.8339,2.1108,2.2891,0.0,2.2903,2.2903,2.2901,2.2893,2.2893,0.0,2.2893,0.0,2.2893,2.2893,0.0,2.2893,2.2893,2.2893,2.2893,2.2893,2.2893,2.2893,2.2893,2.2893,2.2893,2.2991,2.3021,2.3038,2.3192,2.3267,2.3287,2.4196,2.46,2.46,2.4601,2.4421,2.413,2.413,2.413,2.4112,2.4009,2.404,2.4112,2.4009,2.3973,2.3973,0.0,0.0,0.0,0.0,0.0,0.0,0.0,1.0702,1.0702,1.0702,1.0702,1.0674,1.0627,1.038,0.9995,0.0,0.0,0.0,0.0,0.0,0.0,0.0,0.0,0.0,0.0,0.0,0.0,1.2086,0.9937,0.0,0.0,0.0,0.0,0.0,0.0,1.5958,1.5959,1.4614,0.0,0.0,0.0,0.0,0.0,0.0,0.0,0.0,0.0,0.0,0.0,0.0,0.0,0.9807,0.9807,0.9803,0.9793,0.9806,0.0,0.0,1.0688,1.0708,1.0704,1.0698,1.5456,2.0277,2.0809,0.0,2.0493,2.1726,1.9547,1.8455,2.182,2.2694,0.0,0.0,0.0,2.2901,2.2893,2.2893,2.2893,2.2893,0.0,0.0,2.2893,2.2893,2.2893,2.2893,2.2893,2.2893,2.2893,2.2893,2.2893,2.2893,2.2893,2.2893,2.2893,2.3257,2.3436,2.3458,2.4121,2.4445,2.4437,2.4553,2.4603,2.4603,2.4609,2.4588,2.4538,2.4538,2.4538,2.4538,2.4538,2.4538,2.4538,2.4538,2.4538,2.4516,0.0,0.0,0.0,0.0,0.0,0.0,0.0,1.114,1.0702,1.0702,1.0702,1.0702,1.0702,1.0592,1.038,0.0,0.0,0.0,0.0,0.0,0.0,0.0,0.0,0.0,0.0,0.0,0.9361,1.0283,1.0768,0.0,0.0,0.0,0.0,0.0,0.0,1.2347,1.3504,1.4576,0.0,0.0,0.0,0.0,0.0,0.0,0.0,0.0,0.0,0.0,0.9807,0.0,0.0,0.0,1.0045,1.0097,0.0,0.0,1.0513,1.0693,1.0707,1.0706,1.1507,1.4915,1.8441,2.0221,1.6872,0.0,2.1115,1.9252,1.9951,2.1014,2.1348,2.2217,2.2908,2.2911,2.2893,2.2893,2.2893,2.2893,2.2893,2.2893,2.2893,0.0,0.0,0.0,2.2893,2.2893,2.2893,2.2893,2.2893,2.2893,2.2893,2.2893,2.3063,2.3174,2.3257,2.3429,2.3723,2.417,2.4467,2.4598,2.4602,2.46,2.4586,2.4599,2.4596,2.4599,2.4599,2.4599,2.4599,2.4599,2.4599,2.4599,2.4599,2.4599,2.4599,2.4604,0.0,0.0,0.0,0.0,0.0,0.0,1.2282,1.1432,1.0702,1.0702,1.0702,1.0702,1.0702,1.0702,1.0627,1.0435,0.0,0.0,0.0,0.0,0.0,0.0,0.0,0.0,0.0,0.0,0.8899,0.8899,1.0556,1.0707,0.0,0.0,0.916,0.9612,0.0,0.0,0.0,0.0,0.0,0.0,0.0,0.0,0.0,0.0,0.0,0.0,0.0,0.0,0.0,0.0,0.0,0.0,0.0,0.0,0.0,0.0,1.0695,1.0703,1.0707,1.086,1.2173,1.6966,1.924,1.9419,0.0,0.0,2.114,1.8537,2.0539,2.2421,2.1327,2.2099,2.2893,2.2893,2.2893,2.2893,2.2893,2.2893,2.2893,2.2893,0.0,2.2893,0.0,2.2893,2.2893,2.2893,2.2893,2.2893,2.2893,2.2893,2.2893,2.2893,2.3166,2.3344,2.3445,2.363,2.3977,2.4471,2.4566,2.4609,2.4599,2.4599,2.4599,2.4599,2.4599,2.4599,2.4599,2.4599,2.4599,2.4599,2.4599,2.4599,2.4599,2.4599,2.4599,2.4599,0.0,0.0,0.0,0.0,0.0,0.0,0.0,1.1432,1.0702,1.0702,1.0702,1.0702,1.0702,1.0702,1.0702,1.0702,0.0,0.0,0.0,0.0,0.0,0.0,0.0,0.0,0.0,0.0,0.0,0.8899,0.8926,0.9533,1.0658,0.9451,0.9747,1.1285,0.0,0.0,0.0,0.0,0.0,0.0,0.0,0.0,0.9799,0.0,0.0,0.0,0.0,0.0,0.0,0.0,0.0,0.0,0.0,1.0482,1.07,1.0695,1.07,1.0701,1.0701,1.1235,1.2464,1.5239,1.7195,1.8888,0.0,0.0,2.1724,2.2148,2.2331,2.2512,2.2823,2.2893,2.2893,2.2893,2.2893,2.2893,2.2893,2.2893,2.2893,0.0,0.0,2.2893,2.2893,2.2893,2.2893,2.2893,2.2893,2.2893,2.2893,2.2893,2.2893,2.2893,2.3166,2.3292,2.3292,2.3883,2.4195,2.4209,2.4471,2.4599,2.4599,2.4599,2.4599,2.4599,2.4599,2.4599,2.4599,2.4599,2.4599,2.4599,2.4599,2.4599,2.4599,2.4599,2.4599,2.4599,0.0,0.0,0.0,0.0,0.0,0.0,0.0,1.2594,1.1582,1.0798,1.0702,1.0702,1.0702,1.0702,1.0702,1.0702,0.0,0.0,0.0,0.0,0.0,0.0,0.0,0.0,0.0,0.0,0.0,0.8899,0.8899,0.9092,0.9541,1.2361,1.2238,0.9706,1.0806,1.0477,0.0,0.0,0.0,0.0,0.0,1.1255,0.9799,0.0,0.0,0.0,0.0,0.0,0.0,0.0,0.0,0.0,0.0,0.0,0.0,1.074,1.07,1.0701,1.0701,1.1108,1.1895,1.3405,1.4728,1.6029,1.7429,1.9127,2.0559,2.0919,2.1937,2.2769,2.288,2.2893,2.2893,2.2893,2.2893,2.2893,2.2893,0.0,0.0,2.2893,2.2893,2.2893,2.2893,2.2893,2.2893,2.2893,2.2893,2.2893,2.2893,2.306,2.3162,2.3162,2.3474,2.3728,2.391,2.4284,2.4466,2.4466,2.4559,2.4599,2.4599,2.4599,2.4599,2.4599,2.4599,2.4599,2.4599,2.4599,2.4599,2.4599,2.4599,2.4599,2.4599,2.4599,2.4599,2.4599,0.0,0.0,0.0,0.0,0.0,0.0,0.0,1.3126,1.1982,1.0852,1.0702,1.0702,1.0702,1.0702,1.0702,1.0702,0.0,0.0,0.0,0.0,0.0,0.0,0.0,0.0,0.0,0.0,0.8899,0.8899,0.8899,0.9133,0.963,1.2092,1.2329,1.0668,1.0479,0.9975,0.0,0.0,0.0,0.0,0.9793,0.9802,0.9796,0.0,0.0,0.0,0.0,0.0,0.0,0.0,0.0,0.0,0.0,0.0,0.0,0.0,1.0999,1.1082,1.0933,1.1214,1.1852,1.3095,1.4483,0.0,0.0,1.9213,2.091,2.112,2.2085,2.2893,2.2893,2.2893,2.2893,2.2893,2.2893,2.2893,0.0,0.0,0.0,2.2893,0.0,0.0,2.2893,2.2893,2.2893,2.2893,2.2893,2.2893,2.2893,2.3153,2.3363,2.347,2.3799,2.404,2.4209,2.4471,2.4599,2.4599,2.4599,2.4599,2.4599,2.4599,2.4599,2.4599,2.4599,2.4599,0.0,2.4599,2.4599,2.4599,2.4599,2.4599,2.4599,2.4599,2.4599,2.4599,0.0,0.0,0.0,0.0,0.0,0.0,0.0,0.0,0.0,0.0,1.0702,1.0702,1.0702,1.0702,1.0702,0.0,0.0,0.0,0.0,0.0,0.0,0.0,0.0,0.0,0.0,0.8899,0.8899,0.8899,0.8899,0.9478,1.0548,0.9533,1.0563,1.3145,1.0337,0.9224,0.0,0.0,0.0,0.0,0.9807,0.9807,0.0,0.0,0.0,0.0,0.0,0.0,0.0,0.0,0.0,0.0,0.0,0.0,0.0,0.0,0.0,0.0,0.0,1.1545,0.0,0.0,0.0,0.0,0.0,0.0,0.0,2.2411,2.2689,2.2893,2.2893,2.2893,2.2893,2.2893,2.2893,0.0,0.0,2.2893,0.0,0.0,2.2893,2.2893,2.2893,2.2893,2.2893,2.2893,2.2893,2.2907,2.2951,2.3193,2.3487,2.383,2.4088,2.4235,2.4235,2.4484,2.4599,2.4599,2.4599,2.4599,2.4599,2.4599,2.4599,2.4599,2.4599,2.4599,2.4599,2.4599,2.4599,2.4599,2.4599,2.4599,2.4599,2.4599,2.4599,2.4599,0.0,0.0,0.0,0.0,0.0,0.0,0.0,0.0,0.0,0.0,1.0702,1.0702,1.0702,1.0702,1.0702,0.0,0.0,0.0,0.0,0.0,0.0,0.0,0.0,0.0,0.0,0.8899,0.8899,0.8899,0.8899,0.9044,0.9348,1.0298,1.0471,1.0039,1.0683,1.0502,0.9715,0.0,0.0,0.0,0.9807,0.9807,0.0,0.0,0.0,0.0,1.0186,1.0186,0.0,0.0,0.0,0.0,0.0,0.0,0.0,0.0,1.1916,1.2164,1.2074,0.0,0.0,0.0,0.0,0.0,0.0,0.0,0.0,0.0,0.0,2.2893,2.2893,2.2893,2.2893,0.0,0.0,2.2893,2.2893,0.0,0.0,2.2893,2.2893,2.2893,2.2893,2.2893,2.2893,2.2893,2.2893,2.3018,2.3342,2.3567,2.3808,2.4088,2.4364,2.4511,2.4511,2.4572,2.4599,2.4599,2.4599,2.4599,2.4599,2.4599,2.4599,2.4599,2.4599,2.4599,2.4599,2.4599,2.4599,2.4599,2.4599,2.4599,2.4599,2.4599,2.4599,2.4599,0.0,0.0,0.0,0.0,0.0,0.0,0.0,0.0,0.0,0.0,0.0,0.0,0.0,0.0,0.0,0.0,0.0,0.0,0.0,0.0,0.0,0.0,0.0,0.0,0.8912,0.8899,0.8899,0.8899,0.8899,0.8899,0.8926,0.9789,0.9784,0.9091,1.0181,1.0295,0.9627,0.9749,0.9807,0.9807,0.9807,0.0,0.0,0.0,0.0,0.0,1.0308,1.0457,0.0,1.0896,1.1159,1.1466,0.0,0.0,0.0,0.0,1.2279,1.251,1.2338,1.2367,1.2654,1.3595,0.0,0.0,0.0,0.0,0.0,0.0,0.0,0.0,2.2893,2.2893,0.0,0.0,2.2893,0.0,0.0,0.0,2.2893,2.2893,2.2893,2.2893,2.2893,2.2893,2.2893,2.2893,2.2893,2.3058,2.3397,2.366,2.3919,2.4195,2.4471,2.4599,2.4599,2.4599,2.4599,2.4599,2.4599,2.4599,2.4599,2.4599,2.4599,2.4599,2.4599,2.4599,2.4599,2.4599,2.4599,2.4599,2.4599,2.4599,2.4599,2.4599,2.4599,2.4599,0.0,0.0,0.0,0.0,0.0,0.0,0.0,0.0,0.0,0.0,0.0,0.0,0.0,0.0,0.0,0.0,0.0,0.0,0.0,0.0,0.0,0.0,0.0,0.932,0.9051,0.8995,0.8982,0.8982,0.8926,0.8899,0.8899,0.8899,0.9014,0.9241,0.9483,0.9551,0.9477,0.9698,0.9807,0.9807,0.9807,0.0,0.0,0.0,0.0,0.0,0.0,0.0,0.0,1.1025,1.1483,1.2127,1.2316,0.0,0.0,0.0,0.0,0.0,1.2551,1.2894,1.3696,1.5011,0.0,0.0,0.0,0.0,0.0,0.0,0.0,0.0,0.0,2.2893,0.0,0.0,0.0,0.0,2.2893,2.2893,2.2893,2.2893,2.2893,2.2893,2.2893,2.2893,2.2893,2.2893,2.2893,2.3037,2.3363,2.3652,2.3946,2.4262,2.4484,2.4599,2.4599,2.4599,2.4599,2.4599,2.4599,2.4599,2.4599,2.4599,2.4599,2.4599,2.4599,2.4599,2.4599,2.4599,2.4599,2.4599,2.4599,2.4599,2.4599,2.4599,2.4599,2.4599,0.0,0.0,0.0,0.0,0.0,0.0,0.0,0.0,0.0,0.0,0.0,0.0,0.0,0.0,0.0,0.0,0.0,0.0,0.0,0.0,0.0,0.0,0.9913,0.972,0.9665,0.943,0.9327,0.9327,0.9037,0.8899,0.8899,0.8899,0.9069,0.9383,0.953,0.9644,0.9739,0.9786,0.9807,0.9807,0.9807,0.0,0.0,0.0,0.0,0.0,0.0,0.0,0.0,1.1724,1.1944,1.2176,1.2578,0.0,0.0,0.0,0.0,0.0,1.3278,1.4908,1.6695,1.5776,0.0,0.0,0.0,0.0,0.0,0.0,0.0,0.0,0.0,2.2893,2.2893,0.0,0.0,2.2893,0.0,0.0,2.2893,2.2893,2.2893,2.2893,2.2893,2.2893,2.2893,2.2893,2.2893,2.3148,2.3692,2.3759,2.404,2.4519,2.4572,2.4599,2.4599,2.4599,2.4599,2.4599,2.4599,2.4599,2.4599,2.4599,2.4599,2.4599,2.4599,2.4599,2.4599,2.4599,2.4599,2.4599,2.4599,2.4599,2.4599,2.4599,2.4599,2.4599,0.0,0.0,0.0,0.0,0.0,0.0,0.0,0.0,0.0,0.0,0.0,0.0,0.0,0.0,0.0,0.0,0.0,0.0,0.0,0.0,0.0,1.0518,1.0366,1.0133,0.9802,0.9678,0.961,0.961,0.932,0.9175,0.9175,0.9173,0.9252,0.9409,0.9625,0.9705,0.9698,0.9773,0.9913,1.0065,0.0,0.0,0.0,0.0,0.0,0.0,0.0,0.0,0.0,0.0,1.224,1.2514,1.2725,0.0,0.0,0.0,0.0,0.0,1.3252,1.4876,1.6749,1.6912,0.0,0.0,0.0,0.0,0.0,0.0,0.0,0.0,0.0,0.0,2.2893,2.2893,0.0,2.2893,2.2893,2.2893,2.2893,2.2893,2.2893,2.2893,2.2893,2.2893,2.2893,2.2893,2.2893,2.3161,2.3777,2.3803,2.4053,2.4586,2.4599,2.4599,2.4599,2.4599,2.4599,2.4599,2.4599,2.4599,2.4599,2.4599,2.4599,2.4599,2.4599,2.4599,2.4599,2.4599,2.4599,2.4599,2.4599,2.4599,2.4599,2.4599,2.4599,2.4599,0.0,0.0,0.0,0.0,0.0,0.0,0.0,0.0,0.0,0.0,0.0,0.0,0.0,0.0,0.0,0.0,0.0,0.0,0.0,0.0,1.0702,1.0702,1.075,1.053,1.0023,0.9954,0.9913,0.9913,0.9605,0.9432,0.9398,0.9428,0.945,0.9463,0.9692,0.9791,0.9771,0.988,1.011,1.0429,0.0,0.0,0.0,0.0,0.0,0.0,0.0,0.0,0.0,0.0,0.0,0.0,0.0,0.0,0.0,1.2856,1.3203,1.3629,1.373,1.5302,1.7186,0.0,0.0,2.0993,2.2551,0.0,0.0,0.0,0.0,0.0,0.0,2.2893,0.0,2.2893,2.2893,2.2893,2.2893,2.2893,2.2893,2.2893,2.2893,2.2893,2.2893,2.2893,2.2893,2.2893,2.2893,2.3161,2.3777,2.3803,2.4053,2.4586,2.4599,2.4599,2.4599,2.4599,2.4599,2.4599,2.4599,2.4599,2.4599,2.4599,2.4599,2.4599,2.4599,2.4599,2.4599,2.4599,2.4599,2.4599,2.4599,2.4599,2.4599,2.4599,2.4599,2.4599,0.0,0.0,0.0,0.0,0.0,0.0,0.0,0.0,0.0,0.0,0.0,0.0,0.0,0.0,0.0,0.0,0.0,0.0,0.0,0.0,1.0702,1.0702,1.0886,1.0867,1.0641,1.0394,1.0257,1.0257,0.9811,0.9518,0.9412,0.9531,0.9576,0.9598,0.9739,0.9967,1.0241,1.0255,1.0459,1.0762,1.0762,0.0,0.0,0.0,0.0,0.0,0.0,0.0,0.0,0.0,0.0,0.0,0.0,0.0,1.284,1.3027,1.4005,1.514,1.5584,1.7756,1.9984,2.0338,0.0,0.0,2.2551,0.0,0.0,0.0,0.0,0.0,0.0,2.2893,2.2893,2.2893,2.2893,2.2893,2.2893,2.2893,2.2893,2.2893,2.2893,2.2893,2.2893,2.2893,2.2893,2.2893,2.2893,2.3161,2.3777,2.3803,2.4053,2.4586,2.4599,2.4599,2.4599,2.4599,2.4599,2.4599,2.4599,2.4599,2.4599,2.4599,2.4599,2.4599,2.4599,2.4599,2.4599,2.4599,2.4599,2.4599,2.4599,2.4599,2.4599,2.4599,2.4599,2.4599,0.0,0.0,0.0,0.0,0.0,0.0,0.0,0.0,0.0,0.0,0.0,0.0,0.0,0.0,0.0,0.0,0.0,0.0,0.0,0.0,1.1007,1.1007,1.1072,1.1094,1.1007,1.0908,1.0752,1.0554,0.9988,0.9657,0.9523,0.9585,0.9757,1.0042,1.0083,1.0308,1.0611,1.0611,1.08,1.1103,1.1103,1.1354,0.0,0.0,0.0,0.0,0.0,0.0,0.0,0.0,1.2708,1.2807,1.2807,1.2897,1.3178,1.418,1.5016,1.587,1.698,1.8814,2.0474,2.0571,2.1321,0.0,0.0,0.0,0.0,0.0,0.0,0.0,0.0,0.0,2.2893,2.2893,2.2893,2.2893,2.2893,2.2893,2.2893,2.2893,2.2893,2.2893,2.2893,2.2893,2.2893,2.2893,2.3063,2.3327,2.379,2.3959,2.4222,2.4586,2.4599,2.4599,2.4599,2.4599,2.4599,2.4599,2.4599,2.4599,2.4599,2.4599,2.4599,2.4599,2.4599,2.4599,2.4599,2.4599,2.4599,2.4599,2.4599,2.4599,2.4599,2.4599,2.4599,2.4599,0.0,0.0,0.0,0.0,0.0,0.0,0.0,0.0,0.0,0.0,0.0,0.0,0.0,0.0,0.0,0.0,0.0,0.0,1.1195,1.1195,1.1195,1.1195,1.1266,1.1299,1.1299,1.137,1.1207,1.0864,1.0396,1.0053,0.9822,0.9927,1.0088,1.0308,1.0308,1.0543,1.0952,1.0831,1.105,1.1466,1.1498,1.1975,0.0,0.0,0.0,0.0,0.0,0.0,0.0,0.0,1.3095,1.34,1.3013,1.3311,1.4015,1.5157,1.6004,1.6937,1.8476,1.9726,2.0716,2.12,2.2108,0.0,0.0,0.0,0.0,0.0,0.0,0.0,0.0,0.0,0.0,2.2893,2.2893,2.2893,2.2893,2.2893,2.2893,2.2893,2.2893,2.2893,2.2893,2.2893,2.2893,2.2893,2.3153,2.346,2.3772,2.4048,2.4324,2.4586,2.4599,2.4599,2.4599,2.4599,2.4599,2.4599,2.4599,2.4599,2.4599,2.4599,2.4599,2.4599,2.4599,2.4599,2.4599,2.4599,2.4599,2.4599,2.4599,2.4599,2.4599,2.4599,2.4599,2.4599,0.0,0.0,0.0,0.0,0.0,0.0,0.0,0.0,0.0,0.0,0.0,0.0,0.0,0.0,0.0,0.0,0.0,0.0,1.121,1.121,1.121,1.121,1.1403,1.15,1.15,1.1702,1.1598,1.1195,1.1059,1.0755,1.0308,1.0656,1.0634,1.0308,1.0316,1.0694,1.1299,1.0974,1.1224,1.1853,1.1978,1.2851,1.4147,0.0,0.0,0.0,0.0,0.0,0.0,0.0,1.3744,1.4705,1.3503,1.4139,1.5417,1.5819,1.6979,1.8495,2.0177,2.0629,2.0993,2.2516,2.2893,0.0,2.2893,0.0,0.0,0.0,0.0,2.2893,2.2893,0.0,0.0,2.2893,2.2893,2.2893,2.2893,2.2893,2.2893,2.2893,2.2893,2.2893,2.2893,2.2893,2.2893,2.2893,2.3153,2.3443,2.3772,2.4066,2.4324,2.4586,2.4599,2.4599,2.4599,2.4599,2.4599,2.4599,2.4599,2.4599,2.4599,2.4599,2.4599,2.4599,2.4599,2.4599,2.4599,2.4599,2.4599,2.4599,2.4599,2.4599,2.4599,2.4599,2.4599,2.4599,0.0,0.0,0.0,0.0,0.0,0.0,0.0,0.0,0.0,0.0,0.0,0.0,0.0,0.0,0.0,0.0,0.0,0.0,1.1629,1.1629,1.1629,1.1629,1.1677,1.171,1.171,1.1767,1.1629,1.127,1.0996,1.0786,1.0664,1.1668,1.1729,1.1042,1.194,1.2586,1.2976,1.2886,1.3584,1.4665,1.3713,1.3784,1.4358,0.0,0.0,0.0,0.0,0.0,0.0,0.0,0.0,0.0,1.4763,1.5851,1.7512,1.8709,1.9444,2.0205,2.179,2.2211,0.0,2.2791,2.2893,0.0,0.0,2.2893,0.0,0.0,2.2893,2.2893,2.2893,2.2893,0.0,2.2893,2.2893,2.2893,2.2893,2.2893,2.2893,2.2893,2.2893,2.2893,2.2893,2.2893,2.2893,2.2893,2.3358,2.3692,2.3785,2.4217,2.4524,2.4599,2.4599,2.4599,2.4599,2.4599,2.4599,2.4599,2.4599,2.4599,2.4599,2.4599,2.4599,2.4599,2.4599,2.4599,2.4599,2.4599,2.4599,2.4599,2.4599,2.4599,2.4599,2.4599,2.4599,2.4599,0.0,0.0,0.0,0.0,0.0,0.0,0.0,0.0,0.0,0.0,0.0,0.0,0.0,0.0,0.0,0.0,0.0,0.0,0.0,1.1806,1.1806,1.1806,1.1806,1.1806,1.1806,1.1806,1.1949,1.224,1.1549,1.1322,1.1571,1.2098,1.2174,1.1903,1.2796,1.3396,1.3725,1.4216,1.5032,1.5935,1.5273,1.5524,1.6197,0.0,0.0,0.0,0.0,0.0,0.0,0.0,0.0,0.0,1.656,1.7605,1.9204,2.0181,2.0973,2.173,2.2654,2.2893,0.0,2.2893,2.2893,2.2893,2.2893,0.0,0.0,0.0,2.2893,2.2893,2.2893,2.2893,2.2893,2.2893,2.2893,2.2893,2.2893,2.2893,2.2893,2.2893,2.2893,2.2893,2.2893,2.2893,2.2893,2.2893,2.3455,2.3803,2.3803,2.4311,2.4599,2.4599,2.4599,2.4599,2.4599,2.4599,2.4599,2.4599,2.4599,2.4599,2.4599,2.4599,2.4599,2.4599,2.4599,2.4599,2.4599,2.4599,2.4599,2.4599,2.4599,2.4599,2.4599,2.4599,2.4599,2.4599,0.0,0.0,0.0,0.0,0.0,0.0,0.0,0.0,0.0,0.0,0.0,0.0,0.0,0.0,0.0,0.0,0.0,0.0,0.0,0.0,1.1806,1.1806,1.1806,1.1806,1.1806,1.1912,1.2483,1.353,1.2371,1.2145,1.2784,1.2236,1.2266,1.2805,1.3231,1.3674,1.4152,1.5244,1.5981,1.6448,1.6754,1.7649,1.8823,1.8812,0.0,0.0,0.0,0.0,0.0,0.0,0.0,0.0,1.8653,1.9375,2.0656,2.0764,2.1799,2.2893,2.2893,2.2893,0.0,2.2893,2.2893,0.0,2.2893,2.2893,2.2893,2.2893,0.0,2.2893,2.2893,2.2893,2.2893,2.2893,2.2893,2.2893,2.2893,2.2893,2.2893,2.2893,2.2893,2.2893,2.2893,2.2893,2.2907,2.2934,2.3482,2.3817,2.3843,2.4324,2.4599,2.4599,2.4599,2.4599,2.4599,2.4599,2.4599,2.4599,2.4599,2.4599,2.4599,2.4599,2.4599,2.4599,2.4599,2.4599,2.4599,2.4599,2.4599,2.4599,2.4599,2.4599,2.4599,2.4599,2.4599,2.4599,0.0,0.0,0.0,0.0,0.0,0.0,0.0,0.0,0.0,0.0,0.0,0.0,0.0,0.0,0.0,0.0,0.0,0.0,0.0,0.0,1.1806,1.1806,1.1806,1.1806,1.1806,1.2784,1.294,1.2206,1.1927,1.2386,1.347,1.336,1.336,1.353,1.4604,1.58,1.701,1.7278,1.8276,1.9604,1.8601,1.849,1.8852,1.7827,1.7431,0.0,0.0,0.0,0.0,0.0,0.0,0.0,1.9986,2.1042,2.2356,2.2404,2.2636,2.2893,2.2893,2.2893,0.0,2.2893,2.2893,2.2893,2.2893,2.2893,2.2893,2.2893,2.2893,2.2893,2.2893,2.2893,2.2893,2.2893,2.2893,2.2893,2.2893,2.2893,2.2893,2.2893,2.2893,2.2893,2.2893,2.2893,2.3,2.3189,2.3585,2.3892,2.4102,2.4431,2.4599,2.4599,2.4599,2.4599,2.4599,2.4599,2.4599,2.4599,2.4599,2.4599,2.4599,2.4599,2.4599,2.4599,2.4599,2.4599,2.4599,2.4599,2.4599,2.4599,2.4599,2.4599,2.4599,2.4599,2.4599,2.4599,0.0,0.0,0.0,0.0,0.0,0.0,0.0,0.0,0.0,0.0,0.0,0.0,0.0,0.0,0.0,0.0,0.0,0.0,0.0,0.0,1.1806,1.1806,1.1806,1.2085,1.2694,1.2754,1.3069,1.3614,1.3009,1.3285,0.0,0.0,1.4277,1.5317,1.6283,1.7154,1.797,1.8859,1.9808,2.065,2.0049,1.9878,1.9938,1.9406,1.9197,1.9249,1.958,0.0,0.0,0.0,0.0,0.0,0.0,0.0,2.2893,2.2893,2.2893,2.2893,2.2893,2.2893,0.0,2.2893,0.0,2.2893,2.2893,2.2893,2.2893,2.2893,2.2893,2.2893,2.2893,2.2893,2.2893,2.2893,2.2893,2.2893,2.2893,2.2893,2.2893,2.2893,2.2893,2.2893,2.2893,2.2893,2.301,2.3283,2.3607,2.3919,2.4195,2.4457,2.4599,2.4599,2.4599,2.4599,2.4599,2.4599,2.4599,2.4599,2.4599,2.4599,2.4599,2.4599,2.4599,2.4599,2.4599,2.4599,2.4599,2.4599,2.4599,2.4599,2.4599,2.4599,2.4599,2.4599,2.4599,2.4599,0.0,0.0,0.0,0.0,0.0,0.0,0.0,0.0,0.0,0.0,0.0,0.0,0.0,0.0,0.0,0.0,0.0,0.0,0.0,0.0,0.0,1.213,1.213,1.2619,1.368,1.2874,1.3384,1.5273,1.4664,0.0,0.0,0.0,0.0,1.7185,1.7718,1.8118,1.849,2.004,2.0739,2.0791,2.1015,2.112,2.1216,0.0,0.0,2.1543,2.0638,2.1224,2.2233,2.1192,0.0,0.0,0.0,0.0,2.2893,2.2893,2.2893,2.2893,2.2893,2.2893,2.2893,2.2893,2.2893,0.0,2.2893,2.2893,2.2893,2.2893,2.2893,2.2893,2.2893,2.2893,2.2893,2.2893,2.2893,2.2893,2.2893,2.2893,2.2893,2.2893,2.2893,2.2893,2.2893,2.2893,2.3054,2.3363,2.3652,2.3933,2.4244,2.4484,2.4599,2.4599,2.4599,2.4599,2.4599,2.4599,2.4599,2.4599,2.4599,2.4599,2.4599,2.4599,2.4599,2.4599,2.4599,2.4599,2.4599,2.4599,2.4599,2.4599,2.4599,2.4599,2.4599,2.4599,2.4599,2.4599,0.0,0.0,0.0,0.0,0.0,0.0,0.0,0.0,0.0,0.0,0.0,0.0,0.0,0.0,0.0,0.0,0.0,0.0,1.1806,0.0,0.0,1.345,1.345,1.353,1.3695,1.4604,1.4723,1.3949,0.0,0.0,0.0,0.0,0.0,1.779,0.0,0.0,2.0345,2.0595,2.0831,2.1056,2.1096,2.1269,2.1545,0.0,0.0,0.0,0.0,2.221,2.2425,2.2525,2.2713,0.0,0.0,0.0,2.2893,2.2893,2.2893,2.2893,2.2893,2.2893,2.2893,2.2893,2.2893,2.2893,2.2893,2.2893,2.2893,2.2893,2.2893,2.2893,2.2893,2.2893,2.2893,2.2893,2.2893,2.2893,2.2893,2.2893,2.2893,2.2893,2.2893,2.2893,2.2893,2.2893,2.3134,2.3692,2.3772,2.4026,2.4519,2.4572,2.4599,2.4599,2.4599,2.4599,2.4599,2.4599,2.4599,2.4599,2.4599,2.4599,2.4599,2.4599,2.4599,2.4599,2.4599,2.4599,2.4599,2.4599,2.4599,2.4599,2.4599,2.4599,2.4599,2.4599,2.4599,2.4599,0.0,0.0,0.0,0.0,0.0,0.0,0.0,0.0,0.0,0.0,0.0,0.0,0.0,0.0,0.0,1.3192,1.2973,1.2721,1.2115,1.2601,1.2926,1.2926,1.2926,1.3625,1.512,1.5009,1.5364,1.6279,0.0,0.0,0.0,1.8472,1.8838,0.0,0.0,0.0,0.0,0.0,0.0,2.1122,2.1312,0.0,0.0,0.0,0.0,0.0,0.0,0.0,0.0,2.2853,2.2893,2.2893,2.2893,0.0,0.0,0.0,2.2893,2.2893,2.2893,2.2893,2.2893,2.2893,2.2893,2.2893,2.2893,2.2893,2.2893,2.2893,2.2893,2.2893,2.2893,2.2893,2.2893,2.2893,2.2893,2.2893,2.2893,2.2893,2.2893,2.2893,2.2893,2.2893,2.2893,2.3037,2.33,2.3777,2.3946,2.4195,2.4572,2.4599,2.4599,2.4599,2.4599,2.4599,2.4599,2.4599,2.4599,2.4599,2.4599,2.4599,2.4599,2.4599,2.4599,2.4599,2.4599,2.4599,2.4599,2.4599,2.4599,2.4599,2.4599,2.4599,2.4599,2.4599,2.4599,2.4599,0.0,0.0,0.0,0.0,0.0,0.0,0.0,0.0,0.0,0.0,0.0,0.0,0.0,0.0,0.0,0.0,1.4215,1.3549,1.2375,1.2596,1.2785,1.2785,1.3131,1.4257,1.6258,1.5696,1.6346,0.0,0.0,0.0,1.8932,2.0145,2.0601,0.0,2.0695,0.0,0.0,0.0,0.0,0.0,0.0,0.0,0.0,0.0,0.0,0.0,0.0,0.0,0.0,0.0,0.0,0.0,2.2893,2.2893,0.0,0.0,0.0,2.2893,2.2893,2.2893,2.2893,2.2893,2.2893,2.2893,2.2893,2.2893,2.2893,2.2893,2.2893,2.2893,2.2893,2.2893,2.2893,2.2893,2.2893,2.2893,2.2893,2.2893,2.2893,2.2893,2.2893,2.2893,2.2893,2.314,2.3429,2.3772,2.4035,2.4311,2.4586,2.4599,2.4599,2.4599,2.4599,2.4599,2.4599,2.4599,2.4599,2.4599,2.4599,2.4599,2.4599,2.4599,2.4599,2.4599,2.4599,2.4599,2.4599,2.4599,2.4599,2.4599,2.4599,2.4599,2.4599,2.4599,2.4599,2.4599,0.0,0.0,0.0,0.0,0.0,0.0,0.0,0.0,0.0,0.0,0.0,0.0,0.0,1.7889,1.7443,1.6349,1.5111,1.3788,1.2383,1.3436,1.4092,1.4092,1.5385,0.0,1.6289,1.7476,0.0,0.0,0.0,0.0,2.0577,2.0653,2.0831,2.1053,2.1066,2.1082,2.1109,0.0,0.0,0.0,0.0,0.0,0.0,0.0,0.0,0.0,0.0,0.0,0.0,0.0,0.0,0.0,0.0,0.0,0.0,0.0,0.0,0.0,2.2893,2.2893,2.2893,2.2893,2.2893,2.2893,2.2893,2.2893,2.2893,2.2893,2.2893,2.2893,2.2893,2.2893,2.2893,2.2893,2.2893,2.2893,2.2893,2.2893,2.2893,2.2893,2.2893,2.2893,2.2893,2.314,2.3429,2.3772,2.4035,2.4311,2.4586,2.4599,2.4599,2.4599,2.4599,2.4599,2.4599,2.4599,2.4599,2.4599,2.4599,2.4599,2.4599,2.4599,2.4599,2.4599,2.4599,2.4599,2.4599,2.4599,2.4599,2.4599,2.4599,2.4599,2.4599,2.4599,2.4599,2.4599,0.0,0.0,0.0,0.0,0.0,0.0,0.0,0.0,0.0,0.0,0.0,0.0,0.0,1.888,1.8627,1.6771,1.6271,1.5855,1.5359,1.5733,1.6004,1.6004,1.6483,1.715,1.8005,1.8494,0.0,0.0,0.0,2.084,2.0949,2.0949,2.1002,2.1093,2.1093,2.1216,2.1435,2.1558,0.0,0.0,0.0,0.0,0.0,0.0,0.0,0.0,0.0,0.0,0.0,0.0,0.0,0.0,0.0,0.0,0.0,0.0,0.0,2.2893,2.2893,2.2893,2.2893,2.2893,2.2893,2.2893,2.2893,2.2893,2.2893,2.2893,2.2893,2.2893,2.2893,2.2893,2.2893,2.2893,2.2893,2.2893,2.2893,2.2893,2.2893,2.2893,2.2893,2.2893,2.2893,2.3331,2.3679,2.3785,2.4209,2.4492,2.4586,2.4599,2.4599,2.4599,2.4599,2.4599,2.4599,2.4599,2.4599,2.4599,2.4599,2.4599,2.4599,2.4599,2.4599,2.4599,2.4599,2.4599,2.4599,2.4599,2.4599,2.4599,2.4599,2.4599,2.4599,2.4599,2.4599,2.4599,0.0,0.0,0.0,0.0,0.0,0.0,0.0,0.0,0.0,0.0,0.0,0.0,0.0,0.0,1.9589,1.763,1.7588,1.748,1.7028,1.6996,1.6996,1.6996,1.7431,1.8091,1.8972,0.0,0.0,0.0,0.0,0.0,0.0,2.1093,2.1162,2.1272,2.1272,2.1379,0.0,0.0,0.0,2.2151,0.0,0.0,2.2592,0.0,0.0,0.0,0.0,0.0,0.0,0.0,0.0,0.0,0.0,0.0,0.0,0.0,0.0,0.0,2.2893,2.2893,2.2893,2.2893,2.2893,2.2893,2.2893,2.2893,2.2893,2.2893,2.2893,2.2893,2.2893,2.2893,2.2893,2.2893,2.2893,2.2893,2.2893,2.2893,2.2893,2.2893,2.2893,2.2893,2.2893,2.3455,2.3803,2.3803,2.4302,2.4599,2.4599,2.4599,2.4599,2.4599,2.4599,2.4599,2.4599,2.4599,2.4599,2.4599,2.4599,2.4599,2.4599,2.4599,2.4599,2.4599,2.4599,2.4599,2.4599,2.4599,2.4599,2.4599,2.4599,2.4599,2.4599,2.4599,2.4599,2.4599,0.0,0.0,0.0,0.0,0.0,0.0,0.0,0.0,0.0,0.0,0.0,0.0,0.0,0.0,0.0,1.9155,1.9052,1.8508,1.7206,1.7125,1.7125,1.7125,1.838,1.9052,1.9052,0.0,0.0,0.0,0.0,0.0,0.0,0.0,2.1299,2.1612,2.1625,2.1625,2.1665,0.0,2.2402,2.2442,0.0,2.2893,2.2893,0.0,0.0,0.0,2.2893,2.2893,0.0,0.0,0.0,0.0,0.0,0.0,0.0,0.0,0.0,0.0,0.0,0.0,0.0,2.2893,2.2893,2.2893,2.2893,2.2893,2.2893,2.2893,2.2893,2.2893,2.2893,2.2893,2.2893,2.2893,2.2893,2.2893,2.2893,2.2893,2.2893,2.2893,2.2893,2.2893,2.2893,2.3455,2.3803,2.3803,2.4302,2.4599,2.4599,2.4599,2.4599,2.4599,2.4599,2.4599,2.4599,2.4599,2.4599,2.4599,2.4599,2.4599,2.4599,2.4599,2.4599,2.4599,2.4599,2.4599,2.4599,2.4599,2.4599,2.4599,2.4599,2.4599,2.4599,2.4599,2.4599,2.4599,0.0,0.0,0.0,0.0,0.0,0.0,0.0,0.0,0.0,0.0,0.0,0.0,0.0,0.0,0.0,2.0557,2.0526,2.0367,1.9989,1.9973,1.9973,1.9973,2.0319,2.0526,2.0526,0.0,0.0,0.0,0.0,0.0,0.0,0.0,0.0,0.0,2.2084,2.2178,2.2191,2.2335,0.0,0.0,2.2867,2.2893,0.0,0.0,0.0,0.0,0.0,2.2893,0.0,0.0,2.2893,2.2893,0.0,0.0,0.0,0.0,0.0,0.0,2.2893,0.0,0.0,0.0,0.0,0.0,2.2893,2.2893,2.2893,2.2893,2.2893,2.2893,2.2893,2.2893,2.2893,2.2893,2.2893,2.2893,2.2893,2.2893,2.2893,2.2893,2.2893,2.2893,2.2893,2.3455,2.3803,2.3803,2.4302,2.4599,2.4599,2.4599,2.4599,2.4599,2.4599,2.4599,2.4599,2.4599,2.4599,2.4599,2.4599,2.4599,2.4599,2.4599,2.4599,2.4599,2.4599,2.4599,2.4599,2.4599,2.4599,2.4599,2.4599,2.4599,2.4599,2.4599,2.4599,2.4626,0.0,0.0,0.0,0.0,0.0,0.0,0.0,0.0,0.0,0.0,0.0,0.0,0.0,0.0,0.0,0.0,2.147,2.147,2.147,2.147,2.147,2.147,2.147,2.147,2.147,0.0,0.0,0.0,0.0,0.0,0.0,0.0,0.0,0.0,0.0,0.0,0.0,0.0,0.0,0.0,2.2893,0.0,0.0,2.2893,2.2893,0.0,0.0,0.0,2.2893,2.2893,2.2893,0.0,0.0,0.0,0.0,0.0,0.0,0.0,0.0,0.0,0.0,0.0,0.0,0.0,2.2893,2.2893,2.2893,2.2893,2.2893,2.2893,2.2893,2.2893,2.2893,2.2893,2.2893,2.2893,2.2893,2.2893,2.2893,2.2893,2.2893,2.2893,2.2893,2.3455,2.3803,2.3803,2.4302,2.4599,2.4599,2.4599,2.4599,2.4599,2.4599,2.4599,2.4599,2.4599,2.4599,2.4599,2.4599,2.4599,2.4599,2.4599,2.4599,2.4599,2.4599,2.4599,2.4599,2.4599,2.4599,2.4599,2.4599,2.4599,2.4599,2.4599,2.4698,2.485,0.0,0.0,0.0,0.0,0.0,0.0,0.0,0.0,0.0,0.0,0.0,0.0,0.0,0.0,0.0,0.0,2.2007,2.2007,2.2007,2.2007,0.0,0.0,2.2007,2.2007,2.2007,2.177,0.0,0.0,0.0,0.0,0.0,0.0,0.0,0.0,0.0,0.0,0.0,0.0,0.0,2.2893,2.2893,2.2893,0.0,0.0,2.2893,0.0,2.2893,2.2893,2.2893,2.2893,2.2893,0.0,0.0,0.0,0.0,0.0,2.2928,0.0,0.0,0.0,0.0,0.0,0.0,0.0,2.2945,2.2928,2.2893,2.2893,2.2893,2.2893,2.2893,2.292,2.2934,2.2907,2.292,2.2934,2.2893,2.2893,2.2893,2.2893,2.2893,2.2893,2.2893,2.3455,2.3803,2.3803,2.4302,2.4599,2.4599,2.4599,2.4599,2.4599,2.4599,2.4599,2.4599,2.4599,2.4599,2.4599,2.4599,2.4599,2.4599,2.4599,2.4599,2.4599,2.4599,2.4599,2.4599,2.4599,2.4599,2.4599,2.4599,2.4613,2.4671,2.4671,2.4858,2.5149,0.0,0.0,0.0,0.0,0.0,0.0,0.0,0.0,0.0,0.0,0.0,0.0,0.0,0.0,0.0,0.0,0.0,2.2007,2.2007,0.0,2.2007,2.2007,2.2007,2.2007,2.2007,2.1954,2.194,2.2007,2.194,0.0,0.0,0.0,0.0,0.0,0.0,0.0,0.0,0.0,0.0,2.2893,2.2893,0.0,2.2893,2.2893,2.2893,2.2893,2.2893,2.2893,2.2893,0.0,2.2893,2.2893,0.0,0.0,0.0,0.0,0.0,0.0,0.0,0.0,0.0,0.0,0.0,0.0,2.3236,2.3082,2.2893,2.2893,2.2893,2.2893,2.2893,2.309,2.3153,2.2934,2.3073,2.3153,2.2934,2.2893,2.2893,2.2893,2.2893,2.2893,2.2893,2.3455,2.3803,2.3803,2.4302,2.4599,2.4599,2.4599,2.4599,2.4599,2.4599,2.4599,2.4599,2.4599,2.4599,2.4599,2.4599,2.4599,2.4599,2.4599,2.4599,2.4599,2.4599,2.4599,2.4599,2.4599,2.4599,2.4599,2.4599,2.4764,2.4997,2.4997,2.5184,2.5464,0.0,0.0,0.0,0.0,0.0,0.0,0.0,0.0,0.0,0.0,0.0,0.0,0.0,0.0,0.0,0.0,0.0,0.0,0.0,0.0,0.0,2.2452,2.2452,2.2452,2.2452,2.2452,2.2452,2.2452,2.2452,2.2515,0.0,0.0,0.0,0.0,0.0,0.0,0.0,0.0,2.2893,2.2893,2.2893,0.0,2.2893,2.2893,2.2893,2.2893,2.2893,2.2893,2.2893,2.2893,2.3013,0.0,0.0,2.3133,2.3372,0.0,2.327,2.3406,0.0,0.0,0.0,2.3406,0.0,0.0,0.0,2.3013,2.2893,2.2893,2.2893,2.2893,2.2893,2.301,2.3063,2.292,2.301,2.3063,2.292,2.2893,2.2893,2.2893,2.2893,2.2893,2.2893,2.3455,2.3906,2.4182,2.4457,2.4599,2.4599,2.4599,2.4599,2.4599,2.4599,2.4599,2.4599,2.4599,2.4599,2.4599,2.4599,2.4599,2.4599,2.4599,2.4599,2.4599,2.4599,2.4599,2.4599,2.4599,2.4711,2.4863,2.4863,2.4943,2.5122,2.5237,2.5478,2.5778,0.0,0.0,0.0,0.0,0.0,0.0,0.0,0.0,0.0,0.0,0.0,0.0,0.0,0.0,0.0,0.0,0.0,0.0,0.0,0.0,0.0,0.0,2.2893,2.2893,2.2893,2.2893,2.2893,2.2893,2.2893,2.2893,2.2893,2.2893,0.0,0.0,0.0,0.0,0.0,0.0,0.0,2.2893,0.0,2.2893,2.2893,2.2893,2.2893,2.2911,2.2962,2.2996,2.3013,2.3082,0.0,2.3458,2.3116,2.3287,0.0,0.0,0.0,0.0,0.0,0.0,0.0,0.0,0.0,2.3458,0.0,0.0,0.0,2.2996,2.2945,2.2893,2.2893,2.2947,2.2974,2.2907,2.2947,2.296,2.2907,2.2893,2.2893,2.2893,2.2893,2.2893,2.2893,2.3455,2.4008,2.4559,2.4599,2.4599,2.4599,2.4599,2.4599,2.4599,2.4599,2.4599,2.4599,2.4599,2.4599,2.4599,2.4599,2.4599,2.4599,2.4599,2.4599,2.4599,2.4599,2.4599,2.4599,2.4666,2.4863,2.5096,2.5096,2.5163,2.5296,2.5518,2.5804,2.6078,2.1582,0.0,0.0,0.0,0.0,0.0,0.0,0.0,0.0,0.0,0.0,0.0,0.0,0.0,0.0,0.0,0.0,0.0,2.2893,0.0,0.0,0.0,0.0,0.0,2.2893,2.2893,2.2893,2.2893,2.2893,2.2893,2.2893,2.2893,0.0,0.0,2.2893,0.0,0.0,0.0,2.2893,0.0,2.2893,2.2893,0.0,2.2893,2.2893,2.2945,2.3236,2.3338,2.3406,0.0,2.3898,2.385,0.0,2.3816,0.0,0.0,0.0,0.0,0.0,0.0,0.0,0.0,2.4139,0.0,0.0,0.0,2.3338,2.3338,0.0,2.2893,2.2893,0.0,0.0,2.2947,2.31,2.318,2.2934,2.2893,2.2893,2.2893,2.2893,2.2893,2.2893,2.3455,2.4008,2.4559,2.4599,2.4599,2.4599,2.4599,2.4599,2.4599,2.4599,2.4599,2.4599,2.4599,2.4599,2.4599,2.4599,2.4599,2.4599,2.4599,2.4599,2.4599,2.4599,2.4599,2.4626,2.4917,2.5069,2.5096,2.5096,2.5436,2.5904,2.5931,2.6131,2.6353,0.0,0.0,0.0,0.0,0.0,0.0,0.0,0.0,0.0,0.0,0.0,0.0,0.0,0.0,0.0,0.0,0.0,0.0,0.0,0.0,0.0,0.0,0.0,0.0,0.0,2.2893,2.2893,2.2893,2.2893,2.2893,2.2893,2.2893,2.2893,0.0,2.2893,0.0,2.2893,0.0,2.2893,0.0,0.0,0.0,0.0,2.2962,2.3013,2.3236,2.3611,2.3747,2.3765,0.0,2.4136,0.0,0.0,0.0,0.0,0.0,0.0,0.0,0.0,0.0,0.0,0.0,0.0,0.0,2.4207,0.0,2.3747,0.0,0.0,0.0,0.0,0.0,0.0,0.0,2.2983,2.3023,2.292,2.2893,2.2893,2.2893,2.2893,2.3041,2.3388,2.3656,2.4008,2.4559,2.4599,2.4599,2.4599,2.4599,2.4599,2.4599,2.4599,2.4599,2.4599,2.4599,2.4599,2.4599,2.4599,2.4599,2.4599,2.4599,2.4599,2.4613,2.4823,2.489,2.4917,2.5211,2.5457,2.5623,2.5623,2.5784,2.6011,2.6165,2.6299,2.6406,0.0,0.0,0.0,0.0,0.0,0.0,0.0,0.0,0.0,0.0,0.0,0.0,2.2893,2.2893,0.0,0.0,0.0,2.2893,0.0,0.0,2.2893,0.0,0.0,0.0,0.0,0.0,0.0,2.2893,2.2893,2.2893,2.2893,2.2893,2.2893,2.2893,0.0,2.2893,2.2911,0.0,2.303,2.3099,2.3836,2.4365,2.4653,2.4023,2.3938,2.4244,2.5008,2.5278,2.5295,2.5379,2.5596,2.59,2.6604,0.0,0.0,0.0,0.0,0.0,2.5678,0.0,0.0,0.0,0.0,0.0,0.0,0.0,0.0,0.0,0.0,0.0,0.0,0.0,0.0,0.0,0.0,2.2996,2.2911,2.2893,2.2893,2.2893,2.2893,2.3108,2.3612,2.3745,2.3999,2.4457,2.4559,2.4599,2.4599,2.4599,2.4599,2.4599,2.4599,2.4599,2.4599,2.4599,2.4599,2.4599,2.4599,2.4599,2.4599,2.4599,2.4639,2.4751,2.4983,2.5149,2.5224,2.5518,2.5778,2.5998,2.6078,2.6118,2.6145,2.6326,2.6406,2.6406,0.0,2.2867,0.0,0.0,0.0,0.0,0.0,0.0,0.0,0.0,0.0,0.0,0.0,0.0,0.0,0.0,0.0,2.2893,2.2893,0.0,2.2893,0.0,0.0,0.0,0.0,0.0,0.0,0.0,2.2893,2.2893,2.2893,2.2893,2.2893,2.2893,2.2893,2.2893,2.2911,2.3253,2.3389,2.3543,2.5297,2.6822,2.79,0.0,2.6002,2.6236,2.7933,2.8542,2.8591,2.892,2.9035,2.9002,2.8706,2.8822,0.0,0.0,0.0,0.0,0.0,0.0,0.0,2.5745,0.0,0.0,0.0,0.0,2.4868,0.0,0.0,0.0,0.0,0.0,0.0,0.0,0.0,0.0,0.0,2.2893,2.2893,2.2893,2.2893,2.301,2.3296,2.3625,2.3906,2.4195,2.4457,2.4599,2.4599,2.4599,2.4599,2.4599,2.4599,2.4599,2.4599,2.4599,2.4599,2.4599,2.4599,2.4599,2.4599,2.4599,2.4778,2.5082,2.5096,2.5256,2.5499,2.5864,2.5984,2.6024,2.6286,2.6393,2.6393,2.6406,2.6406,2.6406,0.0,0.0,0.0,0.0,0.0,0.0,0.0,2.3236,0.0,0.0,0.0,0.0,0.0,0.0,2.2996,0.0,0.0,2.2996,2.3218,2.3013,0.0,0.0,0.0,2.2893,0.0,0.0,0.0,0.0,0.0,2.2893,2.2893,2.2893,2.2893,2.2893,2.2893,2.3013,0.0,0.0,0.0,0.0,0.0,2.7668,2.7502,2.7734,2.7817,2.7933,2.874,2.9035,2.9051,2.9149,2.9198,2.9346,3.0158,2.985,2.9362,3.0175,3.0059,2.949,2.8692,2.9057,2.9193,2.7233,0.0,0.0,0.0,0.0,0.0,0.0,0.0,0.0,0.0,0.0,0.0,0.0,0.0,0.0,0.0,2.3047,2.2893,2.2893,2.2893,2.2997,2.3265,2.3594,2.3906,2.4182,2.4457,2.4599,2.4599,2.4599,2.4599,2.4599,2.4599,2.4599,2.4599,2.4599,2.4599,2.4599,2.4599,2.512,2.6097,2.5301,2.5549,2.6593,2.5973,2.5757,2.5844,2.6139,2.6259,2.6272,2.6366,2.6406,2.6406,2.6406,2.6406,2.6406,2.356,0.0,0.0,0.0,0.0,0.0,0.0,0.0,0.0,0.0,2.3577,0.0,2.3594,0.0,2.3372,0.0,2.3423,2.3321,2.3406,2.3321,0.0,2.3082,2.3201,0.0,0.0,0.0,0.0,0.0,0.0,2.2893,2.2893,2.3013,2.3082,2.3082,2.3218,2.3696,2.4433,2.5465,2.6321,0.0,0.0,2.9508,2.941,3.011,2.9736,2.9051,3.0257,3.0694,3.0694,3.0694,3.0694,3.0839,3.1755,3.1419,3.0908,3.1973,3.1856,3.1253,3.0585,3.0992,3.1138,2.9142,2.9007,2.9073,2.7878,0.0,2.7423,0.0,0.0,0.0,0.0,0.0,0.0,0.0,0.0,0.0,0.0,2.3218,2.303,2.2911,2.2893,2.2997,2.3265,2.3594,2.3906,2.4182,2.4457,2.4599,2.4599,2.4599,2.4599,2.4599,2.4599,2.4599,2.4599,2.4599,2.4599,2.4618,2.5157,2.5695,2.6248,2.6015,2.628,2.6862,2.6267,2.6051,2.6172,2.6339,2.6406,2.6406,2.6406,2.6406,2.6406,2.6406,2.6406,2.6406,0.0,0.0,0.0,0.0,2.4051,0.0,0.0,0.0,2.4034,0.0,2.402,2.4017,2.402,2.4017,2.4017,2.402,2.4017,0.0,2.3475,2.3799,0.0,0.0,2.3799,2.4,2.4,0.0,0.0,0.0,0.0,0.0,2.2962,2.3355,2.3543,2.356,2.3935,2.4904,2.6253,2.6571,2.7568,2.9083,3.0741,3.2158,3.3307,3.3371,3.1694,2.9656,3.2416,3.3402,3.3402,3.3402,3.3402,3.3386,3.3422,3.3441,3.3519,3.4,3.4153,3.396,3.2974,3.3683,3.4066,3.1309,3.163,3.227,3.0871,0.0,3.0904,0.0,0.0,0.0,0.0,0.0,0.0,0.0,0.0,0.0,0.0,0.0,2.3386,2.2996,2.2924,2.301,2.3256,2.3598,2.3906,2.4155,2.4444,2.4599,2.4599,2.4599,2.4599,2.4599,2.4599,2.4599,2.4599,2.4599,2.4636,2.4728,2.6206,2.6359,2.5377,2.6783,2.6937,2.6114,2.6128,2.6289,2.6525,2.6604,2.6643,2.6643,2.6643,2.6643,2.6623,2.6465,2.6406,2.6406,2.4309,2.4679,2.4916,0.0,2.4578,2.436,0.0,0.0,0.0,0.0,2.434,2.4088,2.4343,2.4139,2.4088,2.4343,2.4139,0.0,0.0,0.0,0.0,2.385,2.3935,2.4,2.4,2.3901,0.0,2.385,0.0,0.0,2.373,2.4873,2.5398,2.5398,2.5498,2.6487,2.8032,2.8114,2.972,3.2221,3.2686,3.2444,3.1947,3.2987,3.2301,3.1001,3.2765,3.3402,3.3402,3.3402,3.3402,3.3461,3.3824,3.3922,3.4,3.4414,3.4785,3.4934,3.4318,3.4677,3.4762,3.2908,3.2686,3.2675,3.1513,3.1046,3.0961,3.1338,0.0,0.0,0.0,0.0,0.0,0.0,0.0,0.0,0.0,0.0,0.0,2.3861,2.3418,2.3153,2.301,2.3496,2.3826,2.3892,2.4337,2.4599,2.4599,2.4599,2.4599,2.4599,2.4599,2.4599,2.4599,2.4599,2.5175,2.6316,2.6703,2.7466,2.8514,2.7936,2.7667,2.7653,2.7998,2.818,2.8349,2.9561,3.0029,3.0029,3.0029,3.0029,2.9754,2.7299,2.6406,2.6406,2.473,0.0,0.0,2.5102,0.0,0.0,2.4764,2.4764,0.0,2.5069,2.5257,0.0,2.5629,2.6017,2.6352,2.6553,2.6386,0.0,0.0,0.0,0.0,2.6052,2.6186,2.627,2.627,2.6119,0.0,2.6036,0.0,0.0,2.5851,2.6804,2.7237,2.7237,2.7387,2.8345,2.9882,3.0482,3.179,3.3402,3.3402,3.2924,0.0,3.3098,3.304,3.2633,3.342,3.3558,3.3441,3.3633,3.3711,3.3789,3.4235,3.4352,3.445,3.4883,3.5195,3.5371,3.5293,3.5452,3.5462,3.4577,3.4373,3.4207,3.3603,3.332,3.319,3.319,3.3042,3.2895,3.2895,0.0,0.0,0.0,0.0,0.0,0.0,0.0,0.0,0.0,2.5005,2.4421,2.3591,2.3781,2.3973,2.3973,2.4364,2.4599,2.4599,2.4599,2.4599,2.4599,2.4599,2.4599,2.4599,2.5267,2.6042,2.6921,2.8439,2.945,2.9963,3.0104,2.9942,2.9578,2.9818,2.9948,3.0025,3.0935,3.13,3.13,3.13,3.13,3.1089,2.9211,2.8248,2.7839,0.0,0.0,0.0,0.0,0.0,0.0,0.0,2.5356,0.0,2.5356,0.0,2.7302,2.712,2.8361,2.9198,2.9198,0.0,2.9084,2.8772,2.9035,2.9067,2.8772,2.9035,2.9198,2.9198,2.892,0.0,0.0,0.0,0.0,2.8345,2.8821,2.9034,2.905,2.9346,3.016,3.1403,3.2797,3.3402,3.3402,3.3402,3.3441,3.348,3.348,3.3769,3.4192,3.4192,3.3922,3.3636,3.4039,3.4192,3.4235,3.4648,3.4785,3.4883,3.5332,3.5469,3.5547,3.5901,3.5999,3.5999,3.5999,3.5999,3.5999,3.5999,3.5999,3.5999,3.5999,3.5999,3.5999,3.5999,3.4719,0.0,0.0,0.0,0.0,0.0,0.0,0.0,0.0,0.0,0.0,2.4879,2.4403,2.4209,2.4209,2.4457,2.4599,2.4599,2.4599,2.4599,2.4599,2.4599,2.471,2.4913,2.6243,2.7118,2.7616,3.0649,3.1591,3.0734,3.2419,3.2492,3.1319,3.1529,3.1625,3.1644,3.1912,3.2045,3.2103,3.2103,3.2103,3.2103,3.2103,3.1494,3.0566,0.0,0.0,0.0,0.0,0.0,2.6802,2.6753,2.6736,2.6736,2.6736,2.7965,2.8378,2.7236,2.8361,2.9198,2.9198,2.9198,0.0,0.0,0.0,0.0,2.9117,2.9166,2.9198,2.9198,2.9133,2.91,0.0,0.0,0.0,2.9051,3.0272,3.0838,3.0838,3.0902,3.1063,3.1403,3.2797,3.3402,3.3402,3.3402,3.3633,3.3981,3.3981,3.4219,3.459,3.459,3.4531,3.4492,3.457,3.459,3.4668,3.5137,3.5273,3.5351,3.5764,3.5901,3.592,3.5979,3.5999,3.5999,3.5999,3.5999,3.5999,3.5999,3.5999,3.5999,3.5999,3.5999,3.5999,3.5999,3.5753,3.5418,0.0,0.0,0.0,0.0,0.0,0.0,0.0,0.0,2.6982,2.7092,2.5338,2.4209,2.4209,2.4457,2.4599,2.4599,2.4599,2.4599,2.4599,2.4599,2.5212,2.6466,2.6757,2.8348,3.1201,3.1807,3.2324,3.2693,3.3039,3.2492,3.1376,3.2766,3.3354,3.3487,3.514,3.6034,3.6331,3.6331,3.6331,3.6331,3.6331,3.6072,3.5127,0.0,0.0,0.0,0.0,0.0,0.0,0.0,2.9279,2.9018,2.8279,2.9427,3.0029,2.9345,3.0549,3.1389,3.1389,3.1389,3.1389,3.1389,3.1389,3.1389,3.1389,3.1389,0.0,3.1389,3.1389,3.1389,3.1389,0.0,0.0,0.0,3.2078,3.2381,3.2381,3.2381,3.2381,3.2428,3.3118,3.3539,3.375,3.375,3.4023,3.4411,3.4411,3.4668,3.5059,3.5059,3.5195,3.5335,3.5137,3.5059,3.5137,3.5569,3.5723,3.5762,3.594,3.5999,3.5999,3.5999,3.5999,3.5999,3.5999,3.5999,3.5999,3.5999,3.5999,3.5999,3.5999,3.5999,3.5999,3.5999,3.5999,3.5999,3.5999,0.0,0.0,0.0,0.0,0.0,0.0,0.0,0.0,0.0,2.7015,2.5745,2.4594,2.4572,2.4599,2.4599,2.4599,2.4599,2.4599,2.5378,2.6152,2.6885,2.8498,3.0237,3.211,3.3124,3.3908,3.4458,3.4654,3.4421,3.3883,3.469,3.5158,3.5456,3.6627,3.7089,3.7107,3.731,3.731,3.7199,3.7199,3.694,3.6239,0.0,2.682,0.0,0.0,2.7784,2.8739,3.095,3.1547,3.1242,2.9835,3.0872,3.1627,3.132,3.2556,3.3402,3.3402,3.3402,3.3402,3.3402,3.3402,3.3402,3.3402,3.3402,3.3402,3.3402,3.3402,3.3402,0.0,0.0,0.0,3.3402,3.3402,3.3402,3.3386,3.35,3.3539,3.3539,3.3636,3.3887,3.4231,3.4231,3.4469,3.4844,3.4844,3.5137,3.5527,3.5527,3.5725,3.5959,3.5644,3.5527,3.5586,3.5901,3.5999,3.5999,3.5999,3.5999,3.5999,3.5999,3.5999,3.5999,3.5999,3.5999,3.5999,3.5999,3.5999,3.5999,3.5999,3.5999,3.5999,3.5999,3.5999,3.5999,3.5999,0.0,0.0,0.0,0.0,0.0,0.0,0.0,0.0,3.0004,2.877,2.7404,2.5761,2.5075,2.4839,2.5083,2.4784,2.4899,2.5566,2.643,2.7212,2.7867,3.037,3.1994,3.2732,3.4361,3.5339,3.5742,3.6072,3.6201,3.6201,3.6201,3.6479,3.696,3.7255,3.731,3.7218,3.744,3.7457,3.7345,3.7198,3.6976,3.6717,0.0,0.0,0.0,0.0,0.0,3.0999,3.1256,3.2381,3.2702,3.129,3.2333,3.2718,3.1451,3.2556,3.3402,3.3402,3.3402,3.3402,3.3402,3.3402,3.3402,3.3402,3.3402,3.3402,3.3402,3.3402,3.3402,0.0,0.0,3.3402,3.3402,3.3402,3.3402,3.3422,3.3828,3.402,3.4059,3.4414,3.4609,3.4648,3.4648,3.4922,3.5332,3.5332,3.5586,3.594,3.594,3.5979,3.5999,3.5959,3.594,3.5959,3.5999,3.5999,3.5999,3.5999,3.5999,3.5999,3.5999,3.5999,3.5999,3.5999,3.5999,3.5999,3.5999,3.5999,3.5999,3.5999,3.5999,3.5999,3.5999,3.5999,3.5999,3.5999,3.5999,0.0,0.0,0.0,0.0,0.0,0.0,0.0,3.331,3.0147,2.8161,2.8326,2.6357,2.558,2.663,2.5359,2.5877,2.8665,2.756,2.8246,3.1049,3.1709,3.2946,3.4738,3.5285,3.5742,3.6164,3.6164,3.6201,3.6201,3.6201,3.6645,3.7366,3.7365,3.7806,3.8392,3.8064,3.8155,3.8391,3.7897,3.7988,3.8391,2.9264,2.9884,3.0468,3.0468,3.0936,3.1579,3.2428,3.3283,3.3617,3.3049,3.3241,3.3197,3.2622,3.3051,3.3519,3.3805,3.3558,3.3519,3.3789,3.3558,3.3402,3.3402,3.3402,3.3402,3.3402,3.3402,3.3402,0.0,0.0,0.0,3.3809,3.3809,3.3945,3.4199,3.4375,3.4469,3.4469,3.4629,3.4863,3.5117,3.5117,3.5371,3.5745,3.5745,3.5862,3.5999,3.5999,3.5999,3.5999,3.5999,3.5999,3.5999,3.5999,3.5999,3.5999,3.5999,3.5999,3.5999,3.5999,3.5999,3.5999,3.5999,3.5999,3.5999,3.5999,3.5999,3.5999,3.5999,3.5999,3.5999,3.5999,3.5999,3.5999,3.5999,3.5999,0.0,0.0,0.0,0.0,0.0,0.0,0.0,0.0,3.2421,3.0749,2.884,2.6754,2.6074,2.7197,2.6888,2.7581,2.9506,3.0058,3.1062,3.2579,3.3658,3.4715,3.572,3.5868,3.6054,3.6201,3.6201,3.633,3.6571,3.683,3.7089,3.744,3.7916,3.8154,3.8247,3.8338,3.815,3.7908,3.8169,3.8428,3.8592,3.0549,3.1242,3.1953,3.21,3.2118,3.2496,3.361,3.4062,3.4274,3.4274,3.3984,3.3773,3.3773,3.3773,3.3926,3.4254,3.3984,3.391,3.4254,3.3965,3.3773,3.3773,3.3773,0.0,3.3773,3.3773,3.3773,3.3773,3.3773,0.0,3.4274,3.4274,3.443,3.4707,3.4844,3.4902,3.4902,3.5039,3.5273,3.5586,3.5586,3.5762,3.5999,3.5999,3.5999,3.5999,3.5999,3.6077,3.6211,3.6211,3.6272,3.633,3.6077,3.5999,3.6018,3.6172,3.6211,3.623,3.635,3.6369,3.635,3.625,3.6211,3.6155,3.6038,3.5999,3.5999,3.5999,3.5999,3.5999,3.5999,3.5999,3.5999,3.5999,3.5999,3.5999,0.0,3.5999,0.0,0.0,3.5999,3.5587,3.454,3.4057,3.2788,3.0377,2.8516,2.7722,2.8321,2.8593,2.9526,3.1245,3.2281,3.3178,3.3978,3.5279,3.6049,3.6197,3.6437,3.6496,3.6368,3.6516,3.6719,3.6997,3.7273,3.7476,3.7624,3.8154,3.8282,3.8192,3.8485,3.8242,3.7761,3.7873,3.8186,3.8592,3.3067,3.3355,3.3523,3.3984,3.4062,3.4199,3.4609,3.4687,3.4687,3.4687,3.4687,3.4687,3.4687,3.4687,3.4687,3.4687,3.4687,3.4687,3.4687,3.4687,3.4687,3.4687,3.4687,3.4687,3.4687,3.4687,3.4687,3.4687,0.0,3.4687,3.4687,3.4687,3.4687,3.4726,3.5176,3.5391,3.541,3.582,3.5999,3.5999,3.5999,3.5999,3.5999,3.5999,3.5999,3.5999,3.5999,3.6289,3.6677,3.6677,3.6951,3.7129,3.6272,3.5999,3.6077,3.656,3.6677,3.6775,3.7168,3.7285,3.7187,3.6775,3.6677,3.656,3.6096,3.5999,3.5999,3.5999,3.5999,3.5999,3.5999,3.5999,3.5999,3.5999,3.5999,3.5999,0.0,3.5999,0.0,3.5999,3.5999,3.5982,3.5982,3.466,3.3797,3.3745,3.2316,3.112,3.0395,3.0308,3.1667,3.4731,3.3831,3.4031,3.5564,3.6377,3.6577,3.6216,3.7011,3.7181,3.6812,3.72,3.7403,3.7384,3.7403,3.7624,3.7972,3.7861,3.8117,3.8594,3.8582,3.858,3.8389,3.6807,3.7248,3.8592,3.4141,3.4297,3.4336,3.4473,3.4508,3.4551,3.4668,3.4961,3.5176,3.5176,3.543,3.5589,3.5589,3.5059,3.4824,3.5137,3.4883,3.4824,3.5156,3.4883,3.4707,3.4707,3.4707,3.4707,3.4707,3.4707,3.4707,3.4707,3.4707,3.4863,3.5176,3.5469,3.5589,3.5589,3.5745,3.5803,3.5823,3.594,3.5999,3.5999,3.5999,3.6191,3.6482,3.6482,3.6641,3.6894,3.6894,3.6973,3.7107,3.7107,3.7187,3.7246,3.6973,3.6894,3.6914,3.7068,3.7107,3.7146,3.7266,3.7305,3.7266,3.7129,3.7107,3.707,3.6914,3.6894,3.6894,3.6894,3.666,3.6482,3.6482,3.623,3.5999,3.5999,3.5999,3.5999,3.5999,0.0,3.5999,3.5999,3.5999,3.5999,3.5999,3.5589,3.4885,3.3884,3.4281,3.39,3.2386,3.2543,3.3611,3.5649,3.5643,3.6127,3.7164,3.7417,3.7509,3.7433,3.7695,3.7605,3.72,3.7329,3.755,3.7807,3.7807,3.8045,3.8411,3.8355,3.8447,3.8592,3.8595,3.8595,3.8556,3.8021,3.8168,3.8592,3.4648,3.4707,3.4766,3.4922,3.4961,3.5019,3.5176,3.5449,3.5625,3.5625,3.5842,3.5999,3.5999,3.551,3.5312,3.5605,3.5371,3.5296,3.5605,3.5351,3.5195,3.5195,3.5195,3.5195,3.5195,3.5195,3.5195,3.5195,3.5195,3.5351,3.5625,3.5881,3.5999,3.5999,3.5999,3.5999,3.5999,3.5999,3.6096,3.6269,3.6269,3.6541,3.6931,3.6931,3.7088,3.7305,3.7305,3.7402,3.7539,3.7539,3.7637,3.7791,3.7791,3.7791,3.7734,3.7578,3.7539,3.7559,3.7734,3.7791,3.7752,3.7578,3.7539,3.75,3.7324,3.7305,3.7305,3.7305,3.7107,3.6931,3.6931,3.668,3.6487,3.6487,3.6367,3.6269,3.6269,3.6096,3.5999,0.0,3.5999,3.5999,3.5999,3.6172,3.5873,3.4957,3.587,3.5983,3.4816,3.4824,3.5389,3.6509,3.6928,3.7402,3.7892,3.8068,3.8121,3.7991,3.7991,3.7954,3.7843,3.7843,3.7991,3.8228,3.8228,3.8355,3.8592,3.8592,3.8592,3.8592,3.8592,3.8592,3.8592,3.8592,3.8592,3.8592,3.4785,3.4785,3.4922,3.5371,3.543,3.5566,3.594,3.5999,3.5999,3.5999,3.5999,3.5999,3.5999,3.5999,3.5999,3.5999,3.5999,3.5999,3.5999,3.5999,3.5999,3.5999,3.5999,3.5999,3.5999,3.5999,3.5999,3.5999,3.5999,3.5999,3.5999,3.5999,3.5999,3.5999,3.6038,3.6057,3.6057,3.6077,3.6348,3.6736,3.6736,3.699,3.7344,3.7344,3.7363,3.7383,3.7383,3.7637,3.7951,3.7951,3.8242,3.8592,3.8592,3.8592,3.8514,3.8068,3.7951,3.8048,3.8475,3.8592,3.8495,3.8048,3.7951,3.7853,3.748,3.7383,3.7383,3.7383,3.7363,3.7344,3.7344,3.7324,3.7305,3.7305,3.699,3.6736,3.6736,3.6367,3.6096,3.6096,3.6096,3.6096,3.6096,3.6502,3.6736,3.6736,3.7088,3.7305,3.7344,3.699,3.6951,3.7324,3.7697,3.7912,3.7951,3.8379,3.8411,3.8045,3.8045,3.8247,3.8592,3.8592,3.8592,3.8592,3.8592,3.8592,3.8592,3.8592,3.8592,3.8592,3.8592,3.8592,3.8592,3.8592,3.8592,3.8592,3.5628,3.5686,3.5725,3.5842,3.5862,3.5881,3.5979,3.5999,3.5999,3.5999,3.5999,3.5999,3.5999,3.5999,3.5999,3.5999,3.5999,3.5999,3.5999,3.5999,3.5999,3.5999,3.5999,3.5999,3.5999,3.5999,3.5999,3.5999,3.5999,3.5999,3.5999,3.5999,3.5999,3.6018,3.6367,3.6541,3.656,3.6855,3.7051,3.7166,3.7166,3.7402,3.7756,3.7756,3.7988,3.8299,3.8299,3.8358,3.8436,3.8436,3.8514,3.8592,3.8592,3.8592,3.8573,3.8475,3.8436,3.8456,3.8573,3.8592,3.8573,3.8456,3.8436,3.8416,3.8319,3.8299,3.8299,3.8299,3.8008,3.7756,3.7756,3.7519,3.7305,3.7305,3.7207,3.7166,3.7166,3.7051,3.6992,3.6992,3.6992,3.6992,3.6992,3.709,3.7166,3.7166,3.7246,3.7441,3.7736,3.7658,3.7658,3.7756,3.7853,3.8068,3.8436,3.8534,3.8556,3.8447,3.8447,3.8501,3.8592,3.8592,3.8592,3.8592,3.8592,3.8592,3.8592,3.8592,3.8592,3.8592,3.8592,3.8592,3.8592,3.8592,3.8592,3.8592,3.5959,3.5999,3.5999,3.5999,3.5999,3.5999,3.5999,3.6174,3.6309,3.6309,3.6484,3.6584,3.6584,3.6584,3.6584,3.6584,3.6233,3.5999,3.5999,3.5999,3.5999,3.5999,3.5999,3.5999,3.5999,3.5999,3.6096,3.6309,3.6487,3.6584,3.6584,3.6584,3.6584,3.6621,3.6873,3.697,3.699,3.7207,3.7402,3.756,3.756,3.7832,3.8223,3.8223,3.8377,3.8592,3.8592,3.8592,3.8592,3.8592,3.8592,3.8592,3.8592,3.8592,3.8592,3.8592,3.8592,3.8592,3.8592,3.8592,3.8592,3.8592,3.8592,3.8592,3.8592,3.8592,3.8592,3.8592,3.8397,3.8223,3.8223,3.8027,3.7891,3.7891,3.7715,3.756,3.756,3.7422,3.7305,3.7305,3.7305,3.7305,3.7305,3.7461,3.756,3.756,3.7773,3.7988,3.8203,3.8223,3.8223,3.8223,3.8223,3.834,3.8592,3.8592,3.8592,3.8592,3.8592,3.8592,3.8592,3.8592,3.8592,3.8592,3.8592,3.8592,3.8592,3.8592,3.8592,3.8592,3.8592,3.8592,3.8592,3.8592,3.8592,3.8592,3.6096,3.6155,3.6194,3.6194,3.6194,3.6194,3.6194,3.6523,3.6775,3.6775,3.7088,3.7305,3.7305,3.7305,3.7305,3.7305,3.6604,3.6194,3.6194,3.6194,3.6194,3.6194,3.6194,3.6194,3.6194,3.6194,3.6387,3.6775,3.7146,3.7305,3.7305,3.7305,3.7305,3.7305,3.7363,3.7402,3.7402,3.7461,3.7695,3.8009,3.8009,3.8242,3.8592,3.8592,3.8592,3.8592,3.8592,3.8592,3.8592,3.8592,3.8592,3.8592,3.8592,3.8592,3.8592,3.8592,3.8592,3.8592,3.8592,3.8592,3.8592,3.8592,3.8592,3.8592,3.8592,3.8592,3.8592,3.8592,3.8592,3.8592,3.8592,3.8592,3.8592,3.8592,3.8262,3.8009,3.8009,3.7715,3.7518,3.7518,3.7518,3.7518,3.7518,3.7812,3.8009,3.8009,3.8359,3.8592,3.8592,3.8592,3.8592,3.8592,3.8592,3.8592,3.8592,3.8592,3.8592,3.8592,3.8592,3.8592,3.8592,3.8592,3.8592,3.8592,3.8592,3.8592,3.8592,3.8592,3.8592,3.8592,3.8592,3.8592,3.8592,3.8592,3.8592,3.8592,3.658,3.6873,3.7109,3.7109,3.7109,3.7109,3.7109,3.7168,3.7207,3.7207,3.7266,3.7305,3.7305,3.7305,3.7305,3.7305,3.7168,3.7109,3.7109,3.7109,3.7109,3.7109,3.7109,3.7109,3.7109,3.7109,3.7129,3.7207,3.7266,3.7305,3.7305,3.7305,3.7305,3.7305,3.7658,3.7814,3.7834,3.8241,3.8436,3.8495,3.8495,3.8534,3.8592,3.8592,3.8592,3.8592,3.8592,3.8592,3.8592,3.8592,3.8592,3.8592,3.8592,3.8592,3.8592,3.8592,3.8592,3.8592,3.8592,3.8592,3.8592,3.8592,3.8592,3.8592,3.8592,3.8592,3.8592,3.8592,3.8592,3.8592,3.8592,3.8592,3.8592,3.8592,3.8534,3.8495,3.8495,3.8436,3.8397,3.8397,3.8397,3.8397,3.8397,3.8456,3.8495,3.8495,3.8553,3.8592,3.8592,3.8592,3.8592,3.8592,3.8592,3.8592,3.8592,3.8592,3.8592,3.8592,3.8592,3.8592,3.8592,3.8592,3.8592,3.8592,3.8592,3.8592,3.8592,3.8592,3.8592,3.8592,3.8592,3.8592,3.8592,3.8592,3.8592,3.8592,3.7029,3.7168,3.7305,3.7305,3.7305,3.7305,3.7305,3.7463,3.7619,3.7619,3.7832,3.8006,3.8006,3.8006,3.8006,3.8006,3.8006,3.8006,3.8006,3.7559,3.7305,3.7305,3.7305,3.7305,3.7305,3.7502,3.7619,3.7619,3.7871,3.8006,3.8006,3.8006,3.8006,3.8006,3.8184,3.8281,3.8281,3.8514,3.8592,3.8592,3.8592,3.8592,3.8592,3.8592,3.8592,3.8592,3.8592,3.8592,3.8592,3.8592,3.8592,3.8592,3.8592,3.8592,3.8592,3.8592,3.8592,3.8592,3.8592,3.8592,3.8592,3.8592,3.8592,3.8592,3.8592,3.8592,3.8592,3.8592,3.8592,3.8592,3.8592,3.8592,3.8592,3.8592,3.8592,3.8592,3.8592,3.8592,3.8592,3.8592,3.8592,3.8592,3.8592,3.8592,3.8592,3.8592,3.8592,3.8592,3.8592,3.8592,3.8592,3.8592,3.8592,3.8592,3.8592,3.8592,3.8592,3.8592,3.8592,3.8592,3.8592,3.8592,3.8592,3.8592,3.8592,3.8592,3.8592,3.8592,3.8592,3.8592,3.8592,3.8592,3.8592,3.8592,3.8592,3.8592,3.7441,3.7519,3.7598,3.7598,3.7598,3.7598,3.7598,3.7871,3.8068,3.8068,3.8377,3.8592,3.8592,3.8592,3.8592,3.8592,3.8592,3.8592,3.8592,3.7967,3.7598,3.7598,3.7598,3.7598,3.7598,3.7892,3.8068,3.8068,3.8436,3.8592,3.8592,3.8592,3.8592,3.8592,3.8592,3.8592,3.8592,3.8592,3.8592,3.8592,3.8592,3.8592,3.8592,3.8592,3.8592,3.8592,3.8592,3.8592,3.8592,3.8592,3.8592,3.8592,3.8592,3.8592,3.8592,3.8592,3.8592,3.8592,3.8592,3.8592,3.8592,3.8592,3.8592,3.8592,3.8592,3.8592,3.8592,3.8592,3.8592,3.8592,3.8592,3.8592,3.8592,3.8592,3.8592,3.8592,3.8592,3.8592,3.8592,3.8592,3.8592,3.8592,3.8592,3.8592,3.8592,3.8592,3.8592,3.8592,3.8592,3.8592,3.8592,3.8592,3.8592,3.8592,3.8592,3.8592,3.8592,3.8592,3.8592,3.8592,3.8592,3.8592,3.8592,3.8592,3.8592,3.8592,3.8592,3.8592,3.8592,3.8592,3.8592,3.8592,3.8592,3.8592,3.8592,3.8592,3.7853,3.8203,3.8495,3.8495,3.8495,3.8495,3.8495,3.8514,3.8553,3.8553,3.8573,3.8592,3.8592,3.8592,3.8592,3.8592,3.8592,3.8592,3.8592,3.8534,3.8495,3.8495,3.8495,3.8495,3.8495,3.8534,3.8553,3.8553,3.8573,3.8592,3.8592,3.8592,3.8592,3.8592,3.8592,3.8592,3.8592,3.8592,3.8592,3.8592,3.8592,3.8592,3.8592,3.8592,3.8592,3.8592,3.8592,3.8592,3.8592,3.8592,3.8592,3.8592,3.8592,3.8592,3.8592,3.8592,3.8592,3.8592,3.8592,3.8592,3.8592,3.8592,3.8592,3.8592,3.8592,3.8592,3.8592,3.8592,3.8592,3.8592,3.8592,3.8592,3.8592,3.8592,3.8592,3.8592,3.8592,3.8592,3.8592,3.8592,3.8592,3.8592,3.8592,3.8592,3.8592,3.8592,3.8592,3.8592,3.8592,3.8592,3.8592,3.8592,3.8592,3.8592,3.8592,3.8592,3.8592,3.8592,3.8592,3.8592,3.8592,3.8592,3.8592,3.8592,3.8592,3.8592,3.8592,3.8592,3.8592,3.8592,3.8592,3.8592,3.8592,3.8592,3.8592,3.8592,3.832,3.8475,3.8592,3.8592,3.8592,3.8592,3.8592,3.8592,3.8592,3.8592,3.8592,3.8592,3.8592,3.8592,3.8592,3.8592,3.8592,3.8592,3.8592,3.8592,3.8592,3.8592,3.8592,3.8592,3.8592,3.8592,3.8592,3.8592,3.8592,3.8592,3.8592,3.8592,3.8592,3.8592,3.8592,3.8592,3.8592,3.8592,3.8592,3.8592,3.8592,3.8592,3.8592,3.8592,3.8592,3.8592,3.8592,3.8592,3.8592,3.8592,3.8592,3.8592,3.8592,3.8592,3.8592,3.8592,3.8592,3.8592,3.8592,3.8592,3.8592,3.8592,3.8592,3.8592,3.8592,3.8592,3.8592,3.8592,3.8592,3.8592,3.8592,3.8592,3.8592,3.8592,3.8592,3.8592,3.8592,3.8592,3.8592,3.8592,3.8592,3.8592,3.8592,3.8592,3.8592,3.8592,3.8592,3.8592,3.8592,3.8592,3.8592,3.8592,3.8592,3.8592,3.8592,3.8592,3.8592,3.8592,3.8592,3.8592,3.8592,3.8592,3.8592,3.8592,3.8592,3.8592,3.8592,3.8592,3.8592,3.8592,3.8592,3.8592,3.8592,3.8592,3.8592,3.8592,3.8592,3.8592,3.8592,3.8592,3.8592,3.8592,3.8592,3.8592,3.8592,3.8592,3.8592,3.8592,3.8592,3.8592,3.8592,3.8592,3.8592,3.8592,3.8592,3.8592,3.8592,3.8592,3.8592,3.8592,3.8592,3.8592,3.8592,3.8592,3.8592,3.8592,3.8592,3.8592,3.8592,3.8592,3.8592,3.8592,3.8592,3.8592,3.8592,3.8612,3.8729,3.8788,3.8807,3.8964,3.9003,3.9003,3.9003,3.9003,3.9003,3.9003,3.9003,3.9003,3.9003,3.9003,3.9003,3.9003,3.9003,3.9003,3.9003,3.9003,3.8944,3.8671,3.8592,3.8592,3.8592,3.8592,3.8592,3.8592,3.8592,3.8592,3.8592,3.8592,3.8592,3.8592,3.8592,3.8592,3.8592,3.8592,3.8592,3.8592,3.8592,3.8592,3.8592,3.8592,3.8592,3.8592,3.8592,3.8592,3.8592,3.8592,3.8592,3.8592,3.8592,3.8592,3.8592,3.8592,3.8592,3.8592,3.8592,3.8592,3.8592,3.8592,3.8592,3.8592,3.8592,3.8592,3.8592,3.8592,3.8592,3.8592,3.8592,3.8592,3.8592,3.8592,3.8592,3.8592,3.8592,3.8592,3.8592,3.8592,3.8592,3.8592,3.8592,3.8592,3.8592,3.8592,3.8592,3.8592,3.8592,3.8592,3.8592,3.8592,3.8592,3.8592,3.8592,3.8592,3.8592,3.8592,3.8592,3.8592,3.8592,3.8592,3.8592,3.8592,3.8592,3.8592,3.8592,3.8592,3.8592,3.8592,3.8592,3.8611,3.8612,3.8612,3.8612,3.865,3.9043,3.9199,3.9258,3.9726,3.9902,3.9902,3.9902,3.9902,3.9902,3.9902,3.9902,3.9902,3.9902,3.9902,3.9902,3.9902,3.9902,3.9902,3.9902,3.9902,3.9687,3.8827,3.8612,3.8612,3.8612,3.8612,3.8612,3.8612,3.8612,3.8612,3.8611,3.8592,3.8592,3.8592,3.8592,3.8592,3.8592,3.8592,3.8592,3.8592,3.8592,3.8592,3.8592,3.8592,3.8592,3.8592,3.8592,3.8592,3.8592,3.8611,3.8612,3.8612,3.8612,3.8612,3.8612,3.8592,3.8592,3.8592,3.8592,3.8592,3.8592,3.8592,3.8592,3.8592,3.8592,3.8592,3.8592,3.8592,3.8592,3.8592,3.8592,3.8592,3.8592,3.8592,3.8592,3.8592,3.8592,3.8592,3.8592,3.8592,3.8592,3.8592,3.8592,3.8592,3.8592,3.8592,3.8592,3.8592,3.8592,3.8592,3.8592,3.8592,3.8592,3.8592,3.8592,3.8592,3.8592,3.8592,3.8592,3.8592,3.8592,3.8592,3.8592,3.8592,3.8592,3.8592,3.8592,3.8592,3.8749,3.9004,3.9004,3.9199,3.9511,3.9511,3.9511,3.9512,3.9629,3.9687,3.9707,3.9844,3.9902,3.9902,3.9902,3.9902,3.9902,3.9902,3.9902,3.9902,3.9902,3.9902,3.9902,3.9902,3.9902,3.9902,3.9902,3.9902,3.9824,3.9589,3.9511,3.9511,3.9511,3.9511,3.9511,3.9511,3.9511,3.9394,3.9082,3.9004,3.8944,3.865,3.8592,3.8592,3.8592,3.8592,3.8592,3.8592,3.8592,3.8592,3.8592,3.8592,3.8592,3.8592,3.8866,3.9004,3.9004,3.9316,3.9511,3.9511,3.9511,3.9398,3.9153,3.8774,3.8592,3.8592,3.8592,3.8592,3.8592,3.8592,3.8592,3.8592,3.8592,3.8592,3.8592,3.8592,3.8592,3.8592,3.8592,3.8592,3.8592,3.8592,3.8592,3.8592,3.8592,3.8592,3.8592,3.8592,3.8592,3.8592,3.8592,3.8592,3.8592,3.8592,3.8592,3.8592,3.8592,3.8592,3.8651,3.8827,3.9003,3.912,3.912,3.912,3.912,3.912,3.912,3.9022,3.8846,3.9022,3.912,3.912,3.912,3.912,3.912,3.912,3.9238,3.9473,3.9473,3.9629,3.9902,3.9902,3.9902,3.9902,4.0078,4.0156,4.0156,4.0332,4.0429,4.0429,4.0429,4.0429,4.0429,4.0429,4.0429,4.0429,4.0429,4.0429,4.0429,4.0429,4.0429,4.0429,4.0429,4.0429,4.0429,4.0429,4.0175,3.9902,3.9902,3.9902,3.9902,3.9902,3.9788,3.9615,3.9323,3.9096,3.8868,3.8635,3.8596,3.8671,3.8895,3.8727,3.8671,3.8895,3.8727,3.8596,3.8596,3.8802,3.897,3.9101,3.9336,3.9473,3.9473,3.9746,3.9902,3.9902,3.9902,3.975,3.9389,3.9092,3.882,3.8596,3.8596,3.8596,3.8596,3.8596,3.8596,3.8596,3.8608,3.8605,3.8603,3.8614,3.8592,3.8592,3.8592,3.8592,3.8592,3.8592,3.8592,3.8592,3.8592,3.8592,3.8592,3.8592,3.8592,3.8592,3.8592,3.8592,3.8612,3.8651,3.8651,3.8671,3.871,3.871,3.8866,3.9238,3.9648,3.9902,3.9902,3.9902,3.9902,3.9902,3.9922,3.9746,3.9336,3.9707,3.9902,3.9902,3.9902,3.9902,3.9902,3.9902,3.9922,3.9961,3.9961,3.998,4.0019,4.0019,4.0019,4.0039,4.043,4.0567,4.0606,4.1035,4.1191,4.1191,4.1191,4.1191,4.1191,4.1191,4.1191,4.1191,4.1191,4.1191,4.1191,4.1191,4.1191,4.1191,4.1191,4.1191,4.1191,4.1191,4.0605,4.0019,4.0019,4.0019,4.0019,4.0019,3.9753,3.9562,3.9562,3.9163,3.8822,3.8727,3.8727,3.8897,3.937,3.9029,3.8897,3.9389,3.8954,3.8594,3.8594,3.9181,3.9693,3.9997,3.9979,3.9961,3.9961,3.998,4.0019,4.0019,4.0019,3.9867,3.9563,3.9563,3.9239,3.8594,3.8594,3.867,3.8821,3.8821,3.8821,3.8821,3.8832,3.8752,3.8601,3.8603,3.8595,3.8595,3.8612,3.8592,3.8592,3.8592,3.8592,3.8592,3.8592,3.8592,3.8592,3.8592,3.8592,3.8592,3.8592,3.8592,3.871,3.9023,3.9062,3.9199,3.9589,3.9628,3.9648,3.9746,3.9844,3.9902,3.9902,3.9902,3.9902,3.9902,4.0215,4.0313,4.0215,4.0019,3.9902,3.9902,3.9902,3.9902,3.9902,3.9902,4.0078,4.0371,4.0371,4.0566,4.0918,4.0918,4.0918,4.0918,4.1015,4.1054,4.1054,4.1152,4.1191,4.1191,4.1191,4.1191,4.1191,4.1191,4.1191,4.1191,4.1191,4.1191,4.1191,4.1191,4.1191,4.1191,4.1191,4.1191,4.1191,4.1191,4.1054,4.0918,4.0918,4.0918,4.0918,4.0918,4.086,4.082,4.0815,4.0698,4.0408,3.9733,3.9617,3.9674,3.9769,3.9693,3.9674,3.9769,3.9086,3.8594,3.8594,3.994,4.0836,4.0912,4.0578,4.0371,4.0371,4.0703,4.0918,4.0918,4.0918,4.0879,4.0801,4.0801,4.0066,3.8594,3.8594,3.9313,4.0645,4.0645,4.0645,4.0645,4.0641,3.9859,3.8592,3.8582,3.8595,3.8613,3.8599,3.8592,3.8592,3.8592,3.8592,3.8592,3.8846,3.8885,3.8964,3.9179,3.9218,3.9218,3.9218,3.9218,3.9315,3.9512,3.9531,3.9629,3.9863,3.9902,3.998,4.0176,4.0391,4.0527,4.0527,4.0527,4.0527,4.0527,4.0723,4.084,4.084,4.0644,4.0527,4.0527,4.0527,4.0527,4.0527,4.0527,4.0625,4.084,4.084,4.0957,4.1191,4.1191,4.1191,4.1191,4.1191,4.1191,4.1191,4.1191,4.1191,4.1191,4.1191,4.1191,4.1191,4.1191,4.1191,4.1191,4.1191,4.1191,4.1191,4.1191,4.1191,4.1191,4.1191,4.1191,4.1191,4.1191,4.1191,4.1191,4.1191,4.1191,4.1191,4.1191,4.1191,4.1191,4.1208,4.1188,4.1052,4.0585,4.0527,4.0527,4.0527,4.0527,4.0527,4.0527,4.0123,3.9836,3.9836,4.0662,4.1201,4.1201,4.0974,4.084,4.084,4.1074,4.1191,4.1191,4.1191,4.1191,4.1191,4.1191,4.0744,3.9836,3.9836,4.0315,4.1201,4.1201,4.1201,4.1201,4.1195,4.0674,3.9832,3.984,3.9357,3.8599,3.8591,3.8601,3.8592,3.8592,3.8592,3.8592,3.9258,3.9316,3.9453,3.9824,3.9902,3.9902,3.9902,3.9902,3.9922,4.0,4.0,4.0039,4.0098,4.0117,4.0254,4.0586,4.0996,4.1191,4.1191,4.1191,4.1191,4.1191,4.1191,4.1191,4.1191,4.1191,4.1191,4.1191,4.1191,4.1191,4.1191,4.1191,4.1191,4.1191,4.1191,4.1191,4.1191,4.1191,4.1191,4.1191,4.1191,4.1191,4.1191,4.1191,4.1191,4.1191,4.1191,4.1191,4.1191,4.1191,4.1191,4.1191,4.1191,4.1191,4.1191,4.1191,4.1191,4.1191,4.1191,4.1191,4.1191,4.1191,4.1191,4.1191,4.1191,4.1191,4.1191,4.1191,4.1191,4.1191,4.1191,4.1191,4.1191,4.1191,4.1191,4.1191,4.1191,4.1191,4.1191,4.1191,4.1191,4.1191,4.1191,4.1191,4.1191,4.1191,4.1191,4.1191,4.1191,4.1191,4.1191,4.1191,4.1191,4.1191,4.1191,4.1191,4.1191,4.1191,4.1191,4.1191,4.1191,4.1191,4.1191,4.1191,4.1207,4.1204,4.1204,4.1191,4.0355,3.9019,3.8714,3.8592,3.8597,3.8594,3.8592,3.8592,3.9785,3.9805,3.9824,3.9883,3.9902,3.9902,3.9902,3.9902,4.0019,4.0371,4.041,4.0586,4.0976,4.1015,4.1035,4.1094,4.1152,4.1191,4.1191,4.1191,4.1191,4.1191,4.1191,4.1191,4.1191,4.1191,4.1191,4.1191,4.1191,4.1191,4.1191,4.1191,4.1191,4.1191,4.1191,4.1191,4.1191,4.1191,4.1191,4.1191,4.1191,4.1191,4.1191,4.1191,4.1191,4.1191,4.1191,4.1191,4.1191,4.1191,4.1191,4.1191,4.1191,4.1191,4.1191,4.1191,4.1191,4.1191,4.1191,4.1191,4.1191,4.1191,4.1191,4.1191,4.1191,4.1191,4.1191,4.1191,4.1191,4.1191,4.1191,4.1191,4.1191,4.1191,4.1191,4.1191,4.1191,4.1191,4.1191,4.1191,4.1191,4.1191,4.1191,4.1191,4.1191,4.1191,4.1191,4.1191,4.1191,4.1191,4.1191,4.1191,4.1191,4.1191,4.1191,4.1191,4.1191,4.1191,4.1191,4.1191,4.1191,4.1191,4.1191,4.1211,4.121,4.121,4.119,4.1184,4.1044,4.0714,3.9191,3.8599,3.8595,3.8599,3.8592,3.8592,4.0195,4.0254,4.0312,4.0585,4.0625,4.0625,4.0625,4.0625,4.0703,4.0859,4.0879,4.0957,4.1172,4.1191,4.1191,4.1191,4.1191,4.1191,4.1191,4.1191,4.1191,4.1191,4.1191,4.1191,4.1191,4.1191,4.1191,4.1191,4.1191,4.1191,4.1191,4.1191,4.1191,4.1191,4.1191,4.1191,4.1191,4.1191,4.1191,4.1191,4.1191,4.1191,4.1191,4.1191,4.1191,4.1191,4.1191,4.1191,4.1191,4.1191,4.1191,4.1191,4.1191,4.1191,4.1191,4.1191,4.1191,4.1191,4.1191,4.1191,4.1191,4.1191,4.1191,4.1191,4.1191,4.1191,4.1191,4.1191,4.1191,4.1191,4.1191,4.1191,4.1191,4.1191,4.1191,4.1191,4.1191,4.1191,4.1191,4.1191,4.1191,4.1191,4.1191,4.1191,4.1191,4.1191,4.1191,4.1191,4.1191,4.1191,4.1191,4.1191,4.1191,4.1191,4.1191,4.1191,4.1191,4.1191,4.1191,4.1191,4.1191,4.1191,4.1191,4.1191,4.1191,4.1191,4.1191,4.119,4.1206,4.1123,4.0338,3.9466,3.8605,3.8614,3.8592,3.8592]}]]